[[{"header":{"parameterUnit":"m.s-1","parameterCategory":1,"la1":30.6,"la2":29.2853,"lo1":-89.7004,"lo2":-87.6739,"dx":0.0162,"dy":0.0183,"nx":112,"ny":82,"refTime":"2022-12-22T06:00:00:Z","depth":0,"parameterNumber":2,"parameterNumberName":"U-component_of_WINDS"},"data":[0.0,0.0,0.0,0.0,0.0,0.0,0.0,0.0,0.0,0.0,0.0,0.0,0.0,0.0,0.0,0.0,0.0,0.0,0.0,0.0,0.0,0.0,0.0,0.0,0.0,0.0,0.0,0.0,0.0,0.0,0.0,0.0,0.0,0.0,0.0,0.0,0.0,0.0,0.0,0.0,0.0,0.0,0.0,0.0,0.0,0.0,0.0,0.0,0.0,0.0,0.0,0.0,0.0,0.0,0.0,0.0,0.0,0.0,0.0,0.0,0.0,0.0,0.0,0.0,0.0,0.0,0.0,0.0,0.0,0.0,0.0,0.0,0.0,0.0,0.0,0.0,0.0,0.0,0.0,0.0,0.0,0.0,0.0,0.0,0.0,0.0,0.0,0.0,0.0,0.0,0.0,6.0858,6.1781,6.2204,6.2089,6.0627,5.9319,5.8357,0.0,0.0,0.0,0.0,0.0,0.0,0.0,0.0,0.0,0.0,0.0,0.0,0.0,0.0,0.0,0.0,0.0,0.0,0.0,0.0,0.0,0.0,0.0,0.0,0.0,0.0,0.0,0.0,0.0,0.0,0.0,0.0,0.0,0.0,0.0,0.0,0.0,0.0,0.0,0.0,0.0,0.0,0.0,0.0,0.0,0.0,0.0,0.0,0.0,0.0,0.0,0.0,0.0,0.0,0.0,0.0,0.0,0.0,0.0,0.0,0.0,0.0,0.0,0.0,0.0,0.0,0.0,0.0,0.0,0.0,0.0,0.0,0.0,0.0,0.0,0.0,0.0,0.0,0.0,0.0,0.0,0.0,0.0,0.0,0.0,0.0,0.0,0.0,0.0,0.0,0.0,0.0,0.0,0.0,0.0,0.0,0.0,0.0,0.0,0.0,0.0,0.0,0.0,0.0,5.9358,6.1666,6.2627,6.2858,6.2166,6.1166,5.9935,5.8396,0.0,0.0,0.0,0.0,0.0,0.0,0.0,0.0,0.0,0.0,0.0,0.0,0.0,0.0,0.0,0.0,0.0,0.0,0.0,0.0,0.0,0.0,0.0,0.0,0.0,0.0,0.0,0.0,0.0,0.0,0.0,0.0,0.0,0.0,0.0,0.0,0.0,0.0,0.0,0.0,0.0,0.0,0.0,0.0,0.0,0.0,0.0,0.0,0.0,0.0,0.0,0.0,0.0,0.0,0.0,0.0,0.0,0.0,0.0,0.0,0.0,0.0,0.0,0.0,0.0,0.0,0.0,0.0,0.0,0.0,0.0,0.0,0.0,0.0,0.0,0.0,0.0,0.0,0.0,0.0,0.0,0.0,0.0,0.0,0.0,0.0,0.0,0.0,0.0,0.0,0.0,0.0,0.0,0.0,0.0,0.0,0.0,0.0,0.0,0.0,0.0,0.0,0.0,6.1435,6.2166,6.332,6.4205,6.4166,6.2858,6.2397,6.1243,5.9088,5.8588,0.0,0.0,0.0,0.0,0.0,0.0,0.0,0.0,0.0,0.0,0.0,0.0,0.0,0.0,0.0,0.0,0.0,0.0,0.0,0.0,0.0,0.0,0.0,0.0,0.0,0.0,0.0,0.0,0.0,0.0,0.0,0.0,0.0,0.0,0.0,0.0,0.0,0.0,0.0,0.0,0.0,0.0,0.0,0.0,0.0,0.0,0.0,0.0,0.0,0.0,0.0,0.0,0.0,0.0,0.0,0.0,0.0,0.0,0.0,0.0,0.0,0.0,0.0,0.0,0.0,0.0,0.0,0.0,0.0,0.0,0.0,0.0,0.0,0.0,0.0,0.0,0.0,0.0,0.0,0.0,0.0,0.0,0.0,0.0,0.0,0.0,0.0,0.0,0.0,0.0,0.0,0.0,0.0,0.0,0.0,0.0,0.0,0.0,0.0,0.0,0.0,0.0,6.4282,6.5128,6.4936,6.5513,6.5282,6.3743,6.3435,6.2204,5.9665,5.9511,0.0,0.0,0.0,0.0,0.0,0.0,0.0,0.0,0.0,0.0,0.0,0.0,0.0,0.0,0.0,0.0,0.0,0.0,0.0,0.0,0.0,0.0,0.0,0.0,0.0,0.0,0.0,0.0,0.0,0.0,0.0,0.0,0.0,0.0,0.0,0.0,0.0,0.0,0.0,0.0,0.0,0.0,0.0,0.0,0.0,0.0,0.0,0.0,0.0,0.0,0.0,0.0,0.0,0.0,0.0,0.0,0.0,0.0,0.0,0.0,0.0,0.0,0.0,0.0,0.0,0.0,0.0,0.0,0.0,0.0,0.0,0.0,0.0,0.0,0.0,0.0,0.0,0.0,0.0,0.0,0.0,0.0,0.0,0.0,0.0,0.0,0.0,0.0,0.0,0.0,0.0,0.0,0.0,0.0,0.0,0.0,0.0,0.0,0.0,0.0,0.0,0.0,6.4936,6.6628,6.5897,6.5859,6.5513,6.4589,6.3782,6.2204,5.9665,5.9511,0.0,0.0,0.0,0.0,0.0,0.0,0.0,0.0,0.0,0.0,0.0,0.0,0.0,0.0,0.0,0.0,0.0,0.0,0.0,0.0,0.0,0.0,0.0,0.0,0.0,0.0,0.0,0.0,0.0,0.0,0.0,0.0,0.0,0.0,0.0,0.0,0.0,0.0,0.0,0.0,0.0,0.0,0.0,0.0,0.0,0.0,0.0,0.0,0.0,0.0,0.0,0.0,0.0,0.0,0.0,0.0,0.0,0.0,0.0,0.0,0.0,0.0,0.0,0.0,0.0,0.0,0.0,0.0,0.0,0.0,0.0,0.0,0.0,0.0,0.0,0.0,0.0,0.0,0.0,0.0,0.0,0.0,0.0,0.0,0.0,0.0,0.0,0.0,0.0,0.0,0.0,0.0,0.0,0.0,0.0,0.0,0.0,0.0,0.0,0.0,0.0,0.0,6.5243,6.6436,0.0,6.6628,6.632,6.5474,6.5128,6.3589,6.0512,0.0,0.0,0.0,0.0,0.0,0.0,0.0,0.0,0.0,0.0,0.0,0.0,0.0,0.0,0.0,0.0,0.0,0.0,0.0,0.0,0.0,0.0,0.0,0.0,0.0,0.0,0.0,0.0,0.0,0.0,0.0,0.0,0.0,0.0,0.0,0.0,0.0,0.0,0.0,0.0,0.0,0.0,0.0,0.0,0.0,0.0,0.0,0.0,0.0,0.0,0.0,0.0,0.0,0.0,0.0,0.0,0.0,0.0,0.0,0.0,0.0,0.0,0.0,0.0,0.0,0.0,0.0,0.0,0.0,0.0,0.0,0.0,0.0,0.0,0.0,0.0,0.0,0.0,0.0,0.0,0.0,0.0,0.0,0.0,0.0,0.0,0.0,0.0,0.0,0.0,0.0,0.0,0.0,0.0,0.0,0.0,0.0,0.0,0.0,0.0,0.0,0.0,6.4243,6.559,6.6474,0.0,6.6859,6.6513,6.5936,6.5897,6.4551,6.1396,0.0,0.0,0.0,0.0,0.0,0.0,0.0,0.0,0.0,0.0,0.0,0.0,0.0,0.0,0.0,0.0,0.0,0.0,0.0,0.0,0.0,0.0,0.0,0.0,0.0,0.0,0.0,0.0,0.0,0.0,0.0,0.0,0.0,0.0,0.0,0.0,0.0,0.0,0.0,0.0,0.0,0.0,0.0,0.0,0.0,0.0,0.0,0.0,0.0,0.0,0.0,0.0,0.0,0.0,0.0,0.0,0.0,0.0,0.0,0.0,0.0,0.0,0.0,0.0,0.0,0.0,0.0,0.0,0.0,0.0,0.0,0.0,0.0,0.0,0.0,0.0,0.0,0.0,0.0,0.0,0.0,0.0,0.0,0.0,0.0,0.0,0.0,0.0,0.0,0.0,0.0,0.0,0.0,0.0,0.0,0.0,0.0,0.0,0.0,0.0,0.0,0.0,6.4359,6.6051,6.709,6.709,6.6359,6.5897,6.5897,6.5897,6.482,0.0,0.0,0.0,0.0,0.0,0.0,0.0,0.0,0.0,0.0,0.0,0.0,0.0,0.0,0.0,0.0,0.0,0.0,0.0,0.0,0.0,0.0,0.0,0.0,0.0,0.0,0.0,0.0,0.0,0.0,0.0,0.0,0.0,0.0,0.0,0.0,0.0,0.0,0.0,0.0,0.0,0.0,0.0,0.0,0.0,0.0,0.0,0.0,0.0,0.0,0.0,0.0,0.0,0.0,0.0,0.0,0.0,0.0,0.0,0.0,0.0,0.0,0.0,0.0,0.0,0.0,0.0,0.0,0.0,0.0,0.0,0.0,0.0,0.0,0.0,0.0,0.0,0.0,0.0,0.0,0.0,0.0,0.0,0.0,0.0,0.0,0.0,0.0,0.0,0.0,0.0,0.0,0.0,0.0,0.0,0.0,0.0,0.0,0.0,0.0,0.0,0.0,0.0,0.0,6.5205,6.6244,6.6244,6.6051,6.5897,6.5897,6.5897,6.482,6.2243,0.0,0.0,0.0,0.0,0.0,0.0,0.0,0.0,0.0,0.0,0.0,0.0,0.0,0.0,0.0,0.0,0.0,0.0,0.0,0.0,0.0,0.0,0.0,0.0,0.0,0.0,0.0,0.0,0.0,0.0,0.0,0.0,0.0,0.0,0.0,0.0,0.0,0.0,0.0,0.0,0.0,0.0,0.0,0.0,0.0,0.0,0.0,0.0,0.0,0.0,0.0,0.0,0.0,0.0,0.0,0.0,0.0,0.0,0.0,0.0,0.0,0.0,0.0,0.0,0.0,0.0,0.0,0.0,0.0,0.0,0.0,0.0,0.0,0.0,0.0,0.0,0.0,0.0,0.0,0.0,0.0,0.0,0.0,0.0,0.0,0.0,0.0,0.0,0.0,0.0,0.0,0.0,0.0,0.0,0.0,0.0,0.0,0.0,0.0,0.0,0.0,0.0,6.3089,6.482,6.5897,6.5897,6.5897,6.5897,6.5897,6.5897,6.5089,6.3205,0.0,0.0,0.0,0.0,0.0,0.0,0.0,0.0,0.0,0.0,0.0,0.0,0.0,0.0,0.0,0.0,0.0,0.0,0.0,0.0,0.0,0.0,0.0,0.0,0.0,0.0,0.0,0.0,0.0,0.0,0.0,0.0,0.0,0.0,0.0,0.0,0.0,0.0,0.0,0.0,0.0,0.0,0.0,0.0,0.0,0.0,0.0,0.0,0.0,0.0,0.0,0.0,0.0,0.0,0.0,0.0,0.0,0.0,0.0,0.0,0.0,0.0,0.0,0.0,0.0,0.0,0.0,0.0,0.0,0.0,0.0,0.0,0.0,0.0,0.0,0.0,0.0,0.0,0.0,0.0,0.0,0.0,0.0,0.0,0.0,0.0,0.0,0.0,0.0,0.0,0.0,0.0,0.0,0.0,0.0,0.0,0.0,0.0,0.0,0.0,0.0,0.0,6.3205,6.4936,6.6013,6.6013,6.609,6.6128,6.6128,6.6128,6.5743,6.4782,0.0,0.0,0.0,0.0,0.0,0.0,0.0,0.0,0.0,0.0,0.0,0.0,0.0,0.0,0.0,0.0,0.0,0.0,0.0,0.0,0.0,0.0,0.0,0.0,0.0,0.0,0.0,0.0,0.0,0.0,0.0,0.0,0.0,0.0,0.0,0.0,0.0,0.0,0.0,0.0,0.0,0.0,0.0,0.0,0.0,0.0,0.0,0.0,0.0,0.0,0.0,0.0,0.0,0.0,0.0,0.0,0.0,0.0,0.0,0.0,6.1012,0.0,0.0,0.0,0.0,0.0,0.0,0.0,0.0,0.0,0.0,0.0,0.0,0.0,0.0,0.0,0.0,0.0,0.0,0.0,0.0,0.0,0.0,0.0,0.0,0.0,0.0,0.0,0.0,0.0,0.0,0.0,0.0,0.0,0.0,0.0,0.0,0.0,0.0,0.0,0.0,0.0,6.4128,6.5782,6.6821,6.6821,6.7475,6.7859,6.7859,6.7859,6.7205,6.5705,0.0,0.0,0.0,0.0,0.0,0.0,0.0,0.0,0.0,0.0,0.0,0.0,0.0,0.0,0.0,0.0,0.0,0.0,0.0,0.0,0.0,0.0,0.0,0.0,0.0,0.0,0.0,0.0,0.0,0.0,0.0,0.0,0.0,0.0,0.0,0.0,0.0,0.0,0.0,0.0,0.0,0.0,0.0,0.0,0.0,0.0,0.0,0.0,0.0,0.0,0.0,0.0,0.0,0.0,0.0,0.0,0.0,0.0,0.0,0.0,0.0,6.2127,0.0,0.0,0.0,0.0,0.0,0.0,0.0,0.0,0.0,0.0,0.0,0.0,0.0,0.0,0.0,0.0,0.0,0.0,0.0,0.0,0.0,0.0,0.0,0.0,0.0,0.0,0.0,0.0,0.0,0.0,0.0,0.0,0.0,0.0,0.0,0.0,0.0,0.0,0.0,0.0,6.5013,6.6705,6.7705,6.7705,6.8129,6.8398,6.8398,6.8398,6.8052,6.7167,6.6705,0.0,0.0,0.0,0.0,0.0,0.0,0.0,0.0,0.0,0.0,0.0,0.0,0.0,0.0,0.0,0.0,0.0,0.0,0.0,0.0,0.0,0.0,0.0,0.0,0.0,0.0,0.0,0.0,0.0,0.0,0.0,0.0,0.0,0.0,0.0,0.0,0.0,0.0,0.0,0.0,0.0,0.0,0.0,0.0,0.0,0.0,0.0,0.0,0.0,0.0,0.0,0.0,0.0,6.3128,6.3935,6.5243,6.5243,6.6013,6.7167,6.4397,6.3974,6.5205,0.0,0.0,0.0,0.0,0.0,0.0,0.0,0.0,0.0,0.0,0.0,0.0,0.0,0.0,0.0,0.0,0.0,0.0,0.0,0.0,0.0,0.0,0.0,0.0,0.0,6.5705,6.6397,0.0,0.0,0.0,0.0,0.0,0.0,0.0,0.0,0.0,0.0,0.0,0.0,6.632,6.7898,6.8783,6.8629,6.8898,6.9052,6.9052,6.9206,6.9244,6.909,6.8398,6.7475,0.0,0.0,0.0,0.0,0.0,0.0,0.0,0.0,0.0,0.0,0.0,0.0,0.0,0.0,0.0,0.0,0.0,0.0,0.0,0.0,0.0,0.0,0.0,0.0,0.0,0.0,0.0,0.0,0.0,0.0,0.0,0.0,5.8011,5.8127,0.0,0.0,0.0,0.0,0.0,0.0,0.0,0.0,0.0,0.0,0.0,0.0,0.0,0.0,6.4243,6.4897,6.5628,6.6436,6.7205,6.7705,6.7898,6.7898,6.8013,6.8205,6.7782,0.0,6.7898,6.7782,0.0,0.0,0.0,0.0,0.0,0.0,0.0,0.0,0.0,0.0,0.0,0.0,0.0,0.0,0.0,0.0,0.0,0.0,0.0,0.0,0.0,0.0,6.9898,6.9898,7.0052,7.0167,0.0,6.6436,6.3243,6.3012,0.0,0.0,0.0,0.0,0.0,0.0,0.0,0.0,6.8975,7.0014,7.0283,6.959,7.0821,7.1706,7.1706,7.2399,7.2514,7.1745,7.1591,7.0475,6.8167,6.7244,0.0,0.0,0.0,0.0,0.0,0.0,0.0,0.0,0.0,0.0,0.0,0.0,0.0,0.0,0.0,0.0,0.0,0.0,0.0,0.0,0.0,0.0,0.0,0.0,0.0,0.0,0.0,0.0,0.0,5.8434,5.9165,5.9665,5.9704,6.005,0.0,0.0,0.0,0.0,0.0,0.0,0.0,0.0,0.0,6.5397,6.5436,6.5859,6.6744,6.7128,6.7475,6.7859,6.8244,6.8667,6.9129,6.9129,6.9398,6.9821,6.9821,6.9821,6.9744,6.8783,6.7975,6.7244,0.0,0.0,0.0,0.0,0.0,6.5013,6.6859,6.6898,0.0,0.0,0.0,0.0,0.0,0.0,0.0,0.0,0.0,0.0,0.0,0.0,0.0,7.0667,7.0898,7.0898,7.0898,6.9167,6.7282,0.0,6.6474,6.6167,6.4359,0.0,0.0,0.0,0.0,0.0,7.0937,7.1398,7.186,7.2437,7.2745,7.3322,7.4245,7.4707,7.4745,7.4361,7.4322,7.363,7.2014,7.0206,6.8321,0.0,0.0,0.0,0.0,0.0,0.0,0.0,0.0,0.0,0.0,0.0,0.0,0.0,0.0,0.0,0.0,0.0,0.0,0.0,0.0,0.0,0.0,0.0,0.0,0.0,0.0,0.0,0.0,5.9665,6.0473,6.1358,6.1435,6.1704,0.0,0.0,0.0,0.0,0.0,0.0,6.5513,6.559,6.6128,6.7398,6.7436,6.7859,6.8744,6.8744,6.8859,6.9052,6.9052,6.9398,7.0014,7.0014,7.0321,7.0898,7.0898,7.0898,7.0783,6.9552,6.8936,6.8667,6.8013,6.7628,6.7475,6.7667,6.7398,6.7167,6.9283,6.959,6.8936,6.8282,0.0,6.709,6.5166,0.0,0.0,0.0,0.0,6.7205,6.8667,6.9052,6.936,7.0591,7.1052,7.1245,7.1245,7.1398,7.1129,0.0,6.936,6.8783,6.6859,0.0,0.0,0.0,0.0,7.1937,7.3014,7.3168,7.363,7.4899,7.4707,7.4976,7.6245,7.6515,7.663,7.663,7.663,7.6245,7.5399,7.3322,7.1629,7.036,0.0,0.0,0.0,0.0,0.0,0.0,0.0,0.0,0.0,0.0,0.0,0.0,0.0,0.0,0.0,0.0,0.0,0.0,0.0,0.0,0.0,0.0,0.0,0.0,0.0,0.0,0.0,0.0,0.0,6.3089,6.3166,0.0,0.0,0.0,0.0,6.5628,6.5782,6.6474,6.8129,6.8205,6.8244,6.8321,6.8321,6.8744,6.9629,6.9629,7.0014,7.0783,7.0783,7.0783,7.0821,7.0821,7.086,7.0898,7.0898,7.0898,7.0898,7.0821,7.0321,6.9629,6.959,6.9052,6.8436,6.9244,6.9552,6.9629,7.0514,7.0821,7.0783,7.0706,6.9629,6.8321,6.8205,6.759,0.0,0.0,6.8859,6.9706,7.0552,7.0783,7.0783,7.0898,7.1514,7.2129,7.2129,7.2783,7.3091,0.0,7.2014,7.1975,7.1822,0.0,7.2206,7.3053,7.3283,7.3976,7.5592,7.5822,7.5822,7.5938,7.663,7.713,7.7207,7.7938,7.8361,7.8361,7.8361,7.8015,7.7207,7.6245,7.4591,7.2129,7.1168,0.0,0.0,0.0,0.0,0.0,0.0,0.0,0.0,0.0,0.0,0.0,0.0,0.0,0.0,0.0,0.0,0.0,0.0,0.0,0.0,0.0,0.0,0.0,0.0,0.0,0.0,0.0,0.0,6.3974,6.3628,0.0,0.0,6.4974,6.5667,6.7398,6.7513,6.8013,6.9167,6.9244,6.9475,6.9975,7.0014,7.0167,7.0475,7.0475,7.0629,7.0898,7.0898,7.0898,7.0898,7.0898,7.0898,7.0898,7.0898,7.0898,7.0898,7.0898,7.0744,7.0475,7.0475,7.0283,7.0052,7.036,7.0475,7.0514,7.0783,7.0898,7.0898,7.0898,7.0514,7.0014,7.0014,6.9783,6.9744,7.0591,7.1052,7.1514,7.236,7.2591,7.2591,7.2591,7.2822,7.3053,7.3053,7.3283,7.3553,7.3783,7.3399,7.286,7.2283,7.3553,7.4553,7.4322,7.5668,7.6938,7.7515,7.7169,7.7246,7.8323,7.8207,7.8515,7.9631,8.0015,8.0169,8.0169,8.0169,7.9785,7.8938,7.8054,7.6669,7.4668,7.4322,7.1745,0.0,0.0,0.0,0.0,0.0,0.0,0.0,0.0,0.0,0.0,0.0,0.0,0.0,0.0,0.0,0.0,0.0,0.0,0.0,0.0,0.0,0.0,0.0,0.0,0.0,0.0,6.3474,6.4859,6.4782,6.5051,6.6205,6.6551,6.7321,6.8744,6.8859,6.9206,7.0052,7.009,7.036,7.0898,7.0898,7.0898,7.0898,7.0898,7.0898,7.0898,7.0898,7.1052,7.1321,7.1321,7.1514,7.1783,7.1783,7.1783,7.1783,7.1783,7.1783,7.1706,7.1129,7.0898,7.0898,7.0898,7.0898,7.0898,7.0898,7.1091,7.1321,7.1321,7.1552,7.1783,7.1783,7.1783,7.1898,7.2476,7.2629,7.2783,7.336,7.3514,7.3514,7.3514,7.3707,7.3899,7.3899,7.4361,7.4938,7.5476,7.4668,7.3899,7.3899,7.5322,7.6245,7.5668,7.7246,7.8477,7.8477,7.8284,7.8669,8.0092,7.9708,7.9939,8.1362,8.0708,8.0708,8.1862,8.0862,8.0362,8.0631,7.9015,7.7553,7.6476,7.5861,7.3053,6.8013,0.0,0.0,0.0,0.0,0.0,0.0,0.0,0.0,0.0,0.0,0.0,0.0,0.0,0.0,0.0,0.0,0.0,0.0,0.0,0.0,0.0,0.0,0.0,6.4359,6.4589,6.4936,6.582,6.6628,6.7128,6.7167,6.7936,6.8821,6.9667,6.9744,7.009,7.086,7.0898,7.0898,7.0898,7.0898,7.0898,7.0937,7.0937,7.0937,7.0975,7.0975,7.1398,7.2245,7.2245,7.2706,7.3514,7.3514,7.3514,7.3514,7.3514,7.3514,7.3322,7.1629,7.0975,7.0975,7.0975,7.0975,7.0975,7.0975,7.1514,7.2245,7.2245,7.2822,7.3514,7.3514,7.3514,7.3514,7.3553,7.3553,7.3553,7.3591,7.3591,7.3591,7.363,7.4207,7.4784,7.4822,7.613,7.7323,7.7323,7.5976,7.5361,7.7053,7.7361,7.7361,7.7361,7.8054,0.0,7.8592,7.9323,8.0169,8.0977,8.1093,8.14,8.2208,7.9977,8.0015,8.3401,8.0477,7.9746,8.2247,7.9208,7.7438,7.7361,7.563,7.3899,7.2283,0.0,0.0,0.0,0.0,0.0,0.0,0.0,0.0,0.0,0.0,0.0,0.0,0.0,0.0,0.0,0.0,0.0,0.0,0.0,0.0,0.0,0.0,6.4051,6.4551,6.4589,6.5128,6.659,6.6974,6.759,6.8859,6.9206,6.9667,7.0514,7.0552,7.0667,7.0898,7.0898,7.0898,7.0898,7.0898,7.1206,7.1822,7.1822,7.2168,7.2783,7.2783,7.2899,7.3129,7.3129,7.3283,7.3514,7.3514,7.3514,7.3514,7.3514,7.3514,7.3437,7.2976,7.2783,7.2783,7.2783,7.2783,7.2783,7.2783,7.2937,7.3129,7.3129,7.3322,7.3514,7.3514,7.3514,7.363,7.4207,7.4361,7.4514,7.5168,7.5322,7.5476,7.6092,7.6399,7.6746,7.7323,7.7823,7.8169,7.8169,7.7784,7.7592,7.8092,7.8707,7.9131,7.9131,7.9823,0.0,8.04,8.1093,8.1246,8.0246,8.0708,8.1208,8.14,8.0785,8.1285,0.0,8.2708,8.2516,8.3208,8.1747,8.0362,7.9131,7.6207,7.4476,0.0,0.0,0.0,0.0,0.0,0.0,0.0,0.0,0.0,0.0,0.0,0.0,0.0,0.0,0.0,0.0,0.0,0.0,0.0,0.0,0.0,0.0,6.4551,6.5667,6.5667,6.5667,6.6013,6.6974,6.7744,6.859,6.959,7.0014,7.0398,7.086,7.0898,7.0898,7.0898,7.0898,7.1052,7.1437,7.1437,7.186,7.2745,7.2745,7.3014,7.3514,7.3514,7.3668,7.4014,7.4014,7.4207,0.0,7.4553,7.4553,7.4553,7.4553,7.4553,0.0,0.0,0.0,0.0,0.0,7.3514,7.3514,7.3514,7.3745,7.4014,7.4014,7.4245,7.4553,7.4553,7.4553,7.4707,7.5553,7.5784,7.5976,7.6823,7.7053,7.7169,7.7669,7.7784,7.7938,7.84,7.8784,7.9054,7.9054,0.0,0.0,8.0015,7.9939,7.9939,8.0285,8.1054,8.1593,8.1593,8.2324,8.2477,8.1516,8.1862,8.2285,8.267,8.1708,0.0,0.0,0.0,8.2554,8.2554,8.2054,0.0,0.0,0.0,0.0,0.0,0.0,0.0,0.0,7.0975,7.0591,0.0,0.0,0.0,0.0,0.0,0.0,0.0,0.0,0.0,0.0,0.0,0.0,0.0,0.0,0.0,0.0,6.6051,6.7128,6.7244,6.7321,6.7398,6.7398,6.8744,6.9744,6.9821,7.0475,7.0898,7.0898,7.0898,7.0937,7.1052,0.0,0.0,0.0,0.0,7.2745,7.363,7.363,7.3668,7.3783,7.3783,7.4168,7.4861,7.4938,7.5438,7.613,7.6245,7.6284,7.6284,7.6284,7.6284,7.613,7.4437,7.3783,7.3783,7.3783,7.3783,7.3822,7.3899,0.0,0.0,7.5091,7.5668,7.6284,7.6284,7.6284,7.6438,7.7207,7.7438,7.7592,7.8284,7.8477,7.8515,7.8631,7.8631,7.8669,7.8746,7.94,7.9977,8.0054,8.0708,8.1477,8.2324,8.1131,8.04,8.1246,8.1977,8.2439,8.2439,8.3208,8.367,8.3478,0.0,0.0,8.4824,8.2824,8.2939,8.6209,8.3516,8.1747,8.1554,8.1516,8.1131,8.0246,7.9477,7.94,8.0092,7.9323,7.8823,7.8515,7.3899,7.2591,0.0,0.0,0.0,0.0,0.0,0.0,0.0,0.0,0.0,0.0,0.0,0.0,0.0,0.0,0.0,6.5474,6.6474,6.7359,6.8052,6.8744,6.9206,6.9206,6.9475,6.9937,7.0591,7.0821,7.0898,7.0898,7.0898,7.1206,7.1898,7.1937,0.0,7.3206,7.3245,7.363,7.4476,7.4476,7.4822,7.5515,0.0,0.0,7.5784,7.6476,7.6899,7.7092,7.7707,7.8015,7.8015,7.8015,7.8015,7.7861,7.6169,7.5515,7.5515,7.5515,7.5515,7.563,7.6322,7.6669,7.6899,7.7553,7.7861,7.8015,7.8015,7.8015,0.0,7.8207,7.8246,7.8284,7.8438,7.8477,7.8669,7.9361,7.9554,7.9746,8.0439,8.0746,8.1054,8.1708,8.1939,8.2324,8.3208,8.2516,8.2093,8.2978,8.3247,8.3362,8.3362,8.4093,8.4093,8.2708,8.317,8.3939,8.4824,8.4439,8.5324,8.8017,8.694,8.5593,8.4209,8.417,8.3747,8.2862,8.2708,8.2362,8.1823,8.1631,8.0862,7.9515,7.7823,7.7207,0.0,0.0,0.0,0.0,0.0,0.0,0.0,0.0,0.0,0.0,0.0,6.3435,0.0,0.0,6.5667,6.6936,6.7859,6.8552,6.9013,6.9783,7.0167,6.9744,7.0052,7.0475,7.086,7.0898,7.0898,7.0898,7.1283,7.1745,7.2168,7.2591,7.3245,7.4091,7.4091,7.4514,7.5361,7.5784,7.6207,7.6669,7.7053,7.7246,7.7284,7.7707,7.79,7.79,7.8323,7.8477,7.8477,7.8477,7.8477,7.84,7.7592,7.7246,7.7246,7.7246,7.7246,7.7323,7.7746,7.79,7.7977,7.8361,7.8477,7.8477,7.8477,7.8477,7.8592,7.9015,7.9131,7.9246,7.9669,7.9785,7.99,8.0362,8.0746,8.117,8.1593,8.2054,8.2477,8.2862,8.2939,8.3208,8.4093,8.3901,8.3747,8.417,8.4247,8.4401,8.4786,8.5247,8.5324,8.4901,8.5247,8.5863,8.6748,8.6786,8.7325,8.8632,8.8286,8.7478,8.6209,8.617,8.5555,8.4286,8.4247,8.3824,8.2939,8.2939,8.2516,8.1708,8.1246,8.0131,0.0,0.0,0.0,0.0,0.0,0.0,0.0,0.0,6.3628,6.3974,6.4051,6.4512,6.609,6.6397,6.6898,6.8398,6.9244,6.9744,6.9898,7.0475,7.0667,7.0014,7.0514,7.0898,7.0898,7.1052,7.1168,7.1168,7.1975,7.2514,7.2668,7.336,7.413,7.4938,7.4938,7.5361,7.6245,7.6938,7.7361,7.7553,7.8169,7.8477,7.8515,7.8669,7.8746,7.8746,7.8938,7.9015,7.9015,7.9015,7.9015,7.9015,7.9015,7.9015,7.8938,7.8631,7.8477,7.8515,7.8669,7.8746,7.8784,7.8938,7.9015,7.9015,7.9015,7.9015,7.9131,7.9862,8.0054,8.0208,8.0939,8.1208,8.1323,8.1323,8.1939,8.2554,8.2554,8.3093,8.3632,8.3824,8.3862,8.4132,8.4978,8.5132,8.5132,8.5132,8.5132,8.544,8.6247,8.6363,8.6709,8.7555,8.7632,8.7979,8.8863,8.9094,8.9094,8.894,8.894,8.8556,8.7671,8.7632,8.694,8.544,8.5401,8.4863,8.3862,8.3862,8.3747,8.3593,8.3593,8.2131,6.532,6.4897,0.0,6.4397,6.3858,6.3705,0.0,0.0,6.4897,6.6359,6.6667,6.6974,6.7936,6.8129,6.8436,6.9398,6.9629,6.9937,7.0667,7.0821,7.086,7.0783,7.086,7.0898,7.0898,7.1591,7.2052,7.2052,7.286,7.3668,7.4399,7.4514,7.4976,7.5822,7.5861,7.6284,7.713,7.7246,7.7669,7.8361,7.8438,7.8477,7.8515,7.9285,7.9669,7.9708,8.0477,8.0823,8.0823,8.0823,8.0823,8.0823,8.0823,8.0823,8.0631,7.9054,7.8477,7.8592,7.94,7.9669,7.9785,8.0554,8.0823,8.0823,8.0823,8.0823,8.0823,8.0939,8.0939,8.0977,8.1054,8.1631,8.217,8.217,8.2824,8.3439,8.3439,8.3516,8.3824,8.4593,8.4747,8.5016,8.5824,8.5978,8.5978,8.5978,8.5978,8.6286,8.7132,8.7248,8.7594,8.844,8.8556,8.8863,8.971,9.0479,9.0594,8.9825,8.9787,8.9402,8.8594,8.8556,8.8094,8.7132,8.7132,8.6324,8.4747,8.4747,8.4362,8.3593,8.3593,8.3401,6.5513,0.0,0.0,0.0,6.5089,6.5128,6.632,6.632,6.6397,6.7628,6.7859,6.8129,6.9013,6.9167,6.9436,0.0,7.0398,7.0514,7.086,7.0898,7.0898,7.0898,7.136,7.1668,7.1668,7.1975,7.2399,7.2937,7.3745,7.4361,7.4668,7.5668,7.6361,7.6746,7.7207,7.763,7.7977,7.8515,7.8938,7.9246,7.9785,8.0015,8.0015,8.04,8.0554,8.0592,8.0939,8.1093,8.1093,8.1093,8.1093,8.1093,8.1093,8.1093,8.1016,8.0285,8.0015,8.0054,8.0439,8.0554,8.0631,8.0977,8.1093,8.1093,8.1093,8.1093,8.1208,8.167,8.1785,8.19,8.2401,8.2785,8.3054,8.3054,8.3708,8.4362,8.4362,8.4709,8.517,8.5517,8.5593,8.5709,8.6055,8.6094,8.6286,8.6786,8.6863,8.7171,8.8017,8.8171,8.8479,8.9325,8.9863,9.0287,9.0633,9.0979,9.1056,9.0671,9.0671,9.0287,8.944,8.9402,8.9017,8.8171,8.8171,8.7555,8.6363,8.6363,8.5901,8.5055,8.5055,8.5055,6.6359,0.0,0.0,6.6782,6.659,6.6744,6.7321,6.7475,6.7705,6.859,6.8783,6.9013,6.986,7.0014,7.0206,7.0821,7.0898,7.0898,7.0898,7.0898,7.0975,7.1245,7.1822,7.236,7.2822,7.2899,7.3168,7.3783,7.4591,7.5168,7.5399,7.6592,7.74,7.763,7.8207,7.8631,7.8861,7.9477,7.9939,8.0169,8.0785,8.1093,8.1093,8.1093,8.1093,8.1093,8.1093,8.1093,8.1131,8.1323,8.1439,8.1439,8.1708,8.1785,8.1785,8.1785,8.1631,8.1477,8.1708,8.1785,8.1785,8.1785,8.1785,8.1785,8.1785,8.1785,8.19,8.2477,8.267,8.2785,8.3439,8.3785,8.3939,8.3939,8.4593,8.5247,8.5247,8.5709,8.6094,8.6094,8.6286,8.6478,8.6478,8.6671,8.7094,8.7979,8.8094,8.8325,8.894,8.9248,8.9594,9.021,9.0825,9.121,9.121,9.121,9.121,9.121,9.121,9.0941,9.0287,9.0287,8.9863,8.9056,8.9017,8.8594,8.7748,8.7748,8.7325,8.6478,8.6478,8.6324,6.8744,0.0,6.9398,6.8552,6.8321,6.8321,6.8359,6.8359,6.8629,6.9475,6.9667,6.9898,7.0706,7.086,7.086,7.0898,7.0898,7.0898,7.0898,7.0898,7.1206,7.2052,7.2168,7.2822,0.0,7.463,7.463,7.4668,7.5476,7.6322,7.7169,7.7284,7.7669,7.8438,7.8477,7.89,7.9746,7.9785,8.0208,8.1054,8.1093,8.1093,8.1093,8.1093,8.1093,8.1093,8.1093,8.1093,8.117,8.1939,8.2247,8.2362,8.317,8.3516,8.3516,8.3516,8.2978,8.2362,8.3208,8.3516,8.3516,8.3516,8.3516,8.3516,8.3516,8.3516,8.3516,8.3555,8.3555,8.3555,8.3593,8.4209,8.4863,8.4863,8.5478,8.6055,8.6055,8.6094,8.6094,8.6094,8.6786,8.7363,8.7363,8.8055,8.8902,8.971,8.9825,8.9825,8.9863,9.0594,9.1133,9.1171,9.1171,9.121,9.121,9.121,9.121,9.121,9.121,9.121,9.1171,9.1171,9.0748,8.9902,8.9863,8.9479,8.8671,8.8671,8.8209,8.7363,8.7363,8.6901,6.9244,0.0,6.8783,6.8475,6.8398,6.8552,6.9129,6.9244,6.9513,7.0321,7.0975,7.1437,7.1706,7.1745,7.1745,7.1745,7.1283,7.0898,7.0898,7.1398,7.186,7.2168,7.3168,0.0,0.0,0.0,0.0,7.5515,7.6361,7.6976,7.7284,7.8361,7.9092,7.9361,7.9939,8.0362,8.0669,8.0669,8.0823,8.1093,8.1093,8.1362,8.19,8.19,8.2208,8.2747,8.2747,8.2747,8.2785,8.3054,8.317,8.317,8.3478,8.3593,8.367,8.4247,8.4286,8.3978,8.3708,8.3593,8.3593,8.3593,8.3593,8.3593,8.3593,8.3593,8.3708,8.4286,8.4478,8.4593,8.5132,8.5478,8.5709,8.5709,8.5901,8.6094,8.6094,8.6555,8.6978,8.6978,8.7671,8.8248,8.8248,8.8517,8.8979,8.9787,9.0402,9.0748,9.0748,9.1018,9.121,9.121,9.121,9.121,9.121,9.121,9.121,9.121,9.121,9.121,9.121,9.121,9.1056,9.0787,9.0748,9.0364,8.9517,8.9517,8.9056,8.8248,8.8248,8.8094,6.9629,6.9513,6.9283,6.9283,6.9283,6.9436,7.0014,7.0129,7.0283,7.0783,7.136,7.1822,7.2129,7.1937,7.2014,7.2937,7.2399,7.1937,7.2206,7.2745,7.3091,7.3091,7.4053,0.0,0.0,0.0,0.0,7.6399,7.6976,7.7553,7.8169,7.9208,7.9939,8.0246,8.0823,8.1093,8.1093,8.1093,8.1246,8.1516,8.1823,8.2247,8.2747,8.2747,8.3054,8.3593,8.3593,8.3593,8.3632,8.3939,8.4055,8.4093,8.4362,8.4478,8.4555,8.5132,8.5324,8.5247,8.467,8.4478,8.4478,8.4478,8.4478,8.4478,8.4478,8.4478,8.4593,8.517,8.5324,8.544,8.5978,8.6094,8.6094,8.6094,8.6324,8.6555,8.6555,8.7248,8.7863,8.7863,8.8556,8.9133,8.9133,8.9402,8.9787,9.0287,9.0825,9.121,9.121,9.121,9.121,9.121,9.121,9.121,9.121,9.121,9.121,9.121,9.121,9.121,9.121,9.121,9.121,9.121,9.121,9.0941,9.0364,9.0364,8.994,8.9133,8.9133,8.8979,6.9975,7.0321,7.0898,7.0898,7.0898,7.0898,7.0898,7.0898,7.0898,7.0898,7.0937,7.1206,0.0,0.0,7.1745,7.4168,7.3937,7.3707,7.4476,7.4668,7.4707,0.0,0.0,0.0,0.0,0.0,0.0,7.74,0.0,7.813,7.9708,7.9862,8.0246,8.1054,8.1093,8.1131,8.117,8.1208,8.1593,8.2362,8.3208,8.3632,8.367,8.367,8.367,8.3708,8.3708,8.3708,8.3785,8.4632,8.4978,8.5055,8.5786,8.6094,8.6094,8.6094,8.6094,8.6094,8.6094,8.6094,8.6094,8.6094,8.6094,8.6094,8.6094,8.6094,8.6094,8.6094,8.6094,8.6094,8.617,8.617,8.617,8.6209,8.6863,8.7478,8.7478,8.8132,8.8748,8.8748,8.9402,8.9979,8.9979,9.0671,9.121,9.121,9.121,9.121,9.121,9.121,9.121,9.121,9.121,9.121,9.121,9.121,9.121,9.121,9.121,9.121,9.121,9.121,9.121,9.121,9.121,9.121,9.121,9.121,9.0787,8.9979,8.9979,8.9556,7.0475,7.0744,7.0898,7.0898,7.0898,7.0898,7.0898,7.0898,7.0898,7.0898,7.1398,7.1937,0.0,0.0,0.0,7.2745,7.2668,0.0,7.2822,7.3899,0.0,7.4707,0.0,7.6015,7.6861,7.7169,0.0,0.0,7.9169,7.9361,7.9785,8.0439,8.0862,8.1093,8.1093,8.14,8.1977,8.2631,8.3054,8.3247,8.3478,8.3939,8.4555,8.4555,8.4901,8.5478,8.5478,8.5478,8.5478,8.5709,8.5786,8.5824,8.6017,8.6094,8.6094,8.6094,8.6094,8.6094,8.6094,8.6094,8.6094,8.6094,8.6094,8.6094,8.6094,8.6094,8.6094,8.6094,8.6094,8.6247,8.6901,8.7055,8.7209,8.7863,8.8209,8.8363,8.8363,8.9017,8.9594,8.9594,9.0287,9.0864,9.0864,9.1056,9.121,9.121,9.121,9.121,9.121,9.121,9.121,9.121,9.121,9.121,9.121,9.121,9.121,9.121,9.121,9.121,9.121,9.121,9.121,9.121,9.121,9.121,9.121,9.121,9.1095,9.0864,9.0864,9.0748,7.0783,7.0898,7.0898,7.0898,7.0898,7.1014,7.136,7.1475,7.1475,7.1475,7.2168,0.0,0.0,0.0,0.0,0.0,0.0,0.0,7.4322,7.5245,7.5707,0.0,7.6053,0.0,7.7246,7.7977,7.8784,0.0,7.9823,7.9977,8.0362,8.0823,8.1093,8.1093,8.1439,8.2016,8.2862,8.3747,8.417,8.417,8.4516,8.4939,8.544,8.544,8.567,8.6094,0.0,8.6094,8.6132,8.6517,8.6901,8.7248,8.7248,8.7709,8.8286,8.7902,8.8017,8.8286,8.7902,8.8017,8.8094,8.6594,8.6094,8.617,8.6555,8.6671,8.6748,8.7132,8.7248,8.7363,8.7825,8.7979,8.8094,8.8556,8.8979,8.9248,8.9248,8.9902,9.0479,9.0479,9.0864,9.121,9.121,9.121,9.121,9.121,9.121,9.121,9.121,9.121,9.121,9.121,9.121,9.121,9.121,9.121,9.121,9.121,9.121,9.121,9.121,9.121,9.121,9.121,9.121,9.121,9.121,9.121,9.121,9.121,9.121,9.121,7.0898,7.0898,7.0898,7.0898,7.0898,7.1129,7.2014,7.2091,7.2052,7.2168,0.0,7.2976,7.2322,7.2206,7.2937,7.5284,0.0,7.5245,7.6746,7.7053,7.6899,7.6245,7.6823,7.74,7.7592,7.8938,7.9862,7.9977,7.9977,8.0285,8.1054,8.1208,8.1323,8.1439,8.2208,8.3016,8.3747,8.4632,8.5055,8.5093,8.5786,8.6094,8.6094,8.6094,8.6094,8.6094,0.0,0.0,8.617,8.7171,8.794,8.8556,8.8902,8.9863,9.0941,9.0325,9.0556,9.1095,9.0325,9.0556,9.0671,8.7478,8.6517,8.6748,8.7363,8.7555,8.7709,8.8479,8.8709,8.8709,8.8825,8.8863,8.8902,8.8979,8.9556,9.0094,9.0094,9.0671,9.121,9.121,9.121,9.121,9.121,9.121,9.121,9.121,9.121,9.121,9.121,9.121,9.121,9.121,9.121,9.121,9.121,9.121,9.121,9.121,9.121,9.121,9.121,9.121,9.121,9.121,9.121,9.121,9.121,9.121,9.121,9.121,9.121,9.121,7.0898,7.0898,7.0898,7.0898,7.0898,7.1129,7.2014,7.1629,0.0,0.0,7.1745,7.1514,7.2091,7.2206,7.2591,7.3745,0.0,0.0,0.0,0.0,7.6438,0.0,0.0,0.0,0.0,0.0,0.0,0.0,0.0,0.0,8.1093,8.1747,8.2401,8.3131,8.4016,8.4516,8.467,8.5478,8.5901,8.5901,8.6017,8.6094,8.6094,8.6094,8.6094,8.6094,0.0,0.0,8.6209,8.7825,8.8132,8.7825,8.994,9.0517,9.021,9.0748,9.1056,9.1171,9.1018,9.1056,9.0864,8.8902,8.8709,8.9171,8.8632,8.8479,8.8517,8.8671,8.8709,8.8863,8.9517,8.971,8.9863,9.0594,9.0864,9.0979,9.0979,9.1095,9.121,9.121,9.121,9.121,9.121,9.121,9.121,9.121,9.121,9.121,9.121,9.121,9.121,9.121,9.121,9.121,9.121,9.121,9.121,9.121,9.121,9.121,9.121,9.121,9.121,9.121,9.121,9.121,9.121,9.121,9.121,9.121,9.121,9.121,7.0898,7.0898,7.0898,7.0898,7.0898,7.1129,7.2014,0.0,0.0,0.0,7.2245,7.2091,7.1591,7.1898,0.0,7.336,0.0,0.0,0.0,0.0,0.0,0.0,0.0,0.0,0.0,0.0,0.0,0.0,0.0,0.0,8.1708,8.2516,8.3362,8.4247,8.467,8.5093,8.5517,8.5901,8.6094,8.6094,8.6094,8.6094,8.6094,8.6094,8.6363,8.6786,8.6786,0.0,8.7555,8.8825,8.9594,9.0171,9.1402,9.2441,9.3249,9.3172,9.3441,9.3787,9.3326,9.348,9.3557,9.1864,9.0979,9.0594,9.0671,9.0671,9.0748,9.1171,9.0979,9.0748,9.1133,9.0941,9.0671,9.1095,9.121,9.121,9.121,9.121,9.121,9.121,9.121,9.121,9.121,9.121,9.121,9.121,9.121,9.121,9.121,9.121,9.121,9.121,9.121,9.121,9.121,9.121,9.121,9.121,9.121,9.121,9.121,9.121,9.121,9.121,9.121,9.121,9.121,9.121,9.121,9.121,9.121,9.121,7.0898,7.0898,7.0898,7.0898,7.0898,7.1129,7.2014,7.2052,0.0,7.2168,7.2591,7.2591,7.1398,7.1898,7.2745,0.0,7.4091,7.4707,7.5822,0.0,0.0,0.0,0.0,0.0,0.0,0.0,0.0,0.0,0.0,0.0,8.2862,8.3516,8.4286,8.5132,8.517,8.5478,8.6094,8.6094,8.6094,8.6094,8.6094,8.6209,8.6363,8.6363,8.6863,8.7671,8.7671,0.0,0.0,8.9787,9.0979,9.2287,9.2826,9.4249,9.5942,9.5441,9.5711,9.6211,9.5518,9.5711,9.6057,9.4711,9.3249,9.2095,9.2595,9.2749,9.2903,9.3518,9.3133,9.2479,9.2479,9.1864,9.121,9.121,9.121,9.121,9.121,9.121,9.121,9.121,9.121,9.121,9.121,9.121,9.121,9.121,9.121,9.121,9.121,9.121,9.1287,9.1479,9.1325,9.121,9.121,9.121,9.121,9.121,9.121,9.121,9.121,9.121,9.121,9.121,9.121,9.121,9.121,9.121,9.121,9.121,9.121,9.121,7.0898,7.0898,7.0898,7.0898,7.0898,7.1129,7.2014,0.0,7.1245,7.2052,7.1629,7.1321,7.1937,7.2783,7.3668,7.4476,7.5938,7.6746,7.6092,7.7361,7.84,7.84,0.0,0.0,0.0,0.0,0.0,0.0,0.0,0.0,0.0,8.4747,8.517,8.5978,8.5978,8.6017,8.6094,8.6094,8.6094,8.6094,8.6094,8.6517,8.7286,8.7286,8.7748,8.8556,0.0,0.0,0.0,9.0402,9.1171,9.1556,9.3864,9.4903,9.5211,9.5903,9.6249,9.6288,9.6211,9.6249,9.6288,9.6095,9.5403,9.4518,9.3787,9.3595,9.3595,9.3672,9.3133,9.2479,9.2479,9.1864,9.121,9.121,9.121,9.121,9.121,9.121,9.121,9.121,9.121,9.121,9.121,9.121,9.121,9.121,9.121,9.121,9.121,9.121,9.1518,9.2287,9.1672,9.121,9.121,9.121,9.121,9.121,9.121,9.121,9.121,9.121,9.121,9.121,9.121,9.121,9.121,9.121,9.121,9.121,9.121,9.121,7.0898,7.0898,7.0898,7.0898,7.1283,7.1629,7.1475,0.0,7.1629,7.1437,7.1129,7.1168,7.2052,7.2052,7.2706,7.5091,7.563,7.6169,7.7323,7.8977,7.9862,7.9323,0.0,0.0,0.0,0.0,0.0,0.0,0.0,0.0,0.0,8.5632,8.5786,8.6094,8.6094,8.6094,8.6094,8.6094,8.6094,8.6094,8.6632,8.7055,8.7401,8.794,8.8632,8.944,0.0,0.0,0.0,9.0902,9.1518,9.2133,9.3633,9.4518,9.5095,9.6095,9.648,9.648,9.648,9.648,9.6442,9.6326,9.5711,9.5018,9.5211,9.5249,9.5249,9.5249,9.4672,9.398,9.398,9.2979,9.1979,9.1979,9.1595,9.121,9.121,9.121,9.121,9.121,9.121,9.121,9.121,9.121,9.121,9.121,9.121,9.1402,9.1902,9.1979,9.2287,9.3133,9.2018,9.1402,9.1941,9.1518,9.121,9.121,9.121,9.121,9.121,9.121,9.121,9.121,9.121,9.121,9.121,9.121,9.121,9.121,9.121,9.121,7.1206,7.1091,7.0898,7.0898,7.1552,7.1975,7.1091,7.1552,7.2014,7.1398,7.1091,7.1168,7.2052,7.1898,7.2476,7.4861,7.5592,7.6361,7.7938,8.0054,8.1131,0.0,0.0,0.0,0.0,0.0,0.0,0.0,0.0,0.0,0.0,8.6094,8.6094,8.6094,8.6094,8.6094,8.6094,8.6363,8.6478,8.6478,8.7363,8.7902,8.8171,8.8786,8.9517,9.0287,0.0,0.0,0.0,9.1479,9.2056,9.3092,9.3438,9.4057,9.498,9.598,9.6352,9.639,9.6622,9.6729,9.6673,9.6557,9.6095,9.5711,9.6325,9.6211,9.5942,9.6019,9.5326,9.4557,9.4326,9.3364,9.2479,9.2479,9.1825,9.121,9.121,9.121,9.121,9.121,9.121,9.121,9.121,9.121,9.121,9.121,9.121,9.1518,9.2402,9.2556,9.2979,9.4095,9.2903,9.2287,9.2826,9.2287,9.1941,9.1941,9.1941,9.1825,9.1595,9.1595,9.1479,9.121,9.121,9.121,9.121,9.121,9.121,9.121,9.121,9.121,7.1937,7.1552,7.0898,7.0898,7.1552,7.1975,7.1091,7.1552,7.2206,7.2168,7.1514,7.1168,7.2052,7.2899,7.3476,7.3514,7.6284,7.8169,7.74,8.0169,8.1977,0.0,0.0,0.0,0.0,0.0,0.0,0.0,0.0,0.0,0.0,8.6094,8.6094,8.6094,8.6094,8.6094,8.6094,8.6978,8.7401,8.7401,8.8248,8.9094,8.9863,8.9902,9.0364,0.0,0.0,0.0,0.0,9.2168,9.2861,9.4282,9.3512,9.3672,9.4483,9.5366,9.57,9.5826,9.6682,9.6992,9.698,9.698,9.698,9.6979,9.6977,9.6091,9.5057,9.5363,9.4595,9.3518,9.271,9.2518,9.2479,9.2479,9.1825,9.121,9.121,9.121,9.121,9.121,9.121,9.121,9.121,9.121,9.121,9.121,9.121,9.1518,9.2402,9.2669,9.3477,9.5209,9.4595,9.398,9.371,9.3672,9.3672,9.3672,9.3672,9.3326,9.2518,9.2479,9.2095,9.121,9.121,9.121,9.121,9.121,9.121,9.121,9.121,9.121,7.1398,7.1552,7.1783,7.1783,7.2437,7.286,7.1975,7.2476,7.2745,7.1552,7.1552,7.2052,7.2937,7.3322,7.4476,7.7361,7.8207,7.9208,8.1285,8.2516,0.0,8.2016,0.0,0.0,0.0,0.0,0.0,0.0,0.0,0.0,0.0,8.6094,8.6094,8.6094,8.6094,8.6401,8.6978,8.7248,8.7709,8.8286,8.9133,8.9671,8.994,9.0671,0.0,0.0,0.0,0.0,0.0,9.2604,9.2759,9.2798,9.3675,9.3846,9.3851,9.6073,9.6467,9.6077,9.6965,9.7291,9.7237,9.7043,9.6577,9.6153,9.6348,9.6255,9.6009,9.5473,9.5172,9.4862,9.402,9.3251,9.2713,9.271,9.1941,9.121,9.121,9.121,9.121,9.121,9.121,9.121,9.121,9.121,9.121,9.121,9.1787,9.263,9.3477,9.4285,9.5219,9.6358,9.6228,9.5775,9.4939,9.4172,9.371,9.371,9.371,9.3595,9.3326,9.3326,9.2941,9.2095,9.2095,9.1787,9.121,9.121,9.121,9.121,9.121,9.1518,7.1552,7.1552,7.1783,7.2129,7.2591,7.286,7.2322,7.2629,7.2706,7.1591,7.1552,7.2091,7.3283,7.3514,7.4476,7.74,7.8246,7.9246,8.1362,8.2477,0.0,8.3285,0.0,0.0,0.0,0.0,0.0,0.0,0.0,0.0,0.0,8.6401,8.6594,8.6594,8.6594,8.7017,8.7863,8.8171,8.8632,8.9171,9.0056,9.0517,9.0517,9.1287,0.0,0.0,0.0,0.0,0.0,9.2845,9.283,9.2713,9.3426,9.3621,9.3704,9.5807,9.6415,9.6369,9.7232,9.7511,9.7448,9.6949,9.6211,9.5507,9.5574,9.5777,9.5777,9.5138,9.509,9.5081,9.4549,9.3669,9.296,9.2935,9.2172,9.1441,9.1441,9.1441,9.1441,9.1441,9.1441,9.1441,9.1441,9.171,9.1976,9.1976,9.2784,9.3731,9.4588,9.5373,9.6184,9.7057,9.7165,9.6897,9.6207,9.5403,9.4903,9.4788,9.4788,9.4595,9.421,9.4172,9.3787,9.2979,9.2941,9.2556,9.171,9.1364,9.121,9.121,9.121,9.1479,0.0,7.1552,7.1206,7.2014,7.2206,7.2206,7.2206,7.2206,0.0,7.2129,7.1514,7.1514,7.3283,7.3591,7.3899,7.4899,7.7053,7.8631,7.8746,8.0862,0.0,0.0,0.0,0.0,0.0,0.0,0.0,0.0,0.0,0.0,0.0,8.7017,8.7517,8.7594,8.7594,8.7979,8.8786,8.9556,8.9979,9.0056,9.1056,9.1514,9.1544,9.1784,0.0,0.0,0.0,0.0,0.0,9.2919,9.3125,9.375,9.3047,9.3242,9.4023,9.5,9.5859,9.6601,9.7344,9.7617,9.7496,9.6681,9.5829,9.5059,9.4796,9.4782,9.4789,9.4435,9.4405,9.4434,9.4318,9.3756,9.3221,9.3153,9.2503,9.1891,9.1891,9.1891,9.1891,9.1891,9.1891,9.1891,9.1968,9.2657,9.3196,9.3273,9.4048,9.4883,9.5612,9.6023,9.6525,9.7346,9.7416,9.7415,9.7418,9.7126,9.6898,9.6628,9.6632,9.6172,9.5172,9.5134,9.4711,9.3864,9.3749,9.3364,9.2595,9.171,9.1287,9.1287,9.1248,9.121,7.1206,0.0,7.1937,7.2129,7.2206,7.2206,0.0,7.2206,7.2014,7.1321,7.1552,7.2399,7.413,7.4437,7.5361,7.8169,7.9092,7.9939,8.1246,8.2477,0.0,8.4786,0.0,0.0,0.0,0.0,0.0,0.0,0.0,0.0,0.0,8.7902,8.8671,8.9286,8.9517,8.9594,8.9633,9.0017,9.0517,9.1133,9.1595,9.1801,9.1795,9.2041,0.0,0.0,0.0,0.0,9.2858,9.3393,9.332,9.3008,9.414,9.4297,9.414,9.6328,9.6836,9.6523,9.6719,9.6797,9.664,9.577,9.4916,9.4185,9.4113,9.4565,9.4913,9.3949,9.4329,9.4708,9.338,9.322,9.3254,9.2585,9.2152,9.1894,9.1894,9.1894,9.1894,9.1894,9.1894,9.2127,9.2787,9.3059,9.343,9.4091,9.5081,9.5808,9.5965,9.6776,9.7386,9.7611,9.7617,9.7623,9.762,9.7243,9.6982,9.6904,9.6931,9.6788,9.6519,9.6519,9.6095,9.5249,9.4441,9.3903,9.3746,9.2672,9.2172,9.2172,9.1518,9.121,7.0898,7.1245,7.1706,7.2091,7.1898,7.1706,7.2091,7.1898,7.1475,7.1014,7.1283,7.2129,7.3822,7.4437,7.5592,7.8207,7.9285,8.0516,8.2593,8.4324,8.5363,8.544,0.0,0.0,0.0,0.0,0.0,0.0,0.0,0.0,0.0,8.8902,8.9633,9.0056,9.0671,9.0902,9.0633,9.0902,9.1252,9.1694,9.1914,9.2055,9.2031,9.2265,9.2365,0.0,0.0,0.0,9.2656,9.3125,9.3047,9.2695,9.3633,9.3945,9.4062,9.5469,9.5937,9.5898,9.5898,9.5898,9.5898,9.582,9.5195,9.4492,9.4492,9.4844,9.4992,9.3967,9.4139,9.4492,9.3945,9.375,9.3554,9.3086,9.2903,9.2715,9.2325,9.2198,9.2364,9.2754,9.2832,9.3105,9.3964,9.4432,9.4861,9.5329,9.6249,9.6838,9.6838,9.7355,9.7695,9.7695,9.7695,9.7695,9.7695,9.7461,9.727,9.7192,9.7182,9.7141,9.6996,9.6996,9.6764,9.63,9.5332,9.4845,9.4826,9.3864,9.3326,9.321,9.2749,9.2249,7.1052,7.1091,7.1245,7.186,7.1437,7.1091,7.1822,7.1437,7.0898,7.0898,7.1014,7.1668,7.3553,7.4553,7.5707,7.7592,7.9169,8.0939,8.3093,8.5478,8.6786,8.617,0.0,0.0,0.0,0.0,0.0,0.0,0.0,0.0,0.0,8.994,9.0509,9.0558,9.1467,9.1825,9.1595,9.1825,9.1947,9.1957,9.2173,9.2286,9.2277,9.2481,9.2617,0.0,0.0,0.0,9.2617,9.2617,9.2617,9.2617,9.2734,9.3242,9.3906,9.4062,9.457,9.5195,9.5195,9.5117,9.5156,9.6015,9.5781,9.5195,9.5195,9.5195,9.5039,9.4297,9.4101,9.4219,9.4687,9.4336,9.3906,9.3906,9.3789,9.3554,9.2929,9.2812,9.3008,9.375,9.4023,9.4375,9.5234,9.6015,9.6523,9.664,9.7265,9.7695,9.7695,9.7695,9.7695,9.7695,9.7695,9.7695,9.7695,9.7695,9.7617,9.7461,9.7436,9.7349,9.7115,9.7115,9.7115,9.7115,9.6336,9.596,9.5965,9.5103,9.4569,9.4337,9.4356,9.3862,7.1783,7.2014,7.186,7.1245,7.1014,7.0937,7.1052,7.1014,7.0898,7.0898,7.1475,7.2745,7.5168,7.6322,7.7669,8.0131,8.1285,8.2054,0.0,0.0,8.5478,0.0,0.0,0.0,0.0,0.0,0.0,0.0,0.0,0.0,0.0,0.0,9.1647,9.1625,9.1986,9.213,9.2091,9.213,9.216,9.2139,9.243,9.2546,9.2546,9.2574,9.2617,0.0,0.0,9.2617,9.2617,9.2617,9.2617,9.2656,9.3398,9.3789,9.3984,9.4726,9.5078,9.5195,9.5195,9.4726,9.4258,9.5117,9.5312,9.5195,9.5195,9.5195,9.5156,9.5039,9.5,9.4687,9.3359,9.3437,9.3906,9.3906,9.3359,9.2969,9.3554,9.3711,9.375,9.3867,9.4492,9.5273,9.6133,9.6406,9.6719,9.7422,9.7617,9.7695,9.7695,9.7695,9.7695,9.7695,9.7695,9.7695,9.7695,9.7695,9.7695,9.7656,9.7652,9.7648,9.7609,9.7609,9.7609,9.7609,9.7296,9.7133,9.7154,9.6047,9.5472,9.5472,9.554,9.5476,7.1398,7.1514,7.1514,7.1591,7.1975,7.2322,7.2322,7.2322,7.2437,7.286,7.3283,7.4207,7.6322,7.74,7.8784,8.1323,0.0,8.3862,0.0,0.0,0.0,0.0,0.0,0.0,0.0,0.0,0.0,0.0,0.0,0.0,0.0,0.0,9.2068,9.2042,9.2293,9.2438,9.2438,9.2432,9.2432,9.2409,9.2546,9.2617,9.2617,9.2617,9.2617,9.2617,0.0,9.2617,9.2617,9.2617,9.2617,9.2656,9.3047,9.3203,9.3242,9.3633,9.3789,9.3945,9.4883,9.4648,9.4179,9.5976,9.625,9.5976,9.6406,9.6875,9.707,9.6172,9.5234,9.4414,9.4101,9.3945,9.4023,9.4492,9.4297,9.4101,9.4531,9.4609,9.4726,9.5195,9.5625,9.6172,9.6992,9.7148,9.7265,9.7656,9.7695,9.7695,9.7695,9.7695,9.7695,9.7695,9.7695,9.7695,9.7695,9.7695,9.7695,9.7695,9.7695,9.7695,9.7695,9.7695,9.7695,9.7695,9.7617,9.7578,9.7578,9.7037,9.6714,9.6635,9.6667,9.6584,7.1168,7.1206,7.1398,7.2283,7.2706,7.3053,7.363,7.363,7.3783,7.4822,7.5168,7.5822,7.7553,7.8861,8.04,8.2631,8.4093,0.0,0.0,0.0,0.0,0.0,0.0,0.0,0.0,0.0,0.0,0.0,0.0,0.0,0.0,0.0,9.2301,9.2301,9.2495,9.2572,9.2572,9.2607,9.2617,9.2617,9.2617,9.2617,9.2617,9.2617,9.2617,9.2617,9.2617,9.2617,9.2617,9.2617,9.2617,9.2617,9.2617,9.2617,9.2617,9.2617,9.2617,9.2812,9.4375,9.4609,9.457,9.6719,9.7148,9.6914,9.75,9.8164,9.8437,9.7148,9.5664,9.4609,9.5078,9.4687,9.4414,9.5312,9.5351,9.5273,9.5469,9.5508,9.5703,9.6367,9.664,9.6992,9.7578,9.7695,9.7695,9.7695,9.7695,9.7695,9.7695,9.7695,9.7695,9.7695,9.7695,9.7695,9.7695,9.7695,9.7695,9.7695,9.7695,9.7695,9.7695,9.7695,9.7695,9.7695,9.7695,9.7695,9.7695,9.7695,9.7617,9.7461,9.7695,9.7667,7.1898,7.2091,7.2322,7.3206,7.2245,7.1706,7.4091,7.4053,7.3976,7.5553,7.6553,7.763,7.9323,8.1593,8.3593,8.4818,8.5126,0.0,0.0,0.0,0.0,0.0,0.0,0.0,0.0,0.0,0.0,0.0,0.0,0.0,0.0,0.0,0.0,9.257,9.257,9.2609,9.2609,9.2616,9.2617,9.2617,9.2617,9.2617,9.2617,9.2617,9.2617,9.2617,9.2617,9.2617,9.2617,9.2617,9.2617,9.2617,9.2617,9.2617,9.2617,9.2617,9.2617,9.2734,9.3672,9.4492,9.5273,9.625,9.7031,9.7617,9.7695,9.7734,9.7773,9.7656,9.6992,9.6133,9.539,9.5156,9.5312,9.6211,9.5781,9.5429,9.6211,9.6406,9.6406,9.6484,9.7109,9.7617,9.7695,9.7695,9.7695,9.7695,9.7695,9.7695,9.7695,9.7695,9.7695,9.7695,9.7695,9.7695,9.7695,9.7695,9.7695,9.7695,9.7695,9.7695,9.7695,9.7695,9.7695,9.7695,9.7695,9.7695,9.7695,9.7695,9.7695,9.7695,9.8515,9.8867,7.1668,7.2503,7.3378,7.3724,7.3724,7.3955,7.5207,7.5707,7.6476,7.8707,7.9015,7.9361,8.1054,8.2278,8.351,8.4972,0.0,0.0,0.0,0.0,0.0,0.0,0.0,0.0,0.0,0.0,0.0,0.0,0.0,0.0,0.0,0.0,0.0,9.2617,9.2617,9.2617,9.2617,9.2617,9.2617,9.2617,9.2617,9.2617,9.2617,9.2617,9.2617,9.2617,9.2617,9.2617,9.2617,9.2617,9.2617,9.2617,9.2617,9.2617,9.2617,9.2617,9.2617,9.2812,9.4219,9.457,9.4726,9.6601,9.7109,9.7031,9.7539,9.8086,9.8398,9.7851,9.7851,9.7734,9.6367,9.5625,9.5429,9.6289,9.625,9.625,9.707,9.7265,9.7265,9.7265,9.75,9.7695,9.7695,9.7695,9.7695,9.7695,9.7695,9.7695,9.7695,9.7695,9.7695,9.7695,9.7695,9.7695,9.7695,9.7695,9.7695,9.7695,9.7695,9.7695,9.7695,9.7695,9.7695,9.7695,9.7695,9.7695,9.7695,9.7695,9.7695,9.7734,9.8594,9.9297,7.2291,7.3103,7.4131,7.4695,7.5044,7.5585,7.6736,7.7252,7.8237,8.0746,8.1239,8.1547,8.2701,8.3279,0.0,0.0,0.0,0.0,0.0,0.0,0.0,0.0,0.0,0.0,0.0,0.0,0.0,0.0,0.0,0.0,0.0,0.0,0.0,0.0,9.2617,9.2617,9.2617,9.2617,9.2617,9.2617,9.2617,9.2617,9.2617,9.2617,9.2617,9.2617,9.2617,9.2617,9.2617,9.2617,9.2617,9.2617,9.289,9.3008,9.3047,9.332,9.3437,9.3594,9.4804,9.5,9.5,9.6758,9.7109,9.6992,9.7539,9.8125,9.8476,9.7851,9.8125,9.832,9.7187,9.6445,9.6133,9.6758,9.6875,9.7031,9.7578,9.7695,9.7695,9.7695,9.7695,9.7695,9.7695,9.7695,9.7695,9.7695,9.7695,9.7695,9.7695,9.7695,9.7695,9.7695,9.7695,9.7695,9.7695,9.7969,9.8125,9.8125,9.8125,9.8008,9.7695,9.7695,9.7695,9.7695,9.7695,9.7695,9.7695,9.7695,9.7695,9.7734,9.8594,9.9336,7.3989,7.3989,7.4431,7.6144,7.5988,7.6027,7.861,7.8546,7.8652,8.1201,8.3041,8.4188,8.4188,8.4933,0.0,0.0,0.0,0.0,0.0,0.0,0.0,0.0,0.0,0.0,0.0,0.0,0.0,0.0,0.0,0.0,0.0,0.0,0.0,0.0,9.2617,9.2617,9.2617,9.2617,9.2617,9.2617,9.2617,9.2617,9.2617,9.2617,9.2617,9.2617,9.2617,9.2617,9.2617,9.2617,9.2617,9.2695,9.3554,9.3906,9.4023,9.4883,9.5195,9.5195,9.5195,9.5781,9.6484,9.6523,9.7031,9.7695,9.7695,9.7695,9.7695,9.7695,9.7695,9.7695,9.7695,9.7695,9.7695,9.7695,9.7695,9.7695,9.7695,9.7695,9.7695,9.7695,9.7695,9.7695,9.7695,9.7695,9.7695,9.7695,9.7695,9.7695,9.7695,9.7695,9.7695,9.7695,9.7695,9.7695,9.7695,9.8515,9.8984,9.8984,9.9023,9.8633,9.7734,9.7695,9.7695,9.7695,9.7695,9.7695,9.7695,9.7695,9.7695,9.7734,9.8594,9.9023,7.2748,7.4388,7.6242,7.613,7.7715,7.9506,8.0284,8.0526,8.1136,8.3136,8.3892,8.4397,8.4999,0.0,0.0,0.0,0.0,0.0,0.0,0.0,0.0,0.0,0.0,0.0,0.0,0.0,0.0,0.0,0.0,0.0,0.0,0.0,0.0,0.0,9.2617,9.2617,9.2617,9.2617,9.2617,9.2617,9.2617,9.2617,9.2617,9.2617,9.2617,9.2617,9.2617,9.2617,9.2617,9.2617,9.2969,9.3554,9.3789,9.4258,9.4844,9.5117,9.5195,9.5273,9.5898,9.6289,9.6601,9.7148,9.75,9.7695,9.7695,9.7695,9.7695,9.7695,9.7695,9.7695,9.7695,9.7695,9.7695,9.7695,9.7695,9.7695,9.7695,9.7695,9.7695,9.7695,9.7695,9.7695,9.7695,9.7695,9.7695,9.7695,9.7695,9.7695,9.7695,9.7695,9.7695,9.7695,9.7695,9.7695,9.7695,9.8515,9.8984,9.8984,9.957,9.9531,9.8633,9.8047,9.7695,9.7695,9.7695,9.7695,9.7695,9.7695,9.8008,9.8633,9.9492,10.0195,7.5039,7.6601,7.8239,7.8416,7.9478,8.0844,8.2249,8.2522,8.2864,8.4269,8.4766,8.5156,8.5673,0.0,0.0,0.0,0.0,0.0,0.0,0.0,0.0,0.0,0.0,0.0,0.0,0.0,0.0,0.0,0.0,0.0,0.0,0.0,0.0,0.0,9.2617,9.2617,9.2617,9.2617,9.2617,9.2617,9.2617,9.2617,9.2617,9.2617,9.2617,9.2617,9.2617,9.2812,9.3125,9.3125,9.3633,9.4453,9.4804,9.5234,9.5742,9.6094,9.6172,9.6289,9.6797,9.6992,9.707,9.7539,9.7695,9.7695,9.7695,9.7695,9.7695,9.7695,9.7695,9.7695,9.7695,9.7695,9.7695,9.7695,9.7695,9.7695,9.7695,9.7695,9.7695,9.7695,9.7695,9.7695,9.7695,9.7695,9.7695,9.7695,9.7695,9.7695,9.7695,9.7695,9.7695,9.7695,9.7695,9.7695,9.7695,9.8515,9.8984,9.8984,9.9492,9.9531,9.9023,9.8515,9.8047,9.7695,9.7695,9.7695,9.7695,9.7695,9.8164,9.9023,9.9883,10.0781,7.8828,7.9453,8.0078,8.1679,8.1054,8.0937,8.4258,8.4414,8.4062,8.4961,0.0,8.6211,0.0,0.0,0.0,0.0,0.0,0.0,0.0,0.0,0.0,0.0,0.0,0.0,0.0,0.0,0.0,0.0,0.0,0.0,0.0,0.0,0.0,0.0,9.2617,9.2617,9.2617,9.2617,9.2617,0.0,9.2617,9.2617,9.2617,9.2617,9.2656,9.2734,9.2734,9.3203,9.4023,9.4023,9.4531,9.539,9.6172,9.6523,9.6719,9.7422,9.7695,9.7695,9.7695,9.7695,9.7695,9.7695,9.7695,9.7695,9.7695,9.7695,9.7695,9.7695,9.7695,9.7695,9.7695,9.7695,9.7695,9.7695,9.7695,9.7695,9.7695,9.7695,9.7695,9.7695,9.7695,9.7695,9.7695,9.7695,9.7695,9.7695,9.7695,9.7695,9.7695,9.7695,9.7695,9.7695,9.7695,9.7734,9.7812,9.8554,9.9062,9.9219,9.914,9.9101,9.9101,9.9023,9.8633,9.7812,9.7812,9.7812,9.7812,9.7734,9.8164,9.9023,9.9883,10.0781,7.5781,7.7656,7.9805,8.0156,8.1523,8.332,8.5429,8.5781,8.5898,8.6758,8.6562,0.0,0.0,0.0,0.0,0.0,0.0,0.0,0.0,0.0,0.0,0.0,0.0,0.0,0.0,0.0,0.0,0.0,0.0,0.0,0.0,0.0,0.0,9.2617,9.2617,9.2617,9.2617,9.2617,9.2617,0.0,9.2617,9.2617,9.2617,9.2617,9.2969,9.3633,9.3633,9.4101,9.4922,9.4922,9.5429,9.625,9.6445,9.6875,9.7461,9.7656,9.7695,9.7695,9.7695,9.7695,9.7695,9.7695,9.7695,9.7695,9.7695,9.7695,9.7695,9.7695,9.7695,9.7695,9.7695,9.7695,9.7695,9.7695,9.7695,9.7695,9.7695,9.7695,9.7695,9.7695,9.7695,9.7695,9.7695,9.7695,9.7695,9.7695,9.7695,9.7695,9.7695,9.7695,9.7695,9.7695,9.7695,9.7969,9.8672,9.8906,9.957,10.1015,10.039,10.0,10.0,9.9375,9.8906,9.8711,9.8711,9.8711,9.8711,9.8047,9.8164,9.9023,9.9883,10.0781,7.6836,7.8359,8.0,8.125,8.3203,8.5078,8.5976,8.6523,8.6953,8.7422,0.0,0.0,0.0,0.0,0.0,0.0,0.0,0.0,0.0,0.0,0.0,0.0,0.0,0.0,0.0,0.0,0.0,0.0,0.0,0.0,0.0,9.2617,9.2617,9.2617,9.2617,9.2617,9.2617,9.2617,9.2617,9.2617,9.3008,9.3437,9.3828,9.3398,9.3711,9.4531,9.4531,9.5039,9.582,9.582,9.6328,9.707,9.707,9.7344,9.7695,9.7695,9.7695,9.7695,9.7695,9.7695,9.7695,9.7695,9.7695,9.7695,9.7695,9.7695,9.7695,9.7695,9.7695,9.7695,9.7695,9.7695,9.7695,9.7695,9.7695,9.7695,9.7695,9.7695,9.7695,9.7695,9.7695,9.7695,9.7695,9.7695,9.7695,9.7695,9.7695,9.7695,9.7695,9.7695,9.7695,9.7695,9.8086,9.8515,9.8945,9.9375,10.0,10.0898,10.0586,10.0117,9.9687,9.9648,9.9219,9.8398,9.8398,9.8398,9.8398,9.7929,9.8164,9.9023,9.9453,10.039,7.8476,7.9453,8.0547,8.3164,8.5039,8.625,8.6406,8.6992,8.75,8.75,0.0,0.0,0.0,0.0,0.0,0.0,0.0,0.0,0.0,0.0,0.0,0.0,0.0,0.0,0.0,0.0,0.0,0.0,0.0,0.0,9.2617,9.2617,9.2617,9.2617,9.2617,9.2617,9.2617,9.2617,9.2695,9.2812,9.3711,9.457,9.539,9.4687,9.4726,9.5429,9.5429,9.5898,9.6719,9.6719,9.7109,9.7695,9.7695,9.7695,9.7695,9.7695,9.7695,9.7695,9.7695,9.7695,9.7695,9.7695,9.7695,9.7695,9.7695,9.7695,9.7695,9.7695,9.7695,9.7695,9.7695,9.7695,9.7695,9.7695,9.7695,9.7695,9.7695,9.7695,9.7695,9.7695,9.7695,9.7695,9.7695,9.7695,9.7695,9.7695,9.7695,9.7695,9.7695,9.7695,9.7773,9.789,9.8554,9.9101,9.9414,9.9961,10.039,10.0703,10.0508,10.0,9.9453,9.9844,9.9414,9.7969,9.7929,9.7929,9.7929,9.7773,9.8086,9.8789,9.8945,9.9765,7.6328,7.8555,8.1445,8.4062,8.5469,8.6406,8.7148,8.7422,8.75,0.0,0.0,0.0,0.0,0.0,0.0,0.0,0.0,0.0,0.0,0.0,0.0,0.0,0.0,0.0,0.0,0.0,0.0,0.0,0.0,0.0,9.2617,9.2617,9.2617,9.2617,9.2617,9.2617,9.2617,9.2617,9.2969,9.375,9.4609,9.5469,9.6328,9.6211,9.6211,9.6328,9.6328,9.6797,9.7539,9.7539,9.7617,9.7695,9.7695,9.7695,9.7695,9.7695,9.7695,9.7695,9.7695,9.7695,9.7695,9.7695,9.7695,9.7695,9.7695,9.7695,9.7695,9.7695,9.7695,9.7695,9.7695,9.7695,9.7695,9.7695,9.7695,9.7695,9.7695,9.7695,9.7695,9.7695,9.7695,9.7695,9.7695,9.7695,9.7695,9.7695,9.7695,9.7695,9.7695,9.7695,9.8008,9.875,9.8945,9.9609,10.1094,10.0703,10.0898,10.25,10.1094,10.0586,10.1211,9.9922,9.9062,9.8828,9.8828,9.8828,9.8828,9.8086,9.7773,9.789,9.8633,9.9101,7.7656,7.9844,8.2344,8.4961,8.6289,8.7031,8.7422,8.75,8.75,0.0,0.0,0.0,0.0,0.0,0.0,0.0,0.0,0.0,0.0,0.0,0.0,0.0,0.0,0.0,0.0,0.0,0.0,0.0,0.0,9.2617,9.2617,9.2617,9.2617,9.2617,9.2617,9.2812,9.332,9.332,9.4023,9.5351,9.5742,9.6367,9.7187,9.7187,9.7187,9.7187,9.7187,9.7383,9.7695,9.7695,9.7695,9.7695,9.7695,9.7695,9.7695,9.7695,9.7695,9.7695,9.7695,9.7695,9.7695,9.7695,9.7695,9.7695,9.7695,9.7695,9.7695,9.7695,9.7695,9.7695,9.7695,9.7695,9.7695,9.7695,9.7695,9.7695,9.7695,9.7695,9.7695,9.7695,9.7695,9.7695,9.7695,9.7695,9.7695,9.7695,9.7695,9.789,9.8359,9.8437,9.875,9.9648,10.0195,10.0781,10.1484,10.1719,10.2109,10.289,10.2187,10.1719,10.1601,10.0898,10.0,9.9023,9.8515,9.8281,9.8281,9.789,9.7695,9.7695,9.8086,9.8515,7.8203,8.0156,8.2226,8.4609,8.6211,8.7226,8.7461,0.0,0.0,0.0,0.0,0.0,0.0,0.0,0.0,0.0,0.0,0.0,0.0,0.0,0.0,0.0,0.0,0.0,0.0,0.0,0.0,0.0,0.0,9.2617,9.2617,9.2617,9.2617,9.2617,9.2812,9.3242,9.3906,9.4336,9.5195,9.6484,9.6719,9.7109,9.7695,9.7695,9.7695,9.7695,9.7695,9.7695,9.7695,9.7695,9.7695,9.7695,9.7695,9.7695,9.7695,9.7695,9.7695,9.7695,9.7695,9.7695,9.7695,9.7695,9.7695,9.7695,9.7695,9.7695,9.7695,9.7695,9.7695,9.7695,9.7695,9.7695,9.7695,9.7695,9.7695,9.7695,9.7695,9.7695,9.7695,9.7695,9.789,9.8047,9.8047,9.8203,9.8359,9.8359,9.8359,9.8594,9.9258,9.9336,9.9648,10.0508,10.1211,10.1719,10.1914,10.25,10.289,10.289,10.289,10.2617,10.1992,10.1719,10.1015,9.9687,9.8789,9.8125,9.7695,9.7695,9.7695,9.7695,9.7695,9.8047,7.6055,7.793,8.0273,8.207,8.4414,8.6484,8.7304,0.0,0.0,0.0,0.0,0.0,0.0,0.0,0.0,0.0,0.0,0.0,0.0,0.0,0.0,0.0,0.0,0.0,0.0,0.0,0.0,0.0,0.0,9.2617,9.2617,9.2617,9.2617,9.2617,9.3398,9.3867,9.3906,9.5547,9.6406,9.6523,9.7265,9.7656,9.7695,9.7695,9.7695,9.7695,9.7695,9.7695,9.7695,9.7695,9.7695,9.7695,9.7695,9.7695,9.7695,9.7695,9.7695,9.7695,9.7695,9.7695,9.7695,9.7695,9.7695,9.7695,9.7695,9.7695,9.7695,9.7695,9.7695,9.7695,9.7695,9.7695,9.7695,9.7695,9.7695,9.7695,9.7695,9.7695,9.7695,9.7695,9.8359,9.8945,9.8945,9.9609,10.0195,10.0195,10.0195,10.0195,10.0195,10.0195,10.0586,10.1406,10.1601,10.1914,10.2812,10.289,10.289,10.289,10.289,10.289,10.2812,10.1992,10.1601,10.1484,10.0586,9.9336,9.7695,9.7695,9.7695,9.7695,9.7695,9.7734,7.789,7.9023,8.0117,8.1875,8.4258,8.6133,8.5898,8.7109,0.0,0.0,0.0,0.0,0.0,0.0,0.0,0.0,0.0,0.0,0.0,0.0,0.0,0.0,0.0,0.0,0.0,0.0,0.0,0.0,0.0,0.0,9.2617,9.2617,9.2851,9.3437,9.375,9.4453,9.5547,9.6719,9.7265,9.7265,9.7578,9.7695,9.7695,9.7695,9.7695,9.7695,9.7695,9.7695,9.7695,9.7695,9.7695,9.7695,9.7695,9.7695,9.7695,9.7695,9.7695,9.7695,9.7695,9.7695,9.7695,9.7695,9.8086,9.8515,9.8515,9.8945,9.9375,9.9375,9.9375,9.9258,9.8672,9.8515,9.8398,9.7812,9.7695,9.7851,9.8398,9.8086,9.7851,9.8437,9.8789,9.9179,9.9726,10.0117,10.0312,10.0312,10.0312,10.0508,10.1094,10.1094,10.1484,10.2304,10.2383,10.2617,10.289,10.289,10.289,10.289,10.289,10.289,10.289,10.2617,10.2187,10.1601,10.1289,10.0586,9.9375,9.9375,9.9375,9.9375,9.8789,9.8828,7.8047,7.8867,7.9726,8.1445,8.3164,8.4765,8.5898,0.0,0.0,0.0,0.0,0.0,0.0,0.0,0.0,0.0,0.0,0.0,0.0,0.0,0.0,0.0,0.0,0.0,0.0,0.0,0.0,0.0,0.0,0.0,9.2617,9.289,9.3554,9.4726,9.4765,9.5469,9.6875,9.7422,9.7695,9.7695,9.7695,9.7695,9.7695,9.7695,9.7695,9.7695,9.7695,9.7695,9.7695,9.7695,9.7695,9.7695,9.7695,9.7695,9.7695,9.7695,9.789,9.8125,9.8125,9.832,9.8554,9.8554,9.8945,9.9453,9.9453,9.9844,10.0312,10.0312,10.0117,9.9726,9.914,9.8984,9.8867,9.8281,9.8359,9.8711,9.9297,9.875,9.8398,9.9258,9.9687,10.0117,10.0586,10.1015,10.1211,10.1211,10.1211,10.1406,10.1992,10.1992,10.2304,10.2812,10.289,10.289,10.289,10.289,10.289,10.289,10.289,10.289,10.289,10.289,10.2617,10.1992,10.1992,10.1914,10.1601,10.0703,10.0508,10.0703,10.0117,10.0508,0.0,0.0,0.0,8.0508,8.0976,8.2344,8.7383,0.0,0.0,0.0,0.0,0.0,0.0,0.0,0.0,0.0,0.0,0.0,0.0,0.0,0.0,0.0,0.0,0.0,0.0,0.0,0.0,0.0,0.0,9.2617,9.2617,9.3437,9.4726,9.6445,9.6523,9.6914,9.7695,9.7695,9.7695,9.7695,9.7695,9.7695,9.7695,9.7695,9.7695,9.7695,9.7695,9.7695,9.7695,9.7695,9.7695,9.7695,9.7734,9.7734,9.7734,9.7773,9.832,9.9023,9.9023,9.9609,10.0312,10.0312,10.0312,10.0312,10.0312,10.039,10.039,10.039,9.9765,9.9101,9.9062,9.9062,9.9023,9.9023,9.9687,10.0312,10.0312,9.9687,9.9336,10.0195,10.1015,10.1601,10.1601,10.2304,10.289,10.289,10.289,10.289,10.289,10.289,10.289,10.289,10.289,10.289,10.289,10.289,10.289,10.289,10.289,10.289,10.289,10.289,10.289,10.289,10.289,10.3281,10.4219,10.1719,10.0898,10.1719,10.1719,10.2617,7.6914,0.0,0.0,0.0,0.0,0.0,0.0,0.0,0.0,0.0,0.0,0.0,0.0,0.0,0.0,0.0,0.0,0.0,0.0,0.0,0.0,0.0,0.0,0.0,0.0,0.0,0.0,0.0,9.2617,9.2617,9.2617,9.4023,9.5351,9.6445,9.707,9.7461,9.7695,9.7695,9.7695,9.7695,9.7695,9.7695,9.7695,9.7695,9.7695,9.7695,9.7695,9.7695,9.7695,9.7695,9.7695,9.7773,9.8398,9.8633,9.8711,9.9336,9.9726,9.9922,9.9922,10.0117,10.0312,10.0312,10.0703,10.1211,10.1211,10.1719,10.2187,10.2187,10.1992,10.1719,10.1015,10.039,9.9922,9.9922,10.0117,10.0508,10.1094,10.1094,10.1015,10.1211,10.1406,10.1797,10.2383,10.2695,10.289,10.289,10.289,10.289,10.289,10.289,10.289,10.289,10.289,10.289,10.289,10.289,10.289,10.289,10.289,10.289,10.289,10.289,10.289,10.289,10.289,10.3281,10.4219,10.3515,10.3594,10.4414,10.4414,10.4297,7.7187,7.7578,7.8086,7.8633,0.0,0.0,0.0,0.0,0.0,0.0,0.0,0.0,0.0,0.0,0.0,0.0,0.0,0.0,0.0,0.0,0.0,0.0,0.0,0.0,0.0,0.0,0.0,9.2617,9.2617,9.2929,9.3633,9.5,9.6133,9.6953,9.7461,9.7695,9.7695,9.7695,9.7695,9.7695,9.7695,9.7695,9.7695,9.7695,9.7695,9.7695,9.7695,9.789,9.8242,9.8242,9.8242,9.8281,9.8789,9.9219,9.9609,10.0117,10.0508,10.0781,10.0781,10.1094,10.1406,10.1406,10.1719,10.2109,10.2109,10.25,10.289,10.289,10.2617,10.2187,10.1289,10.1015,10.0781,10.0781,10.1094,10.1484,10.1992,10.2109,10.2109,10.2109,10.2109,10.2304,10.2812,10.289,10.289,10.289,10.289,10.289,10.289,10.289,10.289,10.289,10.289,10.289,10.289,10.289,10.289,10.289,10.289,10.289,10.289,10.289,10.289,10.289,10.289,10.3515,10.4687,10.4414,10.4804,10.6015,10.6406,10.6289,7.7383,7.7422,7.8008,0.0,0.0,0.0,0.0,0.0,0.0,0.0,0.0,0.0,0.0,0.0,0.0,0.0,0.0,0.0,0.0,0.0,0.0,0.0,0.0,0.0,0.0,0.0,9.2617,9.2617,9.2695,9.3476,9.5117,9.6015,9.6875,9.7656,9.7695,9.7695,9.7695,9.7695,9.7695,9.7695,9.7695,9.7695,9.7695,9.7695,9.7734,9.7851,9.7851,9.8359,9.914,9.914,9.914,9.914,9.9258,9.9765,10.0508,10.0586,10.1094,10.1719,10.1719,10.2304,10.289,10.289,10.289,10.289,10.289,10.289,10.289,10.289,10.2304,10.1601,10.0781,10.1211,10.1719,10.1719,10.2304,10.289,10.289,10.289,10.289,10.289,10.289,10.289,10.289,10.289,10.289,10.289,10.289,10.289,10.289,10.289,10.289,10.289,10.289,10.289,10.289,10.289,10.289,10.289,10.289,10.289,10.289,10.289,10.289,10.289,10.3008,10.3906,10.5508,10.4804,10.5312,10.6914,10.7617,10.8008,0.0,0.0,0.0,0.0,0.0,0.0,0.0,0.0,0.0,0.0,0.0,0.0,0.0,0.0,0.0,0.0,0.0,0.0,0.0,0.0,0.0,0.0,0.0,0.0,0.0,0.0,9.2617,9.2617,9.3242,9.4101,9.5156,9.6015,9.6875,9.7656,9.7695,9.7695,9.7695,9.7695,9.7695,9.7695,9.7695,9.7695,9.7695,9.7695,9.8086,9.875,9.875,9.9258,10.0,10.0,10.0,10.0117,10.0781,10.1211,10.1406,10.2109,10.25,10.2617,10.2617,10.2812,10.289,10.289,10.289,10.289,10.289,10.289,10.289,10.289,10.2812,10.2617,10.2383,10.25,10.2617,10.2617,10.2812,10.289,10.289,10.289,10.289,10.289,10.289,10.289,10.289,10.289,10.289,10.289,10.289,10.289,10.289,10.289,10.289,10.289,10.289,10.289,10.289,10.289,10.289,10.289,10.289,10.289,10.289,10.289,10.289,10.289,10.3594,10.4492,10.5508,10.6015,10.6719,10.7812,10.789,10.8008,0.0,0.0,0.0,8.0781,0.0,0.0,0.0,0.0,0.0,0.0,0.0,0.0,0.0,0.0,0.0,0.0,0.0,0.0,0.0,0.0,0.0,0.0,0.0,0.0,0.0,0.0,9.3906,9.3906,9.4297,9.4922,9.5781,9.664,9.7265,9.7695,9.7695,9.7695,9.7695,9.7695,9.7695,9.7695,9.7695,9.7929,9.8359,9.8359,9.8828,9.9648,9.9648,10.0117,10.0898,10.0898,10.1211,10.1601,10.1601,10.1914,10.2304,10.2695,10.289,10.289,10.289,10.289,10.289,10.289,10.289,10.289,10.289,10.289,10.289,10.289,10.289,10.289,10.289,10.289,10.289,10.289,10.289,10.289,10.289,10.289,10.289,10.289,10.289,10.289,10.289,10.289,10.289,10.289,10.289,10.289,10.289,10.289,10.289,10.289,10.289,10.289,10.289,10.289,10.289,10.289,10.3281,10.3515,10.3515,10.3984,10.4219,10.4219,10.4609,10.5312,10.6093,10.6484,10.7109,10.8008,10.8008,10.8008,0.0,0.0,0.0,0.0,0.0,8.3242,0.0,0.0,0.0,0.0,0.0,0.0,0.0,0.0,0.0,0.0,0.0,0.0,0.0,0.0,0.0,0.0,0.0,0.0,0.0,0.0,9.5078,9.5429,9.5469,9.582,9.6679,9.7656,9.8047,9.7695,9.7851,9.7851,9.7695,9.7695,9.7695,9.7695,9.7851,9.832,9.9023,9.9179,9.9648,10.0312,10.0508,10.0898,10.1601,10.1797,10.2304,10.2812,10.2109,10.2304,10.289,10.289,10.289,10.289,10.289,10.289,10.289,10.289,10.289,10.289,10.289,10.289,10.289,10.289,10.289,10.289,10.289,10.289,10.289,10.289,10.289,10.289,10.289,10.289,10.289,10.289,10.289,10.289,10.289,10.289,10.289,10.289,10.289,10.289,10.289,10.289,10.289,10.289,10.289,10.289,10.289,10.289,10.289,10.289,10.3711,10.4219,10.4219,10.5,10.5508,10.5508,10.5508,10.5898,10.6719,10.6719,10.7109,10.8008,10.8008,10.8008,0.0,0.0,0.0,0.0,8.5117,0.0,0.0,0.0,0.0,0.0,0.0,0.0,0.0,0.0,0.0,0.0,0.0,0.0,0.0,0.0,0.0,0.0,0.0,0.0,0.0,0.0,0.0,9.625,9.6367,9.6719,9.7539,9.9101,9.9297,9.7734,9.8437,9.8476,9.7695,9.7695,9.7695,9.7695,9.8476,9.8906,9.9023,9.9804,10.0195,10.0312,10.1094,10.1484,10.1719,10.2383,10.2812,10.289,10.2812,10.2812,10.289,10.289,10.289,10.289,10.289,10.289,10.289,10.289,10.289,10.289,10.289,10.289,10.289,10.289,10.289,10.289,10.289,10.289,10.289,10.289,10.289,10.289,10.289,10.289,10.289,10.289,10.289,10.289,10.289,10.289,10.289,10.289,10.289,10.289,10.289,10.289,10.289,10.289,10.289,10.289,10.289,10.289,10.289,10.289,10.3711,10.4219,10.4219,10.5,10.5508,10.5508,10.5508,10.5898,10.6719,10.6719,10.7109,10.8008,10.8008,10.8008,0.0,0.0,0.0,0.0,0.0,0.0,8.5937,0.0,8.6289,0.0,0.0,0.0,0.0,0.0,0.0,0.0,0.0,0.0,0.0,0.0,0.0,0.0,0.0,0.0,0.0,0.0,0.0,0.0,0.0,9.7304,9.9101,9.9883,9.9726,9.8476,9.8828,9.8594,9.7695,9.7695,9.7695,9.7695,9.8594,9.8984,9.9023,9.9883,10.0586,10.1094,10.1406,10.1914,10.2383,10.2695,10.289,10.289,10.289,10.289,10.289,10.289,10.289,10.289,10.289,10.289,10.289,10.289,10.289,10.289,10.289,10.289,10.289,10.289,10.289,10.289,10.289,10.289,10.289,10.289,10.289,10.289,10.289,10.289,10.289,10.289,10.289,10.289,10.289,10.289,10.289,10.289,10.289,10.289,10.289,10.289,10.289,10.289,10.289,10.3086,10.3594,10.3711,10.3906,10.4414,10.5195,10.5898,10.6406,10.6797,10.6992,10.6992,10.6992,10.7109,10.75,10.75,10.7617,10.8008,10.8008,10.8008,8.6133,0.0,0.0,0.0,0.0,0.0,0.0,0.0,0.0,0.0,0.0,0.0,0.0,0.0,0.0,0.0,0.0,9.0781,0.0,0.0,0.0,0.0,0.0,0.0,0.0,0.0,0.0,0.0,0.0,0.0,10.0508,10.0898,10.0508,9.9375,9.9609,9.9179,9.8086,9.8047,9.7929,9.7695,9.8594,9.914,9.9375,10.0312,10.1015,10.1601,10.1914,10.2187,10.2617,10.2812,10.289,10.289,10.289,10.289,10.289,10.289,10.289,10.289,10.289,10.289,10.289,10.289,10.289,10.289,10.289,10.289,10.289,10.289,10.289,10.289,10.289,10.289,10.289,10.289,10.289,10.289,10.289,10.289,10.289,10.289,10.289,10.289,10.289,10.289,10.289,10.289,10.289,10.3008,10.3203,10.3281,10.3281,10.3281,10.3515,10.3789,10.4219,10.4414,10.4883,10.5781,10.6406,10.7109,10.8008,10.8008,10.8008,10.8008,10.8008,10.8008,10.8008,10.8008,10.8008,10.8008,10.8008,10.8008,0.0,0.0,0.0,8.5742,0.0,0.0,0.0,0.0,8.8594,0.0,0.0,0.0,0.0,0.0,8.9453,8.7851,8.8945,0.0,0.0,0.0,0.0,0.0,0.0,0.0,0.0,0.0,0.0,0.0,0.0,0.0,10.1406,10.2383,10.1992,10.0312,10.1094,10.0703,9.8984,9.8945,9.8515,9.7695,9.8594,9.9453,10.0312,10.1211,10.1601,10.1601,10.25,10.2383,10.1719,10.2617,10.289,10.289,10.289,10.289,10.289,10.289,10.289,10.289,10.289,10.289,10.289,10.289,10.289,10.289,10.289,10.289,10.289,10.289,10.289,10.289,10.289,10.289,10.289,10.289,10.289,10.289,10.289,10.289,10.289,10.289,10.289,10.289,10.289,10.289,10.289,10.289,10.289,10.3203,10.3984,10.4219,10.4219,10.4219,10.4883,10.5117,10.4297,10.5,10.5781,10.6601,10.6719,10.7109,10.8008,10.8008,10.8008,10.8008,10.8008,10.8008,10.8008,10.8008,10.8008,10.8008,10.8008,10.8008,0.0,0.0,9.2617,8.914,0.0,0.0,0.0,0.0,0.0,0.0,0.0,0.0,0.0,9.0,8.9804,8.9258,8.914,8.875,0.0,0.0,0.0,0.0,0.0,0.0,0.0,0.0,0.0,0.0,0.0,0.0,0.0,10.2695,10.2383,10.1211,10.1406,10.0781,9.9023,9.8984,9.8554,9.7695,9.8594,9.914,9.9453,10.0312,10.1094,10.1601,10.1914,10.2187,10.25,10.2812,10.289,10.289,10.289,10.289,10.289,10.289,10.289,10.289,10.289,10.289,10.289,10.289,10.289,10.289,10.289,10.289,10.289,10.289,10.289,10.289,10.289,10.289,10.289,10.289,10.289,10.289,10.289,10.289,10.289,10.289,10.289,10.289,10.289,10.289,10.289,10.289,10.289,10.3203,10.4101,10.4219,10.4414,10.5,10.5312,10.5586,10.5781,10.6719,10.7304,10.75,10.7617,10.7695,10.8008,10.8008,10.8008,10.8008,10.8008,10.8008,10.8008,10.8008,10.8008,10.8008,10.8008,10.8008,9.3672,9.4336,0.0,9.125,9.1523,0.0,8.9023,0.0,0.0,0.0,0.0,0.0,0.0,0.0,9.082,9.0508,8.9726,8.8789,0.0,8.7031,0.0,0.0,0.0,0.0,0.0,0.0,0.0,0.0,0.0,0.0,0.0,0.0,10.2617,10.2109,10.2109,10.1211,9.9492,9.9453,9.8867,9.7695,9.8594,9.914,9.9492,10.039,10.1211,10.2109,10.2109,10.2383,10.289,10.289,10.289,10.289,10.289,10.289,10.289,10.289,10.289,10.289,10.289,10.289,10.289,10.289,10.289,10.289,10.289,10.289,10.289,10.289,10.289,10.289,10.289,10.289,10.289,10.289,10.289,10.289,10.289,10.289,10.289,10.289,10.289,10.289,10.289,10.3203,10.3398,10.3398,10.3398,10.3789,10.4883,10.5117,10.5312,10.5898,10.6211,10.6601,10.7109,10.7695,10.8008,10.8008,10.8008,10.8008,10.8008,10.8008,10.789,10.75,10.7812,10.7812,10.75,10.7812,10.8008,10.8008,10.8008,10.8008]},{"header":{"parameterUnit":"m.s-1","parameterCategory":1,"la1":30.6,"la2":29.2853,"lo1":-89.7004,"lo2":-87.6739,"dx":0.0162,"dy":0.0183,"nx":112,"ny":82,"refTime":"2022-12-22T06:00:00:Z","depth":0,"parameterNumber":3,"parameterNumberName":"V-component_of_WINDS"},"data":[0.0,0.0,0.0,0.0,0.0,0.0,0.0,0.0,0.0,0.0,0.0,0.0,0.0,0.0,0.0,0.0,0.0,0.0,0.0,0.0,0.0,0.0,0.0,0.0,0.0,0.0,0.0,0.0,0.0,0.0,0.0,0.0,0.0,0.0,0.0,0.0,0.0,0.0,0.0,0.0,0.0,0.0,0.0,0.0,0.0,0.0,0.0,0.0,0.0,0.0,0.0,0.0,0.0,0.0,0.0,0.0,0.0,0.0,0.0,0.0,0.0,0.0,0.0,0.0,0.0,0.0,0.0,0.0,0.0,0.0,0.0,0.0,0.0,0.0,0.0,0.0,0.0,0.0,0.0,0.0,0.0,0.0,0.0,0.0,0.0,0.0,0.0,0.0,0.0,0.0,0.0,-1.0731,-1.0894,-1.0968,-1.0948,-1.069,-1.046,-1.029,0.0,0.0,0.0,0.0,0.0,0.0,0.0,0.0,0.0,0.0,0.0,0.0,0.0,0.0,0.0,0.0,0.0,0.0,0.0,0.0,0.0,0.0,0.0,0.0,0.0,0.0,0.0,0.0,0.0,0.0,0.0,0.0,0.0,0.0,0.0,0.0,0.0,0.0,0.0,0.0,0.0,0.0,0.0,0.0,0.0,0.0,0.0,0.0,0.0,0.0,0.0,0.0,0.0,0.0,0.0,0.0,0.0,0.0,0.0,0.0,0.0,0.0,0.0,0.0,0.0,0.0,0.0,0.0,0.0,0.0,0.0,0.0,0.0,0.0,0.0,0.0,0.0,0.0,0.0,0.0,0.0,0.0,0.0,0.0,0.0,0.0,0.0,0.0,0.0,0.0,0.0,0.0,0.0,0.0,0.0,0.0,0.0,0.0,0.0,0.0,0.0,0.0,0.0,0.0,-1.0466,-1.0873,-1.1043,-1.1084,-1.0962,-1.0785,-1.0568,-1.0297,0.0,0.0,0.0,0.0,0.0,0.0,0.0,0.0,0.0,0.0,0.0,0.0,0.0,0.0,0.0,0.0,0.0,0.0,0.0,0.0,0.0,0.0,0.0,0.0,0.0,0.0,0.0,0.0,0.0,0.0,0.0,0.0,0.0,0.0,0.0,0.0,0.0,0.0,0.0,0.0,0.0,0.0,0.0,0.0,0.0,0.0,0.0,0.0,0.0,0.0,0.0,0.0,0.0,0.0,0.0,0.0,0.0,0.0,0.0,0.0,0.0,0.0,0.0,0.0,0.0,0.0,0.0,0.0,0.0,0.0,0.0,0.0,0.0,0.0,0.0,0.0,0.0,0.0,0.0,0.0,0.0,0.0,0.0,0.0,0.0,0.0,0.0,0.0,0.0,0.0,0.0,0.0,0.0,0.0,0.0,0.0,0.0,0.0,0.0,0.0,0.0,0.0,0.0,-1.0833,-1.0962,-1.1165,-1.1321,-1.1314,-1.1084,-1.1002,-1.0799,-1.0419,-1.0331,0.0,0.0,0.0,0.0,0.0,0.0,0.0,0.0,0.0,0.0,0.0,0.0,0.0,0.0,0.0,0.0,0.0,0.0,0.0,0.0,0.0,0.0,0.0,0.0,0.0,0.0,0.0,0.0,0.0,0.0,0.0,0.0,0.0,0.0,0.0,0.0,0.0,0.0,0.0,0.0,0.0,0.0,0.0,0.0,0.0,0.0,0.0,0.0,0.0,0.0,0.0,0.0,0.0,0.0,0.0,0.0,0.0,0.0,0.0,0.0,0.0,0.0,0.0,0.0,0.0,0.0,0.0,0.0,0.0,0.0,0.0,0.0,0.0,0.0,0.0,0.0,0.0,0.0,0.0,0.0,0.0,0.0,0.0,0.0,0.0,0.0,0.0,0.0,0.0,0.0,0.0,0.0,0.0,0.0,0.0,0.0,0.0,0.0,0.0,0.0,0.0,0.0,-1.1335,-1.1484,-1.145,-1.1552,-1.1511,-1.124,-1.1185,-1.0968,-1.0521,-1.0493,0.0,0.0,0.0,0.0,0.0,0.0,0.0,0.0,0.0,0.0,0.0,0.0,0.0,0.0,0.0,0.0,0.0,0.0,0.0,0.0,0.0,0.0,0.0,0.0,0.0,0.0,0.0,0.0,0.0,0.0,0.0,0.0,0.0,0.0,0.0,0.0,0.0,0.0,0.0,0.0,0.0,0.0,0.0,0.0,0.0,0.0,0.0,0.0,0.0,0.0,0.0,0.0,0.0,0.0,0.0,0.0,0.0,0.0,0.0,0.0,0.0,0.0,0.0,0.0,0.0,0.0,0.0,0.0,0.0,0.0,0.0,0.0,0.0,0.0,0.0,0.0,0.0,0.0,0.0,0.0,0.0,0.0,0.0,0.0,0.0,0.0,0.0,0.0,0.0,0.0,0.0,0.0,0.0,0.0,0.0,0.0,0.0,0.0,0.0,0.0,0.0,0.0,-1.145,-1.1748,-1.1619,-1.1613,-1.1552,-1.1389,-1.1246,-1.0968,-1.0521,-1.0493,0.0,0.0,0.0,0.0,0.0,0.0,0.0,0.0,0.0,0.0,0.0,0.0,0.0,0.0,0.0,0.0,0.0,0.0,0.0,0.0,0.0,0.0,0.0,0.0,0.0,0.0,0.0,0.0,0.0,0.0,0.0,0.0,0.0,0.0,0.0,0.0,0.0,0.0,0.0,0.0,0.0,0.0,0.0,0.0,0.0,0.0,0.0,0.0,0.0,0.0,0.0,0.0,0.0,0.0,0.0,0.0,0.0,0.0,0.0,0.0,0.0,0.0,0.0,0.0,0.0,0.0,0.0,0.0,0.0,0.0,0.0,0.0,0.0,0.0,0.0,0.0,0.0,0.0,0.0,0.0,0.0,0.0,0.0,0.0,0.0,0.0,0.0,0.0,0.0,0.0,0.0,0.0,0.0,0.0,0.0,0.0,0.0,0.0,0.0,0.0,0.0,0.0,-1.1504,-1.1714,0.0,-1.1748,-1.1694,-1.1545,-1.1484,-1.1212,-1.067,0.0,0.0,0.0,0.0,0.0,0.0,0.0,0.0,0.0,0.0,0.0,0.0,0.0,0.0,0.0,0.0,0.0,0.0,0.0,0.0,0.0,0.0,0.0,0.0,0.0,0.0,0.0,0.0,0.0,0.0,0.0,0.0,0.0,0.0,0.0,0.0,0.0,0.0,0.0,0.0,0.0,0.0,0.0,0.0,0.0,0.0,0.0,0.0,0.0,0.0,0.0,0.0,0.0,0.0,0.0,0.0,0.0,0.0,0.0,0.0,0.0,0.0,0.0,0.0,0.0,0.0,0.0,0.0,0.0,0.0,0.0,0.0,0.0,0.0,0.0,0.0,0.0,0.0,0.0,0.0,0.0,0.0,0.0,0.0,0.0,0.0,0.0,0.0,0.0,0.0,0.0,0.0,0.0,0.0,0.0,0.0,0.0,0.0,0.0,0.0,0.0,0.0,-1.1328,-1.1565,-1.1721,0.0,-1.1789,-1.1728,-1.1626,-1.1619,-1.1382,-1.0826,0.0,0.0,0.0,0.0,0.0,0.0,0.0,0.0,0.0,0.0,0.0,0.0,0.0,0.0,0.0,0.0,0.0,0.0,0.0,0.0,0.0,0.0,0.0,0.0,0.0,0.0,0.0,0.0,0.0,0.0,0.0,0.0,0.0,0.0,0.0,0.0,0.0,0.0,0.0,0.0,0.0,0.0,0.0,0.0,0.0,0.0,0.0,0.0,0.0,0.0,0.0,0.0,0.0,0.0,0.0,0.0,0.0,0.0,0.0,0.0,0.0,0.0,0.0,0.0,0.0,0.0,0.0,0.0,0.0,0.0,0.0,0.0,0.0,0.0,0.0,0.0,0.0,0.0,0.0,0.0,0.0,0.0,0.0,0.0,0.0,0.0,0.0,0.0,0.0,0.0,0.0,0.0,0.0,0.0,0.0,0.0,0.0,0.0,0.0,0.0,0.0,0.0,-1.1348,-1.1647,-1.183,-1.183,-1.1701,-1.1619,-1.1619,-1.1619,-1.143,0.0,0.0,0.0,0.0,0.0,0.0,0.0,0.0,0.0,0.0,0.0,0.0,0.0,0.0,0.0,0.0,0.0,0.0,0.0,0.0,0.0,0.0,0.0,0.0,0.0,0.0,0.0,0.0,0.0,0.0,0.0,0.0,0.0,0.0,0.0,0.0,0.0,0.0,0.0,0.0,0.0,0.0,0.0,0.0,0.0,0.0,0.0,0.0,0.0,0.0,0.0,0.0,0.0,0.0,0.0,0.0,0.0,0.0,0.0,0.0,0.0,0.0,0.0,0.0,0.0,0.0,0.0,0.0,0.0,0.0,0.0,0.0,0.0,0.0,0.0,0.0,0.0,0.0,0.0,0.0,0.0,0.0,0.0,0.0,0.0,0.0,0.0,0.0,0.0,0.0,0.0,0.0,0.0,0.0,0.0,0.0,0.0,0.0,0.0,0.0,0.0,0.0,0.0,0.0,-1.1497,-1.1681,-1.1681,-1.1647,-1.1619,-1.1619,-1.1619,-1.143,-1.0975,0.0,0.0,0.0,0.0,0.0,0.0,0.0,0.0,0.0,0.0,0.0,0.0,0.0,0.0,0.0,0.0,0.0,0.0,0.0,0.0,0.0,0.0,0.0,0.0,0.0,0.0,0.0,0.0,0.0,0.0,0.0,0.0,0.0,0.0,0.0,0.0,0.0,0.0,0.0,0.0,0.0,0.0,0.0,0.0,0.0,0.0,0.0,0.0,0.0,0.0,0.0,0.0,0.0,0.0,0.0,0.0,0.0,0.0,0.0,0.0,0.0,0.0,0.0,0.0,0.0,0.0,0.0,0.0,0.0,0.0,0.0,0.0,0.0,0.0,0.0,0.0,0.0,0.0,0.0,0.0,0.0,0.0,0.0,0.0,0.0,0.0,0.0,0.0,0.0,0.0,0.0,0.0,0.0,0.0,0.0,0.0,0.0,0.0,0.0,0.0,0.0,0.0,-1.1124,-1.143,-1.1619,-1.1619,-1.1619,-1.1619,-1.1619,-1.1619,-1.1477,-1.1145,0.0,0.0,0.0,0.0,0.0,0.0,0.0,0.0,0.0,0.0,0.0,0.0,0.0,0.0,0.0,0.0,0.0,0.0,0.0,0.0,0.0,0.0,0.0,0.0,0.0,0.0,0.0,0.0,0.0,0.0,0.0,0.0,0.0,0.0,0.0,0.0,0.0,0.0,0.0,0.0,0.0,0.0,0.0,0.0,0.0,0.0,0.0,0.0,0.0,0.0,0.0,0.0,0.0,0.0,0.0,0.0,0.0,0.0,0.0,0.0,0.0,0.0,0.0,0.0,0.0,0.0,0.0,0.0,0.0,0.0,0.0,0.0,0.0,0.0,0.0,0.0,0.0,0.0,0.0,0.0,0.0,0.0,0.0,0.0,0.0,0.0,0.0,0.0,0.0,0.0,0.0,0.0,0.0,0.0,0.0,0.0,0.0,0.0,0.0,0.0,0.0,0.0,-1.1145,-1.145,-1.164,-1.164,-1.1653,-1.166,-1.166,-1.166,-1.1592,-1.1423,0.0,0.0,0.0,0.0,0.0,0.0,0.0,0.0,0.0,0.0,0.0,0.0,0.0,0.0,0.0,0.0,0.0,0.0,0.0,0.0,0.0,0.0,0.0,0.0,0.0,0.0,0.0,0.0,0.0,0.0,0.0,0.0,0.0,0.0,0.0,0.0,0.0,0.0,0.0,0.0,0.0,0.0,0.0,0.0,0.0,0.0,0.0,0.0,0.0,0.0,0.0,0.0,0.0,0.0,0.0,0.0,0.0,0.0,0.0,0.0,-1.0758,0.0,0.0,0.0,0.0,0.0,0.0,0.0,0.0,0.0,0.0,0.0,0.0,0.0,0.0,0.0,0.0,0.0,0.0,0.0,0.0,0.0,0.0,0.0,0.0,0.0,0.0,0.0,0.0,0.0,0.0,0.0,0.0,0.0,0.0,0.0,0.0,0.0,0.0,0.0,0.0,0.0,-1.1307,-1.1599,-1.1782,-1.1782,-1.1898,-1.1965,-1.1965,-1.1965,-1.185,-1.1586,0.0,0.0,0.0,0.0,0.0,0.0,0.0,0.0,0.0,0.0,0.0,0.0,0.0,0.0,0.0,0.0,0.0,0.0,0.0,0.0,0.0,0.0,0.0,0.0,0.0,0.0,0.0,0.0,0.0,0.0,0.0,0.0,0.0,0.0,0.0,0.0,0.0,0.0,0.0,0.0,0.0,0.0,0.0,0.0,0.0,0.0,0.0,0.0,0.0,0.0,0.0,0.0,0.0,0.0,0.0,0.0,0.0,0.0,0.0,0.0,0.0,-1.0955,0.0,0.0,0.0,0.0,0.0,0.0,0.0,0.0,0.0,0.0,0.0,0.0,0.0,0.0,0.0,0.0,0.0,0.0,0.0,0.0,0.0,0.0,0.0,0.0,0.0,0.0,0.0,0.0,0.0,0.0,0.0,0.0,0.0,0.0,0.0,0.0,0.0,0.0,0.0,0.0,-1.1463,-1.1762,-1.1938,-1.1938,-1.2013,-1.206,-1.206,-1.206,-1.1999,-1.1843,-1.1762,0.0,0.0,0.0,0.0,0.0,0.0,0.0,0.0,0.0,0.0,0.0,0.0,0.0,0.0,0.0,0.0,0.0,0.0,0.0,0.0,0.0,0.0,0.0,0.0,0.0,0.0,0.0,0.0,0.0,0.0,0.0,0.0,0.0,0.0,0.0,0.0,0.0,0.0,0.0,0.0,0.0,0.0,0.0,0.0,0.0,0.0,0.0,0.0,0.0,0.0,0.0,0.0,0.0,-1.1131,-1.1274,-1.1504,-1.1504,-1.164,-1.1843,-1.1355,-1.128,-1.1497,0.0,0.0,0.0,0.0,0.0,0.0,0.0,0.0,0.0,0.0,0.0,0.0,0.0,0.0,0.0,0.0,0.0,0.0,0.0,0.0,0.0,0.0,0.0,0.0,0.0,-1.1586,-1.1708,0.0,0.0,0.0,0.0,0.0,0.0,0.0,0.0,0.0,0.0,0.0,0.0,-1.1694,-1.1972,-1.2128,-1.2101,-1.2149,-1.2176,-1.2176,-1.2203,-1.221,-1.2182,-1.206,-1.1898,0.0,0.0,0.0,0.0,0.0,0.0,0.0,0.0,0.0,0.0,0.0,0.0,0.0,0.0,0.0,0.0,0.0,0.0,0.0,0.0,0.0,0.0,0.0,0.0,0.0,0.0,0.0,0.0,0.0,0.0,0.0,0.0,-1.0229,-1.0249,0.0,0.0,0.0,0.0,0.0,0.0,0.0,0.0,0.0,0.0,0.0,0.0,0.0,0.0,-1.1328,-1.1443,-1.1572,-1.1714,-1.185,-1.1938,-1.1972,-1.1972,-1.1993,-1.2026,-1.1952,0.0,-1.1972,-1.1952,0.0,0.0,0.0,0.0,0.0,0.0,0.0,0.0,0.0,0.0,0.0,0.0,0.0,0.0,0.0,0.0,0.0,0.0,0.0,0.0,0.0,0.0,-1.2325,-1.2325,-1.2352,-1.2372,0.0,-1.1714,-1.1151,-1.1111,0.0,0.0,0.0,0.0,0.0,0.0,0.0,0.0,-1.2162,-1.2345,-1.2393,-1.2271,-1.2488,-1.2644,-1.2644,-1.2766,-1.2786,-1.2651,-1.2623,-1.2427,-1.202,-1.1857,0.0,0.0,0.0,0.0,0.0,0.0,0.0,0.0,0.0,0.0,0.0,0.0,0.0,0.0,0.0,0.0,0.0,0.0,0.0,0.0,0.0,0.0,0.0,0.0,0.0,0.0,0.0,0.0,0.0,-1.0304,-1.0432,-1.0521,-1.0527,-1.0588,0.0,0.0,0.0,0.0,0.0,0.0,0.0,0.0,0.0,-1.1531,-1.1538,-1.1613,-1.1769,-1.1837,-1.1898,-1.1965,-1.2033,-1.2108,-1.2189,-1.2189,-1.2237,-1.2311,-1.2311,-1.2311,-1.2298,-1.2128,-1.1986,-1.1857,0.0,0.0,0.0,0.0,0.0,-1.1463,-1.1789,-1.1796,0.0,0.0,0.0,0.0,0.0,0.0,0.0,0.0,0.0,0.0,0.0,0.0,0.0,-1.2461,-1.2501,-1.2501,-1.2501,-1.2196,-1.1864,0.0,-1.1721,-1.1667,-1.1348,0.0,0.0,0.0,0.0,0.0,-1.2508,-1.2589,-1.2671,-1.2773,-1.2827,-1.2929,-1.3091,-1.3173,-1.318,-1.3112,-1.3105,-1.2983,-1.2698,-1.2379,-1.2047,0.0,0.0,0.0,0.0,0.0,0.0,0.0,0.0,0.0,0.0,0.0,0.0,0.0,0.0,0.0,0.0,0.0,0.0,0.0,0.0,0.0,0.0,0.0,0.0,0.0,0.0,0.0,0.0,-1.0521,-1.0663,-1.0819,-1.0833,-1.088,0.0,0.0,0.0,0.0,0.0,0.0,-1.1552,-1.1565,-1.166,-1.1884,-1.1891,-1.1965,-1.2121,-1.2121,-1.2142,-1.2176,-1.2176,-1.2237,-1.2345,-1.2345,-1.24,-1.2501,-1.2501,-1.2501,-1.2481,-1.2264,-1.2155,-1.2108,-1.1993,-1.1925,-1.1898,-1.1932,-1.1884,-1.1843,-1.2216,-1.2271,-1.2155,-1.204,0.0,-1.183,-1.1491,0.0,0.0,0.0,0.0,-1.185,-1.2108,-1.2176,-1.223,-1.2447,-1.2528,-1.2562,-1.2562,-1.2589,-1.2542,0.0,-1.223,-1.2128,-1.1789,0.0,0.0,0.0,0.0,-1.2684,-1.2874,-1.2901,-1.2983,-1.3207,-1.3173,-1.322,-1.3444,-1.3492,-1.3512,-1.3512,-1.3512,-1.3444,-1.3295,-1.2929,-1.263,-1.2406,0.0,0.0,0.0,0.0,0.0,0.0,0.0,0.0,0.0,0.0,0.0,0.0,0.0,0.0,0.0,0.0,0.0,0.0,0.0,0.0,0.0,0.0,0.0,0.0,0.0,0.0,0.0,0.0,0.0,-1.1124,-1.1138,0.0,0.0,0.0,0.0,-1.1572,-1.1599,-1.1721,-1.2013,-1.2026,-1.2033,-1.2047,-1.2047,-1.2121,-1.2277,-1.2277,-1.2345,-1.2481,-1.2481,-1.2481,-1.2488,-1.2488,-1.2494,-1.2501,-1.2501,-1.2501,-1.2501,-1.2488,-1.24,-1.2277,-1.2271,-1.2176,-1.2067,-1.221,-1.2264,-1.2277,-1.2433,-1.2488,-1.2481,-1.2467,-1.2277,-1.2047,-1.2026,-1.1918,0.0,0.0,-1.2142,-1.2291,-1.244,-1.2481,-1.2481,-1.2501,-1.261,-1.2718,-1.2718,-1.2834,-1.2888,0.0,-1.2698,-1.2691,-1.2664,0.0,-1.2732,-1.2881,-1.2922,-1.3044,-1.3329,-1.337,-1.337,-1.339,-1.3512,-1.36,-1.3614,-1.3743,-1.3817,-1.3817,-1.3817,-1.3756,-1.3614,-1.3444,-1.3152,-1.2718,-1.2549,0.0,0.0,0.0,0.0,0.0,0.0,0.0,0.0,0.0,0.0,0.0,0.0,0.0,0.0,0.0,0.0,0.0,0.0,0.0,0.0,0.0,0.0,0.0,0.0,0.0,0.0,0.0,0.0,-1.128,-1.1219,0.0,0.0,-1.1457,-1.1579,-1.1884,-1.1904,-1.1993,-1.2196,-1.221,-1.225,-1.2338,-1.2345,-1.2372,-1.2427,-1.2427,-1.2454,-1.2501,-1.2501,-1.2501,-1.2501,-1.2501,-1.2501,-1.2501,-1.2501,-1.2501,-1.2501,-1.2501,-1.2474,-1.2427,-1.2427,-1.2393,-1.2352,-1.2406,-1.2427,-1.2433,-1.2481,-1.2501,-1.2501,-1.2501,-1.2433,-1.2345,-1.2345,-1.2305,-1.2298,-1.2447,-1.2528,-1.261,-1.2759,-1.28,-1.28,-1.28,-1.284,-1.2881,-1.2881,-1.2922,-1.2969,-1.301,-1.2942,-1.2847,-1.2745,-1.2969,-1.3146,-1.3105,-1.3342,-1.3566,-1.3668,-1.3607,-1.362,-1.381,-1.379,-1.3844,-1.4041,-1.4109,-1.4136,-1.4136,-1.4136,-1.4068,-1.3919,-1.3763,-1.3519,-1.3166,-1.3105,-1.2651,0.0,0.0,0.0,0.0,0.0,0.0,0.0,0.0,0.0,0.0,0.0,0.0,0.0,0.0,0.0,0.0,0.0,0.0,0.0,0.0,0.0,0.0,0.0,0.0,0.0,0.0,-1.1192,-1.1436,-1.1423,-1.147,-1.1674,-1.1735,-1.187,-1.2121,-1.2142,-1.2203,-1.2352,-1.2359,-1.2406,-1.2501,-1.2501,-1.2501,-1.2501,-1.2501,-1.2501,-1.2501,-1.2501,-1.2528,-1.2576,-1.2576,-1.261,-1.2657,-1.2657,-1.2657,-1.2657,-1.2657,-1.2657,-1.2644,-1.2542,-1.2501,-1.2501,-1.2501,-1.2501,-1.2501,-1.2501,-1.2535,-1.2576,-1.2576,-1.2617,-1.2657,-1.2657,-1.2657,-1.2678,-1.2779,-1.2807,-1.2834,-1.2935,-1.2963,-1.2963,-1.2963,-1.2996,-1.303,-1.303,-1.3112,-1.3214,-1.3308,-1.3166,-1.303,-1.303,-1.3281,-1.3444,-1.3342,-1.362,-1.3838,-1.3838,-1.3804,-1.3871,-1.4122,-1.4055,-1.4095,-1.4346,-1.4231,-1.4231,-1.4434,-1.4258,-1.417,-1.4217,-1.3933,-1.3675,-1.3485,-1.3376,-1.2881,-1.1993,0.0,0.0,0.0,0.0,0.0,0.0,0.0,0.0,0.0,0.0,0.0,0.0,0.0,0.0,0.0,0.0,0.0,0.0,0.0,0.0,0.0,0.0,0.0,-1.1348,-1.1389,-1.145,-1.1606,-1.1748,-1.1837,-1.1843,-1.1979,-1.2135,-1.2284,-1.2298,-1.2359,-1.2494,-1.2501,-1.2501,-1.2501,-1.2501,-1.2501,-1.2508,-1.2508,-1.2508,-1.2515,-1.2515,-1.2589,-1.2739,-1.2739,-1.282,-1.2963,-1.2963,-1.2963,-1.2963,-1.2963,-1.2963,-1.2929,-1.263,-1.2515,-1.2515,-1.2515,-1.2515,-1.2515,-1.2515,-1.261,-1.2739,-1.2739,-1.284,-1.2963,-1.2963,-1.2963,-1.2963,-1.2969,-1.2969,-1.2969,-1.2976,-1.2976,-1.2976,-1.2983,-1.3085,-1.3186,-1.3193,-1.3424,-1.3634,-1.3634,-1.3397,-1.3288,-1.3587,-1.3641,-1.3641,-1.3641,-1.3763,0.0,-1.3858,-1.3987,-1.4136,-1.4278,-1.4299,-1.4353,-1.4496,-1.4102,-1.4109,-1.4706,-1.419,-1.4061,-1.4502,-1.3966,-1.3654,-1.3641,-1.3336,-1.303,-1.2745,0.0,0.0,0.0,0.0,0.0,0.0,0.0,0.0,0.0,0.0,0.0,0.0,0.0,0.0,0.0,0.0,0.0,0.0,0.0,0.0,0.0,0.0,-1.1294,-1.1382,-1.1389,-1.1484,-1.1742,-1.1809,-1.1918,-1.2142,-1.2203,-1.2284,-1.2433,-1.244,-1.2461,-1.2501,-1.2501,-1.2501,-1.2501,-1.2501,-1.2556,-1.2664,-1.2664,-1.2725,-1.2834,-1.2834,-1.2854,-1.2895,-1.2895,-1.2922,-1.2963,-1.2963,-1.2963,-1.2963,-1.2963,-1.2963,-1.2949,-1.2868,-1.2834,-1.2834,-1.2834,-1.2834,-1.2834,-1.2834,-1.2861,-1.2895,-1.2895,-1.2929,-1.2963,-1.2963,-1.2963,-1.2983,-1.3085,-1.3112,-1.3139,-1.3254,-1.3281,-1.3308,-1.3417,-1.3471,-1.3532,-1.3634,-1.3722,-1.3783,-1.3783,-1.3715,-1.3682,-1.377,-1.3878,-1.3953,-1.3953,-1.4075,0.0,-1.4177,-1.4299,-1.4326,-1.415,-1.4231,-1.4319,-1.4353,-1.4245,-1.4333,0.0,-1.4584,-1.455,-1.4672,-1.4414,-1.417,-1.3953,-1.3437,-1.3132,0.0,0.0,0.0,0.0,0.0,0.0,0.0,0.0,0.0,0.0,0.0,0.0,0.0,0.0,0.0,0.0,0.0,0.0,0.0,0.0,0.0,0.0,-1.1382,-1.1579,-1.1579,-1.1579,-1.164,-1.1809,-1.1945,-1.2094,-1.2271,-1.2345,-1.2413,-1.2494,-1.2501,-1.2501,-1.2501,-1.2501,-1.2528,-1.2596,-1.2596,-1.2671,-1.2827,-1.2827,-1.2874,-1.2963,-1.2963,-1.299,-1.3051,-1.3051,-1.3085,0.0,-1.3146,-1.3146,-1.3146,-1.3146,-1.3146,0.0,0.0,0.0,0.0,0.0,-1.2963,-1.2963,-1.2963,-1.3003,-1.3051,-1.3051,-1.3091,-1.3146,-1.3146,-1.3146,-1.3173,-1.3322,-1.3363,-1.3397,-1.3546,-1.3587,-1.3607,-1.3695,-1.3715,-1.3743,-1.3824,-1.3892,-1.3939,-1.3939,0.0,0.0,-1.4109,-1.4095,-1.4095,-1.4156,-1.4292,-1.4387,-1.4387,-1.4516,-1.4543,-1.4373,-1.4434,-1.4509,-1.4577,-1.4407,0.0,0.0,0.0,-1.4557,-1.4557,-1.4468,0.0,0.0,0.0,0.0,0.0,0.0,0.0,0.0,-1.2515,-1.2447,0.0,0.0,0.0,0.0,0.0,0.0,0.0,0.0,0.0,0.0,0.0,0.0,0.0,0.0,0.0,0.0,-1.1647,-1.1837,-1.1857,-1.187,-1.1884,-1.1884,-1.2121,-1.2298,-1.2311,-1.2427,-1.2501,-1.2501,-1.2501,-1.2508,-1.2528,0.0,0.0,0.0,0.0,-1.2827,-1.2983,-1.2983,-1.299,-1.301,-1.301,-1.3078,-1.32,-1.3214,-1.3302,-1.3424,-1.3444,-1.3451,-1.3451,-1.3451,-1.3451,-1.3424,-1.3125,-1.301,-1.301,-1.301,-1.301,-1.3017,-1.303,0.0,0.0,-1.3241,-1.3342,-1.3451,-1.3451,-1.3451,-1.3478,-1.3614,-1.3654,-1.3682,-1.3804,-1.3838,-1.3844,-1.3865,-1.3865,-1.3871,-1.3885,-1.4,-1.4102,-1.4116,-1.4231,-1.4367,-1.4516,-1.4306,-1.4177,-1.4326,-1.4455,-1.4536,-1.4536,-1.4672,-1.4753,-1.4719,0.0,0.0,-1.4957,-1.4604,-1.4624,-1.5201,-1.4726,-1.4414,-1.438,-1.4373,-1.4306,-1.415,-1.4014,-1.4,-1.4122,-1.3987,-1.3899,-1.3844,-1.303,-1.28,0.0,0.0,0.0,0.0,0.0,0.0,0.0,0.0,0.0,0.0,0.0,0.0,0.0,0.0,0.0,-1.1545,-1.1721,-1.1877,-1.1999,-1.2121,-1.2203,-1.2203,-1.225,-1.2332,-1.2447,-1.2488,-1.2501,-1.2501,-1.2501,-1.2556,-1.2678,-1.2684,0.0,-1.2908,-1.2915,-1.2983,-1.3132,-1.3132,-1.3193,-1.3315,0.0,0.0,-1.3363,-1.3485,-1.3559,-1.3593,-1.3702,-1.3756,-1.3756,-1.3756,-1.3756,-1.3729,-1.3431,-1.3315,-1.3315,-1.3315,-1.3315,-1.3336,-1.3458,-1.3519,-1.3559,-1.3675,-1.3729,-1.3756,-1.3756,-1.3756,0.0,-1.379,-1.3797,-1.3804,-1.3831,-1.3838,-1.3871,-1.3994,-1.4027,-1.4061,-1.4183,-1.4238,-1.4292,-1.4407,-1.4448,-1.4516,-1.4672,-1.455,-1.4475,-1.4631,-1.4679,-1.4699,-1.4699,-1.4828,-1.4828,-1.4584,-1.4665,-1.4801,-1.4957,-1.4889,-1.5045,-1.552,-1.533,-1.5092,-1.4848,-1.4841,-1.4767,-1.4611,-1.4584,-1.4523,-1.4428,-1.4394,-1.4258,-1.4021,-1.3722,-1.3614,0.0,0.0,0.0,0.0,0.0,0.0,0.0,0.0,0.0,0.0,0.0,-1.1185,0.0,0.0,-1.1579,-1.1803,-1.1965,-1.2088,-1.2169,-1.2305,-1.2372,-1.2298,-1.2352,-1.2427,-1.2494,-1.2501,-1.2501,-1.2501,-1.2569,-1.2651,-1.2725,-1.28,-1.2915,-1.3064,-1.3064,-1.3139,-1.3288,-1.3363,-1.3437,-1.3519,-1.3587,-1.362,-1.3627,-1.3702,-1.3736,-1.3736,-1.381,-1.3838,-1.3838,-1.3838,-1.3838,-1.3824,-1.3682,-1.362,-1.362,-1.362,-1.362,-1.3634,-1.3709,-1.3736,-1.3749,-1.3817,-1.3838,-1.3838,-1.3838,-1.3838,-1.3858,-1.3933,-1.3953,-1.3973,-1.4048,-1.4068,-1.4089,-1.417,-1.4238,-1.4312,-1.4387,-1.4468,-1.4543,-1.4611,-1.4624,-1.4672,-1.4828,-1.4794,-1.4767,-1.4841,-1.4855,-1.4882,-1.495,-1.5031,-1.5045,-1.497,-1.5031,-1.514,-1.5296,-1.5303,-1.5398,-1.5628,-1.5567,-1.5425,-1.5201,-1.5194,-1.5086,-1.4862,-1.4855,-1.478,-1.4624,-1.4624,-1.455,-1.4407,-1.4326,-1.4129,0.0,0.0,0.0,0.0,0.0,0.0,0.0,0.0,-1.1219,-1.128,-1.1294,-1.1375,-1.1653,-1.1708,-1.1796,-1.206,-1.221,-1.2298,-1.2325,-1.2427,-1.2461,-1.2345,-1.2433,-1.2501,-1.2501,-1.2528,-1.2549,-1.2549,-1.2691,-1.2786,-1.2813,-1.2935,-1.3071,-1.3214,-1.3214,-1.3288,-1.3444,-1.3566,-1.3641,-1.3675,-1.3783,-1.3838,-1.3844,-1.3871,-1.3885,-1.3885,-1.3919,-1.3933,-1.3933,-1.3933,-1.3933,-1.3933,-1.3933,-1.3933,-1.3919,-1.3865,-1.3838,-1.3844,-1.3871,-1.3885,-1.3892,-1.3919,-1.3933,-1.3933,-1.3933,-1.3933,-1.3953,-1.4082,-1.4116,-1.4143,-1.4272,-1.4319,-1.434,-1.434,-1.4448,-1.4557,-1.4557,-1.4652,-1.4746,-1.478,-1.4787,-1.4835,-1.4984,-1.5011,-1.5011,-1.5011,-1.5011,-1.5065,-1.5208,-1.5228,-1.5289,-1.5438,-1.5452,-1.5513,-1.5669,-1.571,-1.571,-1.5683,-1.5683,-1.5615,-1.5459,-1.5452,-1.533,-1.5065,-1.5059,-1.4964,-1.4787,-1.4787,-1.4767,-1.474,-1.474,-1.4482,-1.1518,-1.1443,0.0,-1.1355,-1.126,-1.1233,0.0,0.0,-1.1443,-1.1701,-1.1755,-1.1809,-1.1979,-1.2013,-1.2067,-1.2237,-1.2277,-1.2332,-1.2461,-1.2488,-1.2494,-1.2481,-1.2494,-1.2501,-1.2501,-1.2623,-1.2705,-1.2705,-1.2847,-1.299,-1.3119,-1.3139,-1.322,-1.337,-1.3376,-1.3451,-1.36,-1.362,-1.3695,-1.3817,-1.3831,-1.3838,-1.3844,-1.398,-1.4048,-1.4055,-1.419,-1.4251,-1.4251,-1.4251,-1.4251,-1.4251,-1.4251,-1.4251,-1.4217,-1.3939,-1.3838,-1.3858,-1.4,-1.4048,-1.4068,-1.4204,-1.4251,-1.4251,-1.4251,-1.4251,-1.4251,-1.4272,-1.4272,-1.4278,-1.4292,-1.4394,-1.4489,-1.4489,-1.4604,-1.4713,-1.4713,-1.4726,-1.478,-1.4916,-1.4943,-1.4991,-1.5133,-1.516,-1.516,-1.516,-1.516,-1.5215,-1.5364,-1.5384,-1.5445,-1.5594,-1.5615,-1.5669,-1.5818,-1.5954,-1.5974,-1.5839,-1.5832,-1.5764,-1.5622,-1.5615,-1.5533,-1.5364,-1.5364,-1.5221,-1.4943,-1.4943,-1.4875,-1.474,-1.474,-1.4706,-1.1552,0.0,0.0,0.0,-1.1477,-1.1484,-1.1694,-1.1694,-1.1708,-1.1925,-1.1965,-1.2013,-1.2169,-1.2196,-1.2244,0.0,-1.2413,-1.2433,-1.2494,-1.2501,-1.2501,-1.2501,-1.2583,-1.2637,-1.2637,-1.2691,-1.2766,-1.2861,-1.3003,-1.3112,-1.3166,-1.3342,-1.3464,-1.3532,-1.3614,-1.3688,-1.3749,-1.3844,-1.3919,-1.3973,-1.4068,-1.4109,-1.4109,-1.4177,-1.4204,-1.4211,-1.4272,-1.4299,-1.4299,-1.4299,-1.4299,-1.4299,-1.4299,-1.4299,-1.4285,-1.4156,-1.4109,-1.4116,-1.4183,-1.4204,-1.4217,-1.4278,-1.4299,-1.4299,-1.4299,-1.4299,-1.4319,-1.4401,-1.4421,-1.4441,-1.4529,-1.4597,-1.4645,-1.4645,-1.476,-1.4875,-1.4875,-1.4936,-1.5018,-1.5079,-1.5092,-1.5113,-1.5174,-1.5181,-1.5215,-1.5303,-1.5316,-1.5371,-1.552,-1.5547,-1.5601,-1.575,-1.5845,-1.592,-1.5981,-1.6042,-1.6056,-1.5988,-1.5988,-1.592,-1.5771,-1.5764,-1.5696,-1.5547,-1.5547,-1.5438,-1.5228,-1.5228,-1.5147,-1.4997,-1.4997,-1.4997,-1.1701,0.0,0.0,-1.1775,-1.1742,-1.1769,-1.187,-1.1898,-1.1938,-1.2094,-1.2128,-1.2169,-1.2318,-1.2345,-1.2379,-1.2488,-1.2501,-1.2501,-1.2501,-1.2501,-1.2515,-1.2562,-1.2664,-1.2759,-1.284,-1.2854,-1.2901,-1.301,-1.3152,-1.3254,-1.3295,-1.3505,-1.3648,-1.3688,-1.379,-1.3865,-1.3905,-1.4014,-1.4095,-1.4136,-1.4245,-1.4299,-1.4299,-1.4299,-1.4299,-1.4299,-1.4299,-1.4299,-1.4306,-1.434,-1.436,-1.436,-1.4407,-1.4421,-1.4421,-1.4421,-1.4394,-1.4367,-1.4407,-1.4421,-1.4421,-1.4421,-1.4421,-1.4421,-1.4421,-1.4421,-1.4441,-1.4543,-1.4577,-1.4597,-1.4713,-1.4774,-1.4801,-1.4801,-1.4916,-1.5031,-1.5031,-1.5113,-1.5181,-1.5181,-1.5215,-1.5248,-1.5248,-1.5282,-1.5357,-1.5513,-1.5533,-1.5574,-1.5683,-1.5737,-1.5798,-1.5906,-1.6015,-1.6083,-1.6083,-1.6083,-1.6083,-1.6083,-1.6083,-1.6035,-1.592,-1.592,-1.5845,-1.5703,-1.5696,-1.5622,-1.5472,-1.5472,-1.5398,-1.5248,-1.5248,-1.5221,-1.2121,0.0,-1.2237,-1.2088,-1.2047,-1.2047,-1.2054,-1.2054,-1.2101,-1.225,-1.2284,-1.2325,-1.2467,-1.2494,-1.2494,-1.2501,-1.2501,-1.2501,-1.2501,-1.2501,-1.2556,-1.2705,-1.2725,-1.284,0.0,-1.3159,-1.3159,-1.3166,-1.3308,-1.3458,-1.3607,-1.3627,-1.3695,-1.3831,-1.3838,-1.3912,-1.4061,-1.4068,-1.4143,-1.4292,-1.4299,-1.4299,-1.4299,-1.4299,-1.4299,-1.4299,-1.4299,-1.4299,-1.4312,-1.4448,-1.4502,-1.4523,-1.4665,-1.4726,-1.4726,-1.4726,-1.4631,-1.4523,-1.4672,-1.4726,-1.4726,-1.4726,-1.4726,-1.4726,-1.4726,-1.4726,-1.4726,-1.4733,-1.4733,-1.4733,-1.474,-1.4848,-1.4964,-1.4964,-1.5072,-1.5174,-1.5174,-1.5181,-1.5181,-1.5181,-1.5303,-1.5404,-1.5404,-1.5527,-1.5676,-1.5818,-1.5839,-1.5839,-1.5845,-1.5974,-1.6069,-1.6076,-1.6076,-1.6083,-1.6083,-1.6083,-1.6083,-1.6083,-1.6083,-1.6083,-1.6076,-1.6076,-1.6001,-1.5852,-1.5845,-1.5778,-1.5635,-1.5635,-1.5554,-1.5404,-1.5404,-1.5323,-1.221,0.0,-1.2128,-1.2074,-1.206,-1.2088,-1.2189,-1.221,-1.2257,-1.24,-1.2515,-1.2596,-1.2644,-1.2651,-1.2651,-1.2651,-1.2569,-1.2501,-1.2501,-1.2589,-1.2671,-1.2725,-1.2901,0.0,0.0,0.0,0.0,-1.3315,-1.3464,-1.3573,-1.3627,-1.3817,-1.3946,-1.3994,-1.4095,-1.417,-1.4224,-1.4224,-1.4251,-1.4299,-1.4299,-1.4346,-1.4441,-1.4441,-1.4496,-1.459,-1.459,-1.459,-1.4597,-1.4645,-1.4665,-1.4665,-1.4719,-1.474,-1.4753,-1.4855,-1.4862,-1.4808,-1.476,-1.474,-1.474,-1.474,-1.474,-1.474,-1.474,-1.474,-1.476,-1.4862,-1.4896,-1.4916,-1.5011,-1.5072,-1.5113,-1.5113,-1.5147,-1.5181,-1.5181,-1.5262,-1.5337,-1.5337,-1.5459,-1.556,-1.556,-1.5608,-1.5689,-1.5832,-1.594,-1.6001,-1.6001,-1.6049,-1.6083,-1.6083,-1.6083,-1.6083,-1.6083,-1.6083,-1.6083,-1.6083,-1.6083,-1.6083,-1.6083,-1.6083,-1.6056,-1.6008,-1.6001,-1.5934,-1.5784,-1.5784,-1.5703,-1.556,-1.556,-1.5533,-1.2277,-1.2257,-1.2216,-1.2216,-1.2216,-1.2244,-1.2345,-1.2366,-1.2393,-1.2481,-1.2583,-1.2664,-1.2718,-1.2684,-1.2698,-1.2861,-1.2766,-1.2684,-1.2732,-1.2827,-1.2888,-1.2888,-1.3057,0.0,0.0,0.0,0.0,-1.3471,-1.3573,-1.3675,-1.3783,-1.3966,-1.4095,-1.415,-1.4251,-1.4299,-1.4299,-1.4299,-1.4326,-1.4373,-1.4428,-1.4502,-1.459,-1.459,-1.4645,-1.474,-1.474,-1.474,-1.4746,-1.4801,-1.4821,-1.4828,-1.4875,-1.4896,-1.4909,-1.5011,-1.5045,-1.5031,-1.493,-1.4896,-1.4896,-1.4896,-1.4896,-1.4896,-1.4896,-1.4896,-1.4916,-1.5018,-1.5045,-1.5065,-1.516,-1.5181,-1.5181,-1.5181,-1.5221,-1.5262,-1.5262,-1.5384,-1.5493,-1.5493,-1.5615,-1.5716,-1.5716,-1.5764,-1.5832,-1.592,-1.6015,-1.6083,-1.6083,-1.6083,-1.6083,-1.6083,-1.6083,-1.6083,-1.6083,-1.6083,-1.6083,-1.6083,-1.6083,-1.6083,-1.6083,-1.6083,-1.6083,-1.6083,-1.6083,-1.6035,-1.5934,-1.5934,-1.5859,-1.5716,-1.5716,-1.5689,-1.2338,-1.24,-1.2501,-1.2501,-1.2501,-1.2501,-1.2501,-1.2501,-1.2501,-1.2501,-1.2508,-1.2556,0.0,0.0,-1.2651,-1.3078,-1.3037,-1.2996,-1.3132,-1.3166,-1.3173,0.0,0.0,0.0,0.0,0.0,0.0,-1.3648,0.0,-1.3777,-1.4055,-1.4082,-1.415,-1.4292,-1.4299,-1.4306,-1.4312,-1.4319,-1.4387,-1.4523,-1.4672,-1.4746,-1.4753,-1.4753,-1.4753,-1.476,-1.476,-1.476,-1.4774,-1.4923,-1.4984,-1.4997,-1.5126,-1.5181,-1.5181,-1.5181,-1.5181,-1.5181,-1.5181,-1.5181,-1.5181,-1.5181,-1.5181,-1.5181,-1.5181,-1.5181,-1.5181,-1.5181,-1.5181,-1.5181,-1.5194,-1.5194,-1.5194,-1.5201,-1.5316,-1.5425,-1.5425,-1.554,-1.5649,-1.5649,-1.5764,-1.5866,-1.5866,-1.5988,-1.6083,-1.6083,-1.6083,-1.6083,-1.6083,-1.6083,-1.6083,-1.6083,-1.6083,-1.6083,-1.6083,-1.6083,-1.6083,-1.6083,-1.6083,-1.6083,-1.6083,-1.6083,-1.6083,-1.6083,-1.6083,-1.6083,-1.6083,-1.6083,-1.6008,-1.5866,-1.5866,-1.5791,-1.2427,-1.2474,-1.2501,-1.2501,-1.2501,-1.2501,-1.2501,-1.2501,-1.2501,-1.2501,-1.2589,-1.2684,0.0,0.0,0.0,-1.2827,-1.2813,0.0,-1.284,-1.303,0.0,-1.3173,0.0,-1.3403,-1.3553,-1.3607,0.0,0.0,-1.396,-1.3994,-1.4068,-1.4183,-1.4258,-1.4299,-1.4299,-1.4353,-1.4455,-1.457,-1.4645,-1.4679,-1.4719,-1.4801,-1.4909,-1.4909,-1.497,-1.5072,-1.5072,-1.5072,-1.5072,-1.5113,-1.5126,-1.5133,-1.5167,-1.5181,-1.5181,-1.5181,-1.5181,-1.5181,-1.5181,-1.5181,-1.5181,-1.5181,-1.5181,-1.5181,-1.5181,-1.5181,-1.5181,-1.5181,-1.5181,-1.5208,-1.5323,-1.535,-1.5377,-1.5493,-1.5554,-1.5581,-1.5581,-1.5696,-1.5798,-1.5798,-1.592,-1.6022,-1.6022,-1.6056,-1.6083,-1.6083,-1.6083,-1.6083,-1.6083,-1.6083,-1.6083,-1.6083,-1.6083,-1.6083,-1.6083,-1.6083,-1.6083,-1.6083,-1.6083,-1.6083,-1.6083,-1.6083,-1.6083,-1.6083,-1.6083,-1.6083,-1.6083,-1.6083,-1.6062,-1.6022,-1.6022,-1.6001,-1.2481,-1.2501,-1.2501,-1.2501,-1.2501,-1.2522,-1.2583,-1.2603,-1.2603,-1.2603,-1.2725,0.0,0.0,0.0,0.0,0.0,0.0,0.0,-1.3105,-1.3268,-1.3349,0.0,-1.341,0.0,-1.362,-1.3749,-1.3892,0.0,-1.4075,-1.4102,-1.417,-1.4251,-1.4299,-1.4299,-1.436,-1.4462,-1.4611,-1.4767,-1.4841,-1.4841,-1.4903,-1.4977,-1.5065,-1.5065,-1.5106,-1.5181,0.0,-1.5181,-1.5187,-1.5255,-1.5323,-1.5384,-1.5384,-1.5466,-1.5567,-1.5499,-1.552,-1.5567,-1.5499,-1.552,-1.5533,-1.5269,-1.5181,-1.5194,-1.5262,-1.5282,-1.5296,-1.5364,-1.5384,-1.5404,-1.5486,-1.5513,-1.5533,-1.5615,-1.5689,-1.5737,-1.5737,-1.5852,-1.5954,-1.5954,-1.6022,-1.6083,-1.6083,-1.6083,-1.6083,-1.6083,-1.6083,-1.6083,-1.6083,-1.6083,-1.6083,-1.6083,-1.6083,-1.6083,-1.6083,-1.6083,-1.6083,-1.6083,-1.6083,-1.6083,-1.6083,-1.6083,-1.6083,-1.6083,-1.6083,-1.6083,-1.6083,-1.6083,-1.6083,-1.6083,-1.6083,-1.6083,-1.2501,-1.2501,-1.2501,-1.2501,-1.2501,-1.2542,-1.2698,-1.2712,-1.2705,-1.2725,0.0,-1.2868,-1.2752,-1.2732,-1.2861,-1.3275,0.0,-1.3268,-1.3532,-1.3587,-1.3559,-1.3444,-1.3546,-1.3648,-1.3682,-1.3919,-1.4082,-1.4102,-1.4102,-1.4156,-1.4292,-1.4319,-1.434,-1.436,-1.4496,-1.4638,-1.4767,-1.4923,-1.4997,-1.5004,-1.5126,-1.5181,-1.5181,-1.5181,-1.5181,-1.5181,0.0,0.0,-1.5194,-1.5371,-1.5506,-1.5615,-1.5676,-1.5845,-1.6035,-1.5927,-1.5967,-1.6062,-1.5927,-1.5967,-1.5988,-1.5425,-1.5255,-1.5296,-1.5404,-1.5438,-1.5466,-1.5601,-1.5642,-1.5642,-1.5662,-1.5669,-1.5676,-1.5689,-1.5791,-1.5886,-1.5886,-1.5988,-1.6083,-1.6083,-1.6083,-1.6083,-1.6083,-1.6083,-1.6083,-1.6083,-1.6083,-1.6083,-1.6083,-1.6083,-1.6083,-1.6083,-1.6083,-1.6083,-1.6083,-1.6083,-1.6083,-1.6083,-1.6083,-1.6083,-1.6083,-1.6083,-1.6083,-1.6083,-1.6083,-1.6083,-1.6083,-1.6083,-1.6083,-1.6083,-1.6083,-1.6083,-1.2501,-1.2501,-1.2501,-1.2501,-1.2501,-1.2542,-1.2698,-1.263,0.0,0.0,-1.2651,-1.261,-1.2712,-1.2732,-1.28,-1.3003,0.0,0.0,0.0,0.0,-1.3478,0.0,0.0,0.0,0.0,0.0,0.0,0.0,0.0,0.0,-1.4299,-1.4414,-1.4529,-1.4658,-1.4814,-1.4903,-1.493,-1.5072,-1.5147,-1.5147,-1.5167,-1.5181,-1.5181,-1.5181,-1.5181,-1.5181,0.0,0.0,-1.5201,-1.5486,-1.554,-1.5486,-1.5859,-1.5961,-1.5906,-1.6001,-1.6056,-1.6076,-1.6049,-1.6056,-1.6022,-1.5676,-1.5642,-1.5723,-1.5628,-1.5601,-1.5608,-1.5635,-1.5642,-1.5669,-1.5784,-1.5818,-1.5845,-1.5974,-1.6022,-1.6042,-1.6042,-1.6062,-1.6083,-1.6083,-1.6083,-1.6083,-1.6083,-1.6083,-1.6083,-1.6083,-1.6083,-1.6083,-1.6083,-1.6083,-1.6083,-1.6083,-1.6083,-1.6083,-1.6083,-1.6083,-1.6083,-1.6083,-1.6083,-1.6083,-1.6083,-1.6083,-1.6083,-1.6083,-1.6083,-1.6083,-1.6083,-1.6083,-1.6083,-1.6083,-1.6083,-1.6083,-1.2501,-1.2501,-1.2501,-1.2501,-1.2501,-1.2542,-1.2698,0.0,0.0,0.0,-1.2739,-1.2712,-1.2623,-1.2678,0.0,-1.2935,0.0,0.0,0.0,0.0,0.0,0.0,0.0,0.0,0.0,0.0,0.0,0.0,0.0,0.0,-1.4407,-1.455,-1.4699,-1.4855,-1.493,-1.5004,-1.5079,-1.5147,-1.5181,-1.5181,-1.5181,-1.5181,-1.5181,-1.5181,-1.5228,-1.5303,-1.5303,0.0,-1.5438,-1.5662,-1.5798,-1.59,-1.6117,-1.63,-1.6442,-1.6429,-1.6476,-1.6537,-1.6456,-1.6483,-1.6497,-1.6198,-1.6042,-1.5974,-1.5988,-1.5988,-1.6001,-1.6076,-1.6042,-1.6001,-1.6069,-1.6035,-1.5988,-1.6062,-1.6083,-1.6083,-1.6083,-1.6083,-1.6083,-1.6083,-1.6083,-1.6083,-1.6083,-1.6083,-1.6083,-1.6083,-1.6083,-1.6083,-1.6083,-1.6083,-1.6083,-1.6083,-1.6083,-1.6083,-1.6083,-1.6083,-1.6083,-1.6083,-1.6083,-1.6083,-1.6083,-1.6083,-1.6083,-1.6083,-1.6083,-1.6083,-1.6083,-1.6083,-1.6083,-1.6083,-1.6083,-1.6083,-1.2501,-1.2501,-1.2501,-1.2501,-1.2501,-1.2542,-1.2698,-1.2705,0.0,-1.2725,-1.28,-1.28,-1.2589,-1.2678,-1.2827,0.0,-1.3064,-1.3173,-1.337,0.0,0.0,0.0,0.0,0.0,0.0,0.0,0.0,0.0,0.0,0.0,-1.4611,-1.4726,-1.4862,-1.5011,-1.5018,-1.5072,-1.5181,-1.5181,-1.5181,-1.5181,-1.5181,-1.5201,-1.5228,-1.5228,-1.5316,-1.5459,-1.5459,0.0,0.0,-1.5832,-1.6042,-1.6273,-1.6368,-1.6619,-1.6917,-1.6829,-1.6876,-1.6965,-1.6842,-1.6876,-1.6937,-1.67,-1.6442,-1.6239,-1.6327,-1.6354,-1.6381,-1.649,-1.6422,-1.6307,-1.6307,-1.6198,-1.6083,-1.6083,-1.6083,-1.6083,-1.6083,-1.6083,-1.6083,-1.6083,-1.6083,-1.6083,-1.6083,-1.6083,-1.6083,-1.6083,-1.6083,-1.6083,-1.6083,-1.6083,-1.6096,-1.613,-1.6103,-1.6083,-1.6083,-1.6083,-1.6083,-1.6083,-1.6083,-1.6083,-1.6083,-1.6083,-1.6083,-1.6083,-1.6083,-1.6083,-1.6083,-1.6083,-1.6083,-1.6083,-1.6083,-1.6083,-1.2501,-1.2501,-1.2501,-1.2501,-1.2501,-1.2542,-1.2698,0.0,-1.2562,-1.2705,-1.263,-1.2576,-1.2684,-1.2834,-1.299,-1.3132,-1.339,-1.3532,-1.3417,-1.3641,-1.3824,-1.3824,0.0,0.0,0.0,0.0,0.0,0.0,0.0,0.0,0.0,-1.4943,-1.5018,-1.516,-1.516,-1.5167,-1.5181,-1.5181,-1.5181,-1.5181,-1.5181,-1.5255,-1.5391,-1.5391,-1.5472,-1.5615,0.0,0.0,0.0,-1.594,-1.6076,-1.6144,-1.6551,-1.6734,-1.6788,-1.691,-1.6971,-1.6978,-1.6965,-1.6971,-1.6978,-1.6944,-1.6822,-1.6666,-1.6537,-1.6503,-1.6503,-1.6517,-1.6422,-1.6307,-1.6307,-1.6198,-1.6083,-1.6083,-1.6083,-1.6083,-1.6083,-1.6083,-1.6083,-1.6083,-1.6083,-1.6083,-1.6083,-1.6083,-1.6083,-1.6083,-1.6083,-1.6083,-1.6083,-1.6083,-1.6137,-1.6273,-1.6164,-1.6083,-1.6083,-1.6083,-1.6083,-1.6083,-1.6083,-1.6083,-1.6083,-1.6083,-1.6083,-1.6083,-1.6083,-1.6083,-1.6083,-1.6083,-1.6083,-1.6083,-1.6083,-1.6083,-1.2501,-1.2501,-1.2501,-1.2501,-1.2569,-1.263,-1.2603,0.0,-1.263,-1.2596,-1.2542,-1.2549,-1.2705,-1.2705,-1.282,-1.3241,-1.3336,-1.3431,-1.3634,-1.3926,-1.4082,-1.3987,0.0,0.0,0.0,0.0,0.0,0.0,0.0,0.0,0.0,-1.5099,-1.5126,-1.5181,-1.5181,-1.5181,-1.5181,-1.5181,-1.5181,-1.5181,-1.5276,-1.535,-1.5411,-1.5506,-1.5628,-1.5771,0.0,0.0,0.0,-1.6029,-1.6137,-1.6246,-1.651,-1.6666,-1.6768,-1.6944,-1.7012,-1.7012,-1.7012,-1.7012,-1.7005,-1.6985,-1.6876,-1.6754,-1.6788,-1.6795,-1.6795,-1.6795,-1.6693,-1.6571,-1.6571,-1.6395,-1.6218,-1.6218,-1.6151,-1.6083,-1.6083,-1.6083,-1.6083,-1.6083,-1.6083,-1.6083,-1.6083,-1.6083,-1.6083,-1.6083,-1.6083,-1.6117,-1.6205,-1.6218,-1.6273,-1.6422,-1.6225,-1.6117,-1.6212,-1.6137,-1.6083,-1.6083,-1.6083,-1.6083,-1.6083,-1.6083,-1.6083,-1.6083,-1.6083,-1.6083,-1.6083,-1.6083,-1.6083,-1.6083,-1.6083,-1.6083,-1.2556,-1.2535,-1.2501,-1.2501,-1.2617,-1.2691,-1.2535,-1.2617,-1.2698,-1.2589,-1.2535,-1.2549,-1.2705,-1.2678,-1.2779,-1.32,-1.3329,-1.3464,-1.3743,-1.4116,-1.4306,0.0,0.0,0.0,0.0,0.0,0.0,0.0,0.0,0.0,0.0,-1.5181,-1.5181,-1.5181,-1.5181,-1.5181,-1.5181,-1.5228,-1.5248,-1.5248,-1.5404,-1.5499,-1.5547,-1.5655,-1.5784,-1.592,0.0,0.0,0.0,-1.613,-1.6232,-1.6205,-1.6266,-1.6585,-1.6748,-1.6924,-1.5908,-1.4406,-1.444,-1.5537,-1.7046,-1.7026,-1.6944,-1.6876,-1.6768,-1.6965,-1.6917,-1.6931,-1.6809,-1.6673,-1.6632,-1.6463,-1.6307,-1.6307,-1.6191,-1.6083,-1.6083,-1.6083,-1.6083,-1.6083,-1.6083,-1.6083,-1.6083,-1.6083,-1.6083,-1.6083,-1.6083,-1.6137,-1.6293,-1.632,-1.6395,-1.6592,-1.6381,-1.6273,-1.6368,-1.6273,-1.6212,-1.6212,-1.6212,-1.6191,-1.6151,-1.6151,-1.613,-1.6083,-1.6083,-1.6083,-1.6083,-1.6083,-1.6083,-1.6083,-1.6083,-1.6083,-1.2684,-1.2617,-1.2501,-1.2501,-1.2617,-1.2691,-1.2535,-1.2617,-1.2732,-1.2725,-1.261,-1.2549,-1.2705,-1.2854,-1.2956,-1.2963,-1.3451,-1.3783,-1.3648,-1.4136,-1.4455,0.0,0.0,0.0,0.0,0.0,0.0,0.0,0.0,0.0,0.0,-1.5181,-1.5181,-1.5181,-1.5181,-1.5181,-1.5181,-1.5337,-1.5411,-1.5411,-1.556,-1.571,-1.5845,-1.5852,-1.5934,0.0,0.0,0.0,0.0,-1.6045,-1.6165,-1.6201,-1.6068,-1.6517,-1.7085,-1.703,-1.345,-0.8594,-0.8671,-1.2339,-1.71,-1.71,-1.71,-1.6882,-1.6664,-1.6512,-1.6761,-1.6601,-1.668,-1.649,-1.6347,-1.6313,-1.6307,-1.6307,-1.6191,-1.6083,-1.6083,-1.6083,-1.6083,-1.6083,-1.6083,-1.6083,-1.6083,-1.6083,-1.6083,-1.6083,-1.6083,-1.6137,-1.6293,-1.6132,-1.6272,-1.6574,-1.668,-1.6571,-1.6524,-1.6517,-1.6517,-1.6517,-1.6517,-1.6456,-1.6313,-1.6307,-1.6239,-1.6083,-1.6083,-1.6083,-1.6083,-1.6083,-1.6083,-1.6083,-1.6083,-1.6083,-1.2589,-1.2617,-1.2657,-1.2657,-1.2773,-1.2847,-1.2691,-1.2779,-1.2827,-1.2617,-1.2617,-1.2705,-1.2861,-1.2929,-1.3132,-1.3641,-1.379,-1.3966,-1.4333,-1.455,0.0,-1.4462,0.0,0.0,0.0,0.0,0.0,0.0,0.0,0.0,0.0,-1.5181,-1.5181,-1.5181,-1.5181,-1.5235,-1.5337,-1.5384,-1.5466,-1.5567,-1.5716,-1.5811,-1.5859,-1.5988,0.0,0.0,0.0,0.0,0.0,-1.0551,-1.0569,-1.0573,-1.0466,-1.0692,-1.1316,-1.5431,-1.5927,-1.3289,-0.5294,-0.6377,-1.1294,-1.1271,-1.1217,-1.1806,-1.5691,-1.503,-1.3493,-1.6191,-1.6781,-1.6513,-1.679,-1.6653,-1.6556,-1.6347,-1.6212,-1.6083,-1.6083,-1.6083,-1.6083,-1.6083,-1.6083,-1.6083,-1.6083,-1.6083,-1.6083,-1.6083,-1.6185,-1.6125,-1.6272,-1.6413,-1.5081,-1.1405,-1.1176,-1.2609,-1.6527,-1.6605,-1.6524,-1.6524,-1.6524,-1.6503,-1.6456,-1.6456,-1.6388,-1.6239,-1.6239,-1.6185,-1.6083,-1.6083,-1.6083,-1.6083,-1.6083,-1.6137,-1.2617,-1.2617,-1.2657,-1.2718,-1.28,-1.2847,-1.2752,-1.2807,-1.282,-1.2623,-1.2617,-1.2712,-1.2922,-1.2963,-1.3132,-1.3648,-1.3797,-1.3973,-1.4346,-1.4543,0.0,-1.4685,0.0,0.0,0.0,0.0,0.0,0.0,0.0,0.0,0.0,-1.5235,-1.5269,-1.5269,-1.5269,-1.5343,-1.5493,-1.5547,-1.5628,-1.5723,-1.5879,-1.5961,-1.5961,-1.6096,0.0,0.0,0.0,0.0,0.0,-0.6696,-0.5068,-0.5062,-0.4896,-0.4906,-0.5526,-0.9225,-1.0559,-0.9492,-0.2546,-0.2341,-0.5747,-0.7843,-0.99,-1.1938,-1.322,-1.3461,-1.3461,-1.3794,-1.3576,-1.3363,-1.3498,-1.3581,-1.41,-1.5969,-1.6252,-1.6123,-1.6123,-1.6123,-1.6123,-1.6123,-1.6123,-1.6123,-1.6123,-1.6171,-1.6011,-1.6011,-1.6152,-1.5475,-1.3504,-1.5106,-1.5234,-1.2132,-0.9784,-1.0826,-1.6531,-1.6822,-1.6734,-1.6714,-1.6714,-1.668,-1.6612,-1.6605,-1.6537,-1.6395,-1.6388,-1.632,-1.6171,-1.611,-1.6083,-1.6083,-1.6083,-1.613,0.0,-1.2617,-1.2556,-1.2698,-1.2732,-1.2732,-1.2732,-1.2732,0.0,-1.2718,-1.261,-1.261,-1.2922,-1.2976,-1.303,-1.3207,-1.3587,-1.3865,-1.3885,-1.4258,0.0,0.0,0.0,0.0,0.0,0.0,0.0,0.0,0.0,0.0,0.0,-1.5343,-1.5432,-1.5445,-1.5445,-1.5513,-1.5655,-1.5791,-1.5866,-1.5879,-1.6056,-1.5931,-1.5525,-1.5978,0.0,0.0,0.0,0.0,0.0,-0.4057,0.0,0.0,0.0,0.0,0.0,0.0,0.0,0.0,0.0,0.0,-0.0851,-0.6125,-1.1554,-1.4843,-0.9128,-1.1428,-1.4801,-1.0342,-0.8259,-0.7432,-0.7423,-0.7585,-0.9181,-1.413,-1.548,-1.5583,-1.5583,-1.5583,-1.5583,-1.5583,-1.5583,-1.5583,-1.5596,-1.5505,-1.5596,-1.5609,-1.5949,-1.418,-0.9206,-1.2216,-1.5072,-1.5636,-1.1099,-1.0024,-1.543,-1.6253,-1.6432,-1.6387,-1.6822,-1.6958,-1.6781,-1.6775,-1.67,-1.6551,-1.653,-1.6463,-1.6327,-1.6171,-1.6096,-1.6096,-1.609,-1.6083,-1.2556,0.0,-1.2684,-1.2718,-1.2732,-1.2732,0.0,-1.2732,-1.2698,-1.2576,-1.2617,-1.2766,-1.3071,-1.3125,-1.3288,-1.3783,-1.3946,-1.4095,-1.4326,-1.4543,0.0,-1.495,0.0,0.0,0.0,0.0,0.0,0.0,0.0,0.0,0.0,-1.5499,-1.5635,-1.5744,-1.5784,-1.5798,-1.5805,-1.5872,-1.5961,-1.6069,-1.6151,-1.3925,-1.0053,-1.4166,0.0,0.0,0.0,0.0,-0.3648,-0.1019,0.0,0.0,0.0,0.0,0.0,0.0,0.0,0.0,0.0,0.0,-0.0211,-0.1463,-0.29,-0.3701,-0.2259,-0.2889,-0.5597,-1.2995,-0.8668,-0.186,-0.1834,-0.2034,-0.2238,-0.3638,-0.705,-0.9861,-0.9861,-0.9861,-0.9861,-0.9861,-0.9861,-0.9886,-0.9957,-0.9986,-0.982,-0.9889,-1.3363,-1.5603,-1.4342,-0.8041,-0.3826,-0.4048,-0.2769,-0.2556,-0.3835,-0.808,-1.0407,-1.0399,-1.4486,-1.7066,-1.7019,-1.7019,-1.6944,-1.6795,-1.6653,-1.6558,-1.6319,-1.6341,-1.6252,-1.6252,-1.6137,-1.6083,-1.2501,-1.2562,-1.2644,-1.2712,-1.2678,-1.2644,-1.2712,-1.2678,-1.2603,-1.2522,-1.2569,-1.2718,-1.3017,-1.3125,-1.3329,-1.379,-1.398,-1.4197,-1.4563,-1.4869,-1.5052,-1.5065,0.0,0.0,0.0,0.0,0.0,0.0,0.0,0.0,0.0,-1.5676,-1.5805,-1.5879,-1.5988,-1.6029,-1.5981,-1.6029,-1.4657,-1.2479,-1.4969,-1.458,-1.1708,-0.9697,-0.869,0.0,0.0,0.0,0.0,0.0,0.0,0.0,0.0,0.0,0.0,0.0,0.0,0.0,0.0,0.0,0.0,0.0,0.0,0.0,0.0,0.0,-0.1244,-0.7395,-0.4728,0.0,0.0,0.0,0.0,0.0,-0.223,-0.4251,-0.4233,-0.4429,-0.4235,-0.4252,-0.4256,-0.4269,-0.4308,-0.4329,-0.4349,-0.4371,-0.673,-0.8685,-0.8685,-0.3612,0.0,0.0,0.0,0.0,0.0,-0.2765,-0.4672,-0.4668,-1.0,-1.3005,-1.3201,-1.3201,-1.3169,-1.3106,-1.2974,-1.4175,-1.672,-1.6551,-1.6456,-1.6435,-1.6354,-1.6266,-1.2528,-1.2535,-1.2562,-1.2671,-1.2596,-1.2535,-1.2664,-1.2596,-1.2501,-1.2501,-1.2522,-1.2637,-1.2969,-1.3146,-1.3349,-1.3682,-1.396,-1.4272,-1.4652,-1.5072,-1.5303,-1.5194,0.0,0.0,0.0,0.0,0.0,0.0,0.0,0.0,0.0,-1.5859,-1.5552,-1.4546,-1.5512,-1.6191,-1.6151,-1.6191,-1.3742,-0.926,-1.2135,-1.3587,-1.338,-0.424,0.0,0.0,0.0,0.0,0.0,0.0,0.0,0.0,0.0,0.0,0.0,0.0,0.0,0.0,0.0,0.0,0.0,0.0,0.0,0.0,0.0,0.0,0.0,0.0,0.0,0.0,0.0,0.0,0.0,0.0,0.0,0.0,0.0,0.0,0.0,0.0,0.0,0.0,0.0,0.0,0.0,0.0,0.0,0.0,0.0,0.0,0.0,0.0,0.0,0.0,0.0,0.0,0.0,0.0,-0.4467,-0.7234,-0.7217,-0.7217,-0.7217,-0.7217,-0.7159,-0.9663,-1.4342,-1.5063,-1.519,-1.5153,-1.6001,-1.6339,-1.2657,-1.2698,-1.2671,-1.2562,-1.2522,-1.2508,-1.2528,-1.2522,-1.2501,-1.2501,-1.2603,-1.2827,-1.3254,-1.3458,-1.3695,-1.4129,-1.4333,-1.4468,0.0,0.0,-1.5072,0.0,0.0,0.0,0.0,0.0,0.0,0.0,0.0,0.0,0.0,0.0,-1.3901,-0.9428,-1.3747,-1.6038,-1.6031,-1.6038,-1.5629,-1.48,-0.6463,-0.2423,-0.2423,-0.0808,0.0,0.0,0.0,0.0,0.0,0.0,0.0,0.0,0.0,0.0,0.0,0.0,0.0,0.0,0.0,0.0,0.0,0.0,0.0,0.0,0.0,0.0,0.0,0.0,0.0,0.0,0.0,0.0,0.0,0.0,0.0,0.0,0.0,0.0,0.0,0.0,0.0,0.0,0.0,0.0,0.0,0.0,0.0,0.0,0.0,0.0,0.0,0.0,0.0,0.0,0.0,0.0,0.0,0.0,-0.0852,-0.1278,-0.1278,-0.1278,-0.1278,-0.1278,-0.1274,-0.1695,-0.2544,-0.7348,-0.9824,-0.9824,-1.4279,-1.6406,-1.2589,-1.261,-1.261,-1.2623,-1.2691,-1.2752,-1.2752,-1.2752,-1.2773,-1.2847,-1.2922,-1.3085,-1.3458,-1.3648,-1.3892,-1.434,0.0,-1.4787,0.0,0.0,0.0,0.0,0.0,0.0,0.0,0.0,0.0,0.0,0.0,0.0,0.0,0.0,-1.4994,-1.2526,-1.4824,-1.6091,-1.6091,-1.0327,-0.7478,-0.7273,-0.2423,0.0,0.0,0.0,0.0,0.0,0.0,0.0,0.0,0.0,0.0,0.0,0.0,0.0,0.0,0.0,0.0,0.0,0.0,0.0,0.0,0.0,0.0,0.0,0.0,0.0,0.0,0.0,0.0,0.0,0.0,0.0,0.0,0.0,0.0,0.0,0.0,0.0,0.0,0.0,0.0,0.0,0.0,0.0,0.0,0.0,0.0,0.0,0.0,0.0,0.0,0.0,0.0,0.0,0.0,0.0,0.0,0.0,0.0,0.0,0.0,0.0,0.0,0.0,0.0,0.0,-0.0,-0.2541,-0.4011,-0.4008,-0.6336,-0.93,-1.2549,-1.2556,-1.2589,-1.2745,-1.282,-1.2881,-1.2983,-1.2983,-1.301,-1.3193,-1.3254,-1.337,-1.3675,-1.3905,-1.4177,-1.457,-1.4828,0.0,0.0,0.0,0.0,0.0,0.0,0.0,0.0,0.0,0.0,0.0,0.0,0.0,0.0,0.0,-1.2357,-1.2357,-1.2383,-1.2393,-1.2393,-0.4043,0.0,0.0,0.0,0.0,0.0,0.0,0.0,0.0,0.0,0.0,0.0,0.0,0.0,0.0,0.0,0.0,0.0,0.0,0.0,0.0,0.0,0.0,0.0,0.0,0.0,0.0,0.0,0.0,0.0,0.0,0.0,0.0,0.0,0.0,0.0,0.0,0.0,0.0,0.0,0.0,0.0,0.0,0.0,0.0,0.0,0.0,0.0,0.0,0.0,0.0,0.0,0.0,0.0,0.0,0.0,0.0,0.0,0.0,0.0,0.0,0.0,0.0,0.0,0.0,0.0,0.0,0.0,0.0,0.0,0.0,0.0,0.0,0.0,-0.2344,-1.2678,-1.2712,-1.2752,-1.2908,-1.2739,-1.2644,-1.3064,-1.3057,-1.3044,-1.3322,-1.3498,-1.3688,-1.3987,-1.4387,-1.474,-1.4765,-1.4819,0.0,0.0,0.0,0.0,0.0,0.0,0.0,0.0,0.0,0.0,0.0,0.0,0.0,0.0,0.0,0.0,-0.1212,-0.1212,-0.1212,-0.1212,-0.0404,0.0,0.0,0.0,0.0,0.0,0.0,0.0,0.0,0.0,0.0,0.0,0.0,0.0,0.0,0.0,0.0,0.0,0.0,0.0,0.0,0.0,0.0,0.0,0.0,0.0,0.0,0.0,0.0,0.0,0.0,0.0,0.0,0.0,0.0,0.0,0.0,0.0,0.0,0.0,0.0,0.0,0.0,0.0,0.0,0.0,0.0,0.0,0.0,0.0,0.0,0.0,0.0,0.0,0.0,0.0,0.0,0.0,0.0,0.0,0.0,0.0,0.0,0.0,0.0,0.0,0.0,0.0,0.0,0.0,0.0,0.0,0.0,0.0,-0.0216,-1.2637,-1.2621,-1.2609,-1.2668,-1.2668,-1.2708,-1.3261,-1.3349,-1.3485,-1.3878,-1.3933,-1.3994,-1.4292,-1.4323,-1.4537,-1.4792,0.0,0.0,0.0,0.0,0.0,0.0,0.0,0.0,0.0,0.0,0.0,0.0,0.0,0.0,0.0,0.0,0.0,0.0,0.0,0.0,0.0,0.0,0.0,0.0,0.0,0.0,0.0,0.0,0.0,0.0,0.0,0.0,0.0,0.0,0.0,0.0,0.0,0.0,0.0,0.0,0.0,0.0,0.0,0.0,0.0,0.0,0.0,0.0,0.0,0.0,0.0,0.0,0.0,0.0,0.0,0.0,0.0,0.0,0.0,0.0,0.0,0.0,0.0,0.0,0.0,0.0,0.0,0.0,0.0,0.0,0.0,0.0,0.0,0.0,0.0,0.0,0.0,0.0,0.0,0.0,0.0,0.0,0.0,0.0,0.0,0.0,0.0,0.0,0.0,0.0,0.0,0.0,0.0,0.0,0.0,0.0,-1.0482,-1.0599,-1.0583,-1.0498,-1.0547,-1.0623,-1.1126,-1.2408,-1.3619,-1.4238,-1.4142,-1.4196,-1.4397,-1.4497,0.0,0.0,0.0,0.0,0.0,0.0,0.0,0.0,0.0,0.0,0.0,0.0,0.0,0.0,0.0,0.0,0.0,0.0,0.0,0.0,0.0,0.0,0.0,0.0,0.0,0.0,0.0,0.0,0.0,0.0,0.0,0.0,0.0,0.0,0.0,0.0,0.0,0.0,0.0,0.0,0.0,0.0,0.0,0.0,0.0,0.0,0.0,0.0,0.0,0.0,0.0,0.0,0.0,0.0,0.0,0.0,0.0,0.0,0.0,0.0,0.0,0.0,0.0,0.0,0.0,0.0,0.0,0.0,0.0,0.0,0.0,0.0,0.0,0.0,0.0,0.0,0.0,0.0,0.0,0.0,0.0,0.0,0.0,0.0,0.0,0.0,0.0,0.0,0.0,0.0,0.0,0.0,0.0,0.0,0.0,0.0,0.0,0.0,-0.6311,-0.6311,-0.6185,-0.6327,-0.6314,-0.6317,-0.6359,-0.9992,-1.3515,-1.4135,-1.4269,-1.4277,-1.4277,-1.4785,0.0,0.0,0.0,0.0,0.0,0.0,0.0,0.0,0.0,0.0,0.0,0.0,0.0,0.0,0.0,0.0,0.0,0.0,0.0,0.0,0.0,0.0,0.0,0.0,0.0,0.0,0.0,0.0,0.0,0.0,0.0,0.0,0.0,0.0,0.0,0.0,0.0,0.0,0.0,0.0,0.0,0.0,0.0,0.0,0.0,0.0,0.0,0.0,0.0,0.0,0.0,0.0,0.0,0.0,0.0,0.0,0.0,0.0,0.0,0.0,0.0,0.0,0.0,0.0,0.0,0.0,0.0,0.0,0.0,0.0,0.0,0.0,0.0,0.0,0.0,0.0,0.0,0.0,0.0,0.0,0.0,0.0,0.0,0.0,0.0,0.0,0.0,0.0,0.0,0.0,0.0,0.0,0.0,0.0,0.0,0.0,0.0,0.0,-0.1905,-0.1948,-0.2662,-0.549,-0.6287,-0.6432,-0.6495,-0.7754,-0.8707,-0.9105,-0.9373,-0.9429,-0.9309,0.0,0.0,0.0,0.0,0.0,0.0,0.0,0.0,0.0,0.0,0.0,0.0,0.0,0.0,0.0,0.0,0.0,0.0,0.0,0.0,0.0,0.0,0.0,0.0,0.0,0.0,0.0,0.0,0.0,0.0,0.0,0.0,0.0,0.0,0.0,0.0,0.0,0.0,0.0,0.0,0.0,0.0,0.0,0.0,0.0,0.0,0.0,0.0,0.0,0.0,0.0,0.0,0.0,0.0,0.0,0.0,0.0,0.0,0.0,0.0,0.0,0.0,0.0,0.0,0.0,0.0,0.0,0.0,0.0,0.0,0.0,0.0,0.0,0.0,0.0,0.0,0.0,0.0,0.0,0.0,0.0,0.0,0.0,0.0,0.0,0.0,0.0,0.0,0.0,0.0,0.0,0.0,0.0,0.0,0.0,0.0,0.0,0.0,0.0,0.0,0.0,-0.0683,-0.3081,-0.3818,-0.3883,-0.3951,-0.3964,-0.4161,-0.4232,-0.4442,-0.4463,-0.4303,0.0,0.0,0.0,0.0,0.0,0.0,0.0,0.0,0.0,0.0,0.0,0.0,0.0,0.0,0.0,0.0,0.0,0.0,0.0,0.0,0.0,0.0,0.0,0.0,0.0,0.0,0.0,0.0,0.0,0.0,0.0,0.0,0.0,0.0,0.0,0.0,0.0,0.0,0.0,0.0,0.0,0.0,0.0,0.0,0.0,0.0,0.0,0.0,0.0,0.0,0.0,0.0,0.0,0.0,0.0,0.0,0.0,0.0,0.0,0.0,0.0,0.0,0.0,0.0,0.0,0.0,0.0,0.0,0.0,0.0,0.0,0.0,0.0,0.0,0.0,0.0,0.0,0.0,0.0,0.0,0.0,0.0,0.0,0.0,0.0,0.0,0.0,0.0,0.0,0.0,0.0,0.0,0.0,0.0,0.0,0.0,0.0,0.0,0.0,0.0,0.0,0.0,0.0,0.0,0.0,0.0,0.0,0.0,0.0,0.0,0.0,0.0,0.0,0.0,0.0,0.0,0.0,0.0,0.0,0.0,0.0,0.0,0.0,0.0,0.0,0.0,0.0,0.0,0.0,0.0,0.0,0.0,0.0,0.0,0.0,0.0,0.0,0.0,0.0,0.0,0.0,0.0,0.0,0.0,0.0,0.0,0.0,0.0,0.0,0.0,0.0,0.0,0.0,0.0,0.0,0.0,0.0,0.0,0.0,0.0,0.0,0.0,0.0,0.0,0.0,0.0,0.0,0.0,0.0,0.0,0.0,0.0,0.0,0.0,0.0,0.0,0.0,0.0,0.0,0.0,0.0,0.0,0.0,0.0,0.0,0.0,0.0,0.0,0.0,0.0,0.0,0.0,0.0,0.0,0.0,0.0,0.0,0.0,0.0,0.0,0.0,0.0,0.0,0.0,0.0,0.0,0.0,0.0,0.0,0.0,0.0,0.0,0.0,0.0,0.0,0.0,0.0,0.0,0.0,0.0,0.0,0.0,0.0,0.0,0.0,0.0,0.0,0.0,0.0,0.0,0.0,0.0,0.0,0.0,0.0,0.0,0.0,0.0,0.0,0.0,0.0,0.0,0.0,0.0,0.0,0.0,0.0,0.0,0.0,0.0,0.0,0.0,0.0,0.0,0.0,0.0,0.0,0.0,0.0,0.0,0.0,0.0,0.0,0.0,0.0,0.0,0.0,0.0,0.0,0.0,0.0,0.0,0.0,0.0,0.0,0.0,0.0,0.0,0.0,0.0,0.0,0.0,0.0,0.0,0.0,0.0,0.0,0.0,0.0,0.0,0.0,0.0,0.0,0.0,0.0,0.0,0.0,0.0,0.0,0.0,0.0,0.0,0.0,0.0,0.0,0.0,0.0,0.0,0.0,0.0,0.0,0.0,0.0,0.0,0.0,0.0,0.0,0.0,0.0,0.0,0.0,0.0,0.0,0.0,0.0,0.0,0.0,0.0,0.0,0.0,0.0,0.0,0.0,0.0,0.0,0.0,0.0,0.0,0.0,0.0,0.0,0.0,0.0,0.0,0.0,0.0,0.0,0.0,0.0,0.0,0.0,0.0,0.0,0.0,0.0,0.0,0.0,0.0,0.0,0.0,0.0,0.0,0.0,0.0,0.0,0.0,0.0,0.0,0.0,0.0,0.0,0.0,0.0,0.0,0.0,0.0,0.0,0.0,0.0,0.0,0.0,0.0,0.0,0.0,0.0,0.0,0.0,0.0,0.0,0.0,0.0,0.0,0.0,0.0,0.0,0.0,0.0,0.0,0.0,0.0,0.0,0.0,0.0,0.0,0.0,0.0,0.0,0.0,0.0,0.0,0.0,0.0,0.0,0.0,0.0,0.0,0.0,0.0,0.0,0.0,0.0,0.0,0.0,0.0,0.0,0.0,0.0,0.0,0.0,0.0,0.0,0.0,0.0,0.0,0.0,0.0,0.0,0.0,0.0,0.0,0.0,0.0,0.0,0.0,0.0,0.0,0.0,0.0,0.0,0.0,0.0,0.0,0.0,0.0,0.0,0.0,0.0,0.0,0.0,0.0,0.0,0.0,0.0,0.0,0.0,0.0,0.0,0.0,0.0,0.0,0.0,0.0,0.0,0.0,0.0,0.0,0.0,0.0,0.0,0.0,0.0,0.0,0.0,0.0,0.0,0.0,0.0,0.0,0.0,0.0,0.0,0.0,0.0,0.0,0.0,0.0,0.0,0.0,0.0,0.0,0.0,0.0,0.0,0.0,0.0,0.0,0.0,0.0,0.0,0.0,0.0,0.0,0.0,0.0,0.0,0.0,0.0,0.0,0.0,0.0,0.0,0.0,0.0,0.0,0.0,0.0,0.0,0.0,0.0,0.0,0.0,0.0,0.0,0.0,0.0,0.0,0.0,0.0,0.0,0.0,0.0,0.0,0.0,0.0,0.0,0.0,0.0,0.0,0.0,0.0,0.0,0.0,0.0,0.0,0.0,0.0,0.0,0.0,0.0,0.0,0.0,0.0,0.0,0.0,0.0,0.0,0.0,0.0,0.0,0.0,0.0,0.0,0.0,0.0,0.0,0.0,0.0,0.0,0.0,0.0,0.0,0.0,0.0,0.0,0.0,0.0,0.0,0.0,0.0,0.0,0.0,0.0,0.0,0.0,0.0,0.0,0.0,0.0,0.0,0.0,0.0,0.0,0.0,0.0,0.0,0.0,0.0,0.0,0.0,0.0,0.0,0.0,0.0,0.0,0.0,0.0,0.0,0.0,0.0,0.0,0.0,0.0,0.0,0.0,0.0,0.0,0.0,0.0,0.0,0.0,0.0,0.0,0.0,0.0,0.0,0.0,0.0,0.0,0.0,0.0,0.0,0.0,0.0,0.0,0.0,0.0,0.0,0.0,0.0,0.0,0.0,0.0,0.0,0.0,0.0,0.0,0.0,0.0,0.0,0.0,0.0,0.0,0.0,0.0,0.0,0.0,0.0,0.0,0.0,0.0,0.0,0.0,0.0,0.0,0.0,0.0,0.0,0.0,0.0,0.0,0.0,0.0,0.0,0.0,0.0,0.0,0.0,0.0,0.0,0.0,0.0,0.0,0.0,0.0,0.0,0.0,0.0,0.0,0.0,0.0,0.0,0.0,0.0,0.0,0.0,0.0,0.0,0.0,0.0,0.0,0.0,0.0,0.0,0.0,0.0,0.0,0.0,0.0,0.0,0.0,0.0,0.0,0.0,0.0,0.0,0.0,0.0,0.0,0.0,0.0,0.0,0.0,0.0,0.0,0.0,0.0,0.0,0.0,0.0,0.0,0.0,0.0,0.0,0.0,0.0,0.0,0.0,0.0,0.0,0.0,0.0,0.0,0.0,0.0,0.0,0.0,0.0,0.0,0.0,0.0,0.0,0.0,0.0,0.0,0.0,0.0,0.0,0.0,0.0,0.0,0.0,0.0,0.0,0.0,0.0,0.0,0.0,0.0,0.0,0.0,0.0,0.0,0.0,0.0,0.0,0.0,0.0,0.0,0.0,0.0,0.0,0.0,0.0,0.0,0.0,0.0,0.0,0.0,0.0,0.0,0.0,0.0,0.0,0.0,0.0,0.0,0.0,0.0,0.0,0.0,0.0,0.0,0.0,0.0,0.0,0.0,0.0,0.0,0.0,0.0,0.0,0.0,0.0,0.0,0.0,0.0,0.0,0.0,0.0,0.0,0.0,0.0,0.0,0.0,0.0,0.0,0.0,0.0,0.0,0.0,0.0,0.0,0.0,0.0,0.0,0.0,0.0,0.0,0.0,0.0,0.0,0.0,0.0,0.0,0.0,0.0,0.0,0.0,0.0,0.0,0.0,0.0,0.0,0.0,0.0,0.0,0.0,0.0,0.0,0.0,0.0,0.0,0.0,0.0,0.0,0.0,0.0,0.0,0.0,0.0,0.0,0.0,0.0,0.0,0.0,0.0,0.0,0.0,0.0,0.0,0.0,0.0,0.0,0.0,0.0,0.0,0.0,0.0,0.0,0.0,0.0,0.0,0.0,0.0,0.0,0.0,0.0,0.0,0.0,0.0,0.0,0.0,0.0,0.0,0.0,0.0,0.0,0.0,0.0,0.0,0.0,0.0,0.0,0.0,0.0,0.0,0.0,0.0,0.0,0.0,0.0,0.0,0.0,0.0,0.0,0.0,0.0,0.0,0.0,0.0,0.0,0.0,0.0,0.0,0.0,0.0,0.0,0.0,0.0,0.0,0.0,0.0,0.0,0.0,0.0,0.0,0.0,0.0,0.0,0.0,0.0,0.0,0.0,0.0,0.0,0.0,0.0,0.0,0.0,0.0,0.0,0.0,0.0,0.0,0.0,0.0,0.0,0.0,0.0,0.0,0.0,0.0,0.0,0.0,0.0,0.0,0.0,0.0,0.0,0.0,0.0,0.0,0.0,0.0,0.0,0.0,0.0,0.0,0.0,0.0,0.0,0.0,0.0,0.0,0.0,0.0,0.0,0.0,0.0,0.0,0.0,0.0,0.0,0.0,0.0,0.0,0.0,0.0,0.0,0.0,0.0,0.0,0.0,0.0,0.0,0.0,0.0,0.0,0.0,0.0,0.0,0.0,0.0,0.0,0.0,0.0,0.0,0.0,0.0,0.0,0.0,0.0,0.0,0.0,0.0,0.0,0.0,0.0,0.0,0.0,0.0,0.0,0.0,0.0,0.0,0.0,0.0,0.0,0.0,0.0,0.0,0.0,0.0,0.0,0.0,0.0,0.0,0.0,0.0,0.0,0.0,0.0,0.0,0.0,0.0,0.0,0.0,0.0,0.0,0.0,0.0,0.0,0.0,0.0,0.0,0.0,0.0,0.0,0.0,0.0,0.0,0.0,0.0,0.0,0.0,0.0,0.0,0.0,0.0,0.0,0.0,0.0,0.0,0.0,0.0,0.0,0.0,0.0,0.0,0.0,0.0,0.0,0.0,0.0,0.0,0.0,0.0,0.0,0.0,0.0,0.0,0.0,0.0,0.0,0.0,0.0,0.0,0.0,0.0,0.0,0.0,0.0,0.0,0.0,0.0,0.0,0.0,0.0,0.0,0.0,0.0,0.0,0.0,0.0,0.0,0.0,0.0,0.0,0.0,0.0,0.0,0.0,0.0,0.0,0.0,0.0,0.0,0.0,0.0,0.0,0.0,0.0,0.0,0.0,0.0,0.0,0.0,0.0,0.0,0.0,0.0,0.0,0.0,0.0,0.0,0.0,0.0,0.0,0.0,0.0,0.0,0.0,0.0,0.0,0.0,0.0,0.0,0.0,0.0,0.0,0.0,0.0,0.0,0.0,0.0,0.0,0.0,0.0,0.0,0.0,0.0,0.0,0.0,0.0,0.0,0.0,0.0,0.0,0.0,0.0,0.0,0.0,0.0,0.0,0.0,0.0,0.0,0.0,0.0,0.0,0.0,0.0,0.0,0.0,0.0,0.0,0.0,0.0,0.0,0.0,0.0,0.0,0.0,0.0,0.0,0.0,0.0,0.0,0.0,0.0,0.0,0.0,0.0,0.0,0.0,0.0,0.0,0.0,0.0,0.0,0.0,0.0,0.0,0.0,0.0,0.0,0.0,0.0,0.0,0.0,0.0,0.0,0.0,0.0,0.0,0.0,0.0,0.0,0.0,0.0,0.0,0.0,0.0,0.0,0.0,0.0,0.0,0.0,0.0,0.0,0.0,0.0,0.0,0.0,0.0,0.0,0.0,0.0,0.0,0.0,0.0,0.0,0.0,0.0,0.0,0.0,0.0,0.0,0.0,0.0,0.0,0.0,0.0,0.0,0.0,0.0,0.0,0.0,0.0,0.0,0.0,0.0,0.0,0.0,0.0,0.0,0.0,0.0,0.0,0.0,0.0,0.0,0.0,0.0,0.0,0.0,0.0,0.0,0.0,0.0,0.0,0.0,0.0,0.0,0.0,0.0,0.0,0.0,0.0,0.0,0.0,0.0,0.0,0.0,0.0,0.0,0.0,0.0,0.0,0.0,0.0,0.0,0.0,0.0,0.0,0.0,0.0,0.0,0.0,0.0,0.0,0.0,0.0,0.0,0.0,0.0,0.0,0.0,0.0,0.0,0.0,0.0,0.0,0.0,0.0,0.0,0.0,0.0,0.0,0.0,0.0,0.0,0.0,0.0,0.0,0.0,0.0,0.0,0.0,0.0,0.0,0.0,0.0,0.0,0.0,0.0,0.0,0.0,0.0,0.0,0.0,0.0,0.0,0.0,0.0,0.0,0.0,0.0,0.0,0.0,0.0,0.0,0.0,0.0,0.0,0.0,0.0,0.0,0.0,0.0,0.0,0.0,0.0,0.0,0.0,0.0,0.0,0.0,0.0,0.0,0.0,0.0,0.0,0.0,0.0,0.0,0.0,0.0,0.0,0.0,0.0,0.0,0.0,0.0,0.0,0.0,0.0,0.0,0.0,0.0,0.0,0.0,0.0,0.0,0.0,0.0,0.0,0.0,0.0,0.0,0.0,0.0,0.0,0.0,0.0,0.0,0.0,0.0,0.0,0.0,0.0,0.0,0.0,0.0,0.0,0.0,0.0,0.0,0.0,0.0,0.0,0.0,0.0,0.0,0.0,0.0,0.0,0.0,0.0,0.0,0.0,0.0,0.0,0.0,0.0,0.0,0.0,0.0,0.0,0.0,0.0,0.0,0.0,0.0,0.0,0.0,0.0,0.0,0.0,0.0,0.0,0.0,0.0,0.0,0.0,0.0,0.0,0.0,0.0,0.0,0.0,0.0,0.0,0.0,0.0,0.0,0.0,0.0,0.0,0.0,0.0,0.0,0.0,0.0,0.0,0.0,0.0,0.0,0.0,0.0,0.0,0.0,0.0,0.0,0.0,0.0,0.0,0.0,0.0,0.0,0.0,0.0,0.0,0.0,0.0,0.0,0.0,0.0,0.0,0.0,0.0,0.0,0.0,0.0,0.0,0.0,0.0,0.0,0.0,0.0,0.0,0.0,0.0,0.0,0.0,0.0,0.0,0.0,0.0,0.0,0.0,0.0,0.0,0.0,0.0,0.0,0.0,0.0,0.0,0.0,0.0,0.0,0.0,0.0,0.0,0.0,0.0,0.0,0.0,0.0,0.0,0.0,0.0,0.0,0.0,0.0,0.0,0.0,0.0,0.0,0.0,0.0,0.0,0.0,0.0,0.0,0.0,0.0,0.0,0.0,0.0,0.0,0.0,0.0,0.0,0.0,0.0,0.0,0.0,0.0,0.0,0.0,0.0,0.0,0.0,0.0,0.0,0.0,0.0,0.0,0.0,0.0,0.0,0.0,0.0,0.0,0.0,0.0,0.0,0.0,0.0,0.0,0.0,0.0,0.0,0.0,0.0,0.0,0.0,0.0,0.0,0.0,0.0,0.0,0.0,0.0,0.0,0.0,0.0,0.0,0.0,0.0,0.0,0.0,0.0,0.0,0.0,0.0,0.0,0.0,0.0,0.0,0.0,0.0,0.0,0.0,0.0,0.0,0.0,0.0,0.0,0.0,0.0,0.0,0.0,0.0,0.0,0.0,0.0,0.0,0.0,0.0,0.0,0.0,0.0,0.0,0.0,0.0,0.0,0.0,0.0,0.0,0.0,0.0,0.0,0.0,0.0,0.0,0.0,0.0,0.0,0.0,0.0,0.0,0.0,0.0,0.0,0.0,0.0,0.0,0.0,0.0,0.0,0.0,0.0,0.0,0.0,0.0,0.0,0.0,0.0,0.0,0.0,0.0,0.0,0.0,0.0,0.0,0.0,0.0,0.0,0.0,0.0,0.0,0.0,0.0,0.0,0.0,0.0,0.0,0.0,0.0,0.0,0.0,0.0,0.0,0.0,0.0,0.0,0.0,0.0,0.0,0.0,0.0,0.0,0.0,0.0,0.0,0.0,0.0,0.0,0.0,0.0,0.0,0.0,0.0,0.0,0.0,0.0,0.0,0.0,0.0,0.0,0.0,0.0,0.0,0.0,0.0,0.0,0.0,0.0,0.0,0.0,0.0,0.0,0.0,0.0,0.0,0.0,0.0,0.0,0.0,0.0,0.0,0.0,0.0,0.0,0.0,0.0,0.0,0.0,0.0,0.0,0.0,0.0,0.0,0.0,0.0,0.0,0.0,0.0,0.0,0.0,0.0,0.0,0.0,0.0,0.0,0.0,0.0,0.0,0.0,0.0,0.0,0.0,0.0,0.0,0.0,0.0,0.0,0.0,0.0,0.0,0.0,0.0,0.0,0.0,0.0,0.0,0.0,0.0,0.0,0.0,0.0,0.0,0.0,0.0,0.0,0.0,0.0,0.0,0.0,0.0,0.0,0.0,0.0,0.0,0.0,0.0,0.0,0.0,0.0,0.0,0.0,0.0,0.0,0.0,0.0,0.0,0.0,0.0,0.0,0.0,0.0,0.0,0.0,0.0,0.0,0.0,0.0,0.0,0.0,0.0,0.0,0.0,0.0,0.0,0.0,0.0,0.0,0.0,0.0,0.0,0.0,0.0,0.0,0.0,0.0,0.0,0.0,0.0,0.0,0.0,0.0,0.0,0.0,0.0,0.0,0.0,0.0,0.0,0.0,0.0,0.0,0.0,0.0,0.0,0.0,0.0,0.0,0.0,0.0,0.0,0.0,0.0,0.0,0.0,0.0,0.0,0.0,0.0,0.0,0.0,0.0,0.0,0.0,0.0,0.0,0.0,0.0,0.0,0.0,0.0,0.0,0.0,0.0,0.0,0.0,0.0,0.0,0.0,0.0,0.0,0.0,0.0,0.0,0.0,0.0,0.0,0.0,0.0,0.0,0.0,0.0,0.0,0.0,0.0,0.0,0.0,0.0,0.0,0.0,0.0,0.0,0.0,0.0,0.0,0.0,0.0,0.0,0.0,0.0,0.0,0.0,0.0,0.0,0.0,0.0,0.0,0.0,0.0,0.0,0.0,0.0,0.0,0.0,0.0,0.0,0.0,0.0,0.0,0.0,0.0,0.0,0.0,0.0,0.0,0.0,0.0,0.0,0.0,0.0,0.0,0.0,0.0,0.0,0.0,0.0,0.0,0.0,0.0,0.0,0.0,0.0,0.0,0.0,0.0,0.0,0.0,0.0,0.0,0.0,0.0,0.0,0.0,0.0,0.0,0.0,0.0,0.0,0.0,0.0,0.0,0.0,0.0,0.0,0.0,0.0,0.0,0.0,0.0,0.0,0.0,0.0,0.0,0.0,0.0,0.0,0.0,0.0,0.0,0.0,0.0,0.0,0.0,0.0,0.0,0.0,0.0,0.0,0.0,0.0,0.0,0.0,0.0,0.0,0.0,0.0,0.0,0.0,0.0,0.0,0.0,0.0,0.0,0.0,0.0,0.0,0.0,0.0,0.0,0.0,0.0,0.0,0.0,0.0,0.0,0.0,0.0,0.0,0.0,0.0,0.0,0.0,0.0,0.0,0.0,0.0,0.0,0.0,0.0,0.0,0.0,0.0,0.0,0.0,0.0,0.0,0.0,0.0,0.0,0.0,0.0,0.0,0.0,0.0,0.0,0.0,0.0,0.0,0.0,0.0,0.0,0.0,0.0,0.0,0.0,0.0,0.0,0.0,0.0,0.0,0.0,0.0,0.0,0.0,0.0,0.0,0.0,0.0,0.0,0.0,0.0,0.0,0.0,0.0,0.0,0.0,0.0,0.0,0.0,0.0,0.0,0.0,0.0,0.0,0.0,0.0,0.0,0.0,0.0,0.0,0.0,0.0,0.0,0.0,0.0,0.0,0.0,0.0,0.0,0.0,0.0,0.0,0.0,0.0,0.0,0.0,0.0,0.0,0.0,0.0,0.0,0.0,0.0,0.0,0.0,0.0,0.0,0.0,0.0,0.0,0.0,0.0,0.0,0.0,0.0,0.0,0.0,0.0,0.0,0.0,0.0,0.0,0.0,0.0,0.0,0.0,0.0,0.0,0.0,0.0,0.0,0.0,0.0,0.0,0.0,0.0,0.0,0.0,0.0,0.0,0.0,0.0,0.0,0.0,0.0,0.0,0.0,0.0,0.0,0.0,0.0,0.0,0.0,0.0,0.0,0.0,0.0,0.0,0.0,0.0,0.0,0.0,0.0,0.0,0.0,0.0,0.0,0.0,0.0,0.0,0.0,0.0,0.0,0.0,0.0,0.0,0.0,0.0,0.0,0.0,0.0,0.0,0.0,0.0,0.0,0.0,0.0,0.0,0.0,0.0,0.0,0.0,0.0,0.0,0.0,0.0,0.0,0.0,0.0,0.0,0.0,0.0,0.0,0.0,0.0,0.0,0.0,0.0,0.0,0.0,0.0,0.0,0.0,0.0,0.0,0.0,0.0,0.0,0.0,0.0,0.0,0.0,0.0,0.0,0.0,0.0,0.0,0.0,0.0,0.0,0.0,0.0,0.0,0.0,0.0,0.0,0.0,0.0,0.0,0.0,0.0,0.0,0.0,0.0,0.0,0.0,0.0,0.0,0.0,0.0,0.0,0.0,0.0,0.0,0.0,0.0,0.0,0.0,0.0,0.0,0.0,0.0,0.0,0.0,0.0,0.0,0.0,0.0,0.0,0.0,0.0,0.0,0.0,0.0,0.0,0.0,0.0,0.0,0.0,0.0,0.0,0.0,0.0,0.0,0.0,0.0,0.0,0.0,0.0,0.0,0.0,0.0,0.0,0.0,0.0,0.0,0.0,0.0,0.0,0.0,0.0,0.0,0.0,0.0,0.0,0.0,0.0,0.0,0.0,0.0,0.0,0.0,0.0,0.0,0.0,0.0,0.0,0.0,0.0,0.0,0.0,0.0,0.0,0.0,0.0,0.0,0.0,0.0,0.0,0.0,0.0,0.0,0.0,0.0,0.0,0.0,0.0,0.0,0.0,0.0,0.0,0.0,0.0,0.0,0.0,0.0,0.0,0.0,0.0,0.0,0.0,0.0,0.0,0.0,0.0,0.0,0.0,0.0,0.0,0.0,0.0,0.0,0.0,0.0,0.0,0.0,0.0,0.0,0.0,0.0,0.0,0.0,0.0,0.0,0.0,0.0,0.0,0.0,0.0,0.0,0.0,0.0,0.0,0.0,0.0,0.0,0.0,0.0,0.0,0.0,0.0,0.0,0.0,0.0,0.0,0.0,0.0,0.0,0.0,0.0,0.0,0.0,0.0,0.0,0.0,0.0,0.0,0.0,0.0,0.0,0.0,0.0,0.0,0.0,0.0,0.0,0.0,0.0,0.0,0.0,0.0,0.0,0.0,0.0,0.0,0.0,0.0,0.0,0.0,0.0,0.0,0.0,0.0,0.0,0.0,0.0,0.0,0.0,0.0,0.0,0.0,0.0,0.0,0.0,0.0,0.0,0.0,0.0,0.0,0.0,0.0,0.0,0.0,0.0,0.0,0.0,0.0,0.0,0.0,0.0,0.0,0.0,0.0,0.0,0.0,0.0,0.0,0.0,0.0,0.0,0.0,0.0,0.0,0.0,0.0,0.0,0.0,0.0,0.0,0.0,0.0,0.0,0.0,0.0,0.0,0.0,0.0,0.0,0.0,0.0,0.0,0.0,0.0,0.0,0.0,0.0,0.0,0.0,0.0,0.0,0.0,0.0,0.0,0.0,0.0,0.0,0.0,0.0,0.0,0.0,0.0,0.0,0.0,0.0,0.0,0.0,0.0,0.0,0.0,0.0,0.0,0.0,0.0,0.0,0.0,0.0,0.0,0.0,0.0,0.0,0.0,0.0,0.0,0.0,0.0,0.0,0.0,0.0,0.0,0.0,0.0,0.0,0.0,0.0,0.0,0.0,0.0,0.0,0.0,0.0,0.0,0.0,0.0,0.0,0.0,0.0,0.0,0.0,0.0,0.0,0.0,0.0,0.0]}]]